[[[{"header":{"parameterUnit":"kt","parameterCategory":2,"dx":1,"dy":1,"la1":29.285339999999998,"la2":30.599998999999997,"lo1":-89.70041500000002,"lo2":-87.6738589999976,"nx":112,"ny":82,"refTime":"2022-10-25T12:00:00:Z","depth":0,"parameterNumber":1,"parameterNumberName":"U-component_of_WINDS"},"data":[15.4269,15.6308,15.6965,14.9272,14.9469,14.96,14.1972,14.2104,14.2597,13.8203,13.7447,13.7093,13.5311,13.3593,13.2365,13.1913,13.0261,12.748,0.0,12.1164,12.0905,12.2328,12.9766,13.5002,13.5791,14.0263,14.509,14.9763,15.0801,15.3223,15.7649,15.7875,15.7557,15.6702,15.6636,15.6373,15.5913,15.6373,15.6373,15.5913,15.5913,15.6176,15.6636,15.611,15.6636,15.7886,15.5379,15.4539,15.4633,15.135,14.952,14.8537,14.5736,14.5065,14.5887,14.5101,14.5184,14.5533,14.5533,14.5533,14.5533,14.5533,14.5533,14.5533,14.5533,14.5533,14.5359,14.4544,14.3963,14.3439,14.2625,14.2101,14.1752,14.1752,14.2334,14.2625,14.1287,14.1403,14.1578,14.1112,14.1054,14.1694,14.3323,14.4021,14.4602,14.5417,14.5533,14.5359,14.4951,14.4137,14.038,13.1808,13.0095,12.6831,11.9856,11.8993,11.8066,11.6309,11.6504,11.6357,11.5674,11.5625,11.5625,11.5625,11.5625,11.5625,11.5625,11.5625,11.5625,11.5625,11.5625,11.5625,15.0324,15.2165,15.302,14.4274,14.4668,14.5063,13.6843,13.6192,13.5964,13.0862,13.1107,13.1005,12.7465,12.8789,13.0181,12.904,12.9416,12.879,0.0,12.291,12.2134,12.5043,13.3229,13.8421,13.7961,14.3551,14.8022,15.0061,15.1442,15.394,15.782,15.7557,15.6834,15.5913,15.5913,15.5913,15.5913,15.5913,15.5913,15.5913,15.5913,15.5913,15.5913,15.5913,15.6439,15.7228,15.6834,15.6555,15.6255,15.4646,15.2842,15.0913,14.783,14.6676,14.66,14.5803,14.5533,14.5533,14.5533,14.5533,14.5533,14.5533,14.5533,14.5533,14.5533,14.5533,14.53,14.4021,14.3323,14.2683,14.1403,14.1054,14.1054,14.1054,14.2043,14.2625,14.1345,14.1054,14.0938,14.0473,14.0065,14.0414,14.2625,14.2625,14.2916,14.4661,14.4893,14.5068,14.5475,14.4777,14.1775,13.4986,13.224,12.8462,12.2553,12.1198,11.9628,11.7431,11.7285,11.6943,11.6211,11.5821,11.5625,11.5625,11.5625,11.5625,11.5625,11.5625,11.5625,11.5625,11.5625,11.5625,14.7496,14.697,14.7233,13.8619,13.7632,13.7501,13.2861,13.1127,13.0168,12.8285,12.7279,12.6457,12.6451,12.8476,12.9232,12.6494,12.8376,0.0,0.0,12.573,12.619,13.178,13.6186,14.046,14.4734,14.1446,14.2564,15.1113,14.7628,14.8943,15.7491,15.6636,15.5913,15.5913,15.5913,15.5913,15.5913,15.5913,15.5913,15.5913,15.5913,15.5913,15.5913,15.5913,15.5913,15.6045,15.736,15.8017,15.8215,15.9596,15.654,15.1437,15.2279,14.9053,14.4109,14.5068,14.5533,14.5533,14.5533,14.5533,14.5533,14.5533,14.5533,14.5533,14.5533,14.5533,14.53,14.3963,14.2741,14.1461,14.0065,13.9716,13.9716,13.9658,14.0705,14.1287,13.9949,13.9716,13.9367,13.8088,13.8844,14.0124,14.1461,14.0647,14.0705,14.3323,14.373,14.4137,14.5417,14.5533,14.3616,13.8603,13.4758,13.0261,12.5402,12.2247,12.0555,12.0604,11.8554,11.7334,11.7236,11.626,11.5674,11.5625,11.5625,11.5625,11.5625,11.5625,11.5625,11.5625,11.5625,11.5625,14.0131,14.1644,14.3616,13.9145,13.9079,13.8334,13.1148,12.7692,12.5197,12.1836,11.9583,0.0,0.0,0.0,12.413,12.7084,0.0,13.4936,13.132,13.5594,13.9737,14.1249,14.1578,14.3419,14.7825,14.8154,14.9863,15.4401,15.0718,15.0652,15.6176,15.611,15.5913,15.5913,15.5913,15.5913,15.5913,15.5913,15.5913,15.5913,15.5913,15.5913,15.5913,15.5913,15.6439,15.736,15.6768,15.7689,15.9394,15.7533,15.641,15.5606,15.2279,14.9947,14.8104,14.6359,14.5533,14.5533,14.5533,14.5533,14.5533,14.5533,14.5533,14.5533,14.5533,14.5533,14.5068,14.2857,14.2683,14.2392,13.9193,13.9018,13.9484,13.8553,13.9367,13.9949,13.8611,13.9077,13.9367,13.8088,13.8088,13.8786,14.0065,14.0763,14.2043,14.4661,14.501,14.5126,14.5533,14.5533,14.3962,13.9784,13.8279,13.4708,12.767,12.5748,12.3761,12.1629,12.0409,11.8895,11.7334,11.6943,11.6455,11.5674,11.5625,11.5625,11.5625,11.5625,11.5625,11.5625,11.5625,11.5625,13.6975,13.8224,14.0065,13.5988,13.6149,13.4892,12.6039,12.1746,11.9412,11.8678,0.0,0.0,0.0,0.0,0.0,0.0,13.5255,13.8619,13.5988,14.1052,14.526,14.5852,14.8417,15.0455,15.1244,15.2033,15.348,15.5716,15.2494,15.1968,15.5716,15.5913,15.5913,15.5913,15.5913,15.5913,15.5913,15.5913,15.5913,15.5913,15.5913,15.5913,15.5913,15.5913,15.6308,15.7097,15.69,15.7754,15.9066,15.6495,15.6449,15.7005,15.1122,14.8223,14.7354,14.5452,14.5068,14.5533,14.5533,14.5533,14.5533,14.5533,14.5533,14.5533,14.5533,14.5184,14.4312,14.2334,14.1869,14.1345,13.8553,13.8379,13.8728,13.7971,13.8379,13.8728,13.7971,13.8437,13.8902,13.8669,13.8204,13.8204,13.9484,14.0822,14.245,14.4428,14.4719,14.4951,14.5475,14.5533,14.4673,14.2333,14.0844,13.7366,13.0954,12.8281,12.5544,12.2385,12.1531,12.0409,11.87,11.7724,11.6943,11.6357,11.5869,11.5625,11.5625,11.5625,11.5625,11.5625,11.5625,11.5625,13.5144,13.5054,13.5882,13.0165,12.9743,12.8656,12.0018,0.0,11.443,11.9306,0.0,11.9407,12.8573,0.0,0.0,13.3742,13.8619,14.2104,14.1775,14.4471,14.6904,14.8022,15.5124,15.8412,15.4664,15.4269,15.4729,15.5847,15.3546,15.3217,15.5782,15.6045,15.6045,15.5913,15.5913,15.5913,15.5913,15.5913,15.5913,15.5913,15.5913,15.5913,15.5913,15.5913,15.5913,15.5979,15.7228,15.7754,15.7621,15.6126,15.5848,15.5925,14.8566,14.5293,14.408,14.3876,14.437,14.5359,14.5359,14.5359,14.5359,14.5533,14.5533,14.5533,14.5533,14.4777,14.3555,14.2159,14.088,13.96,13.8204,13.7797,13.7797,13.7797,13.7797,13.7797,13.7797,13.7797,13.8146,13.9309,13.8728,13.8495,13.9949,14.1171,14.2392,14.3672,14.3846,14.4253,14.5417,14.5533,14.5533,14.5533,14.2606,13.8554,13.4198,13.0655,12.6817,12.2434,12.2117,12.1678,12.075,11.87,11.7529,11.7236,11.6211,11.5625,11.5625,11.5625,11.5625,11.5625,11.5625,11.5625,12.5401,12.6576,12.8494,12.265,12.1102,12.0549,0.0,0.0,0.0,12.8103,12.8406,12.9862,14.0233,14.0636,14.0949,14.5352,14.9009,15.0455,14.8154,15.2231,15.519,15.4335,15.6702,15.8083,15.7294,15.7228,15.6834,15.5979,15.5387,15.5321,15.5847,15.6965,15.7097,15.5913,15.5913,15.5913,15.5913,15.5913,15.5913,15.5913,15.5913,15.5913,15.5913,15.5913,15.5913,15.5913,15.6176,15.6308,15.6176,15.4641,15.2591,14.9942,14.4663,14.4592,14.7121,14.4543,14.3788,14.4021,14.4021,14.4021,14.4195,14.5184,14.5533,14.5533,14.5533,14.5359,14.4661,14.2392,14.1578,14.0822,13.8437,13.7797,13.7797,13.7797,13.7797,13.7797,13.7797,13.7797,13.7913,13.8146,13.8844,14.0124,14.2508,14.309,14.373,14.501,14.5184,14.5242,14.5533,14.5533,14.5533,14.5533,14.4941,14.1453,13.449,13.3321,12.9807,12.2434,12.2117,12.2019,12.1824,12.0604,11.9091,11.7285,11.6211,11.5625,11.5625,11.5625,11.5625,11.5625,11.5625,11.5625,12.0319,12.0431,12.1186,11.6867,11.5781,0.0,0.0,11.3924,11.6906,12.7878,13.0853,13.4028,14.3406,14.4691,14.4875,14.6916,15.0916,15.4006,15.4729,15.7294,15.8807,15.8149,15.8675,15.9398,16.0122,15.953,15.907,15.907,15.7754,15.6636,15.5913,15.6571,15.6636,15.5913,15.5913,15.5913,15.5913,15.5913,15.5913,15.5913,15.5913,15.5913,15.5913,15.5913,15.5913,15.5913,15.5913,15.5913,15.5519,15.1883,14.9253,14.7519,14.3611,14.2833,14.3824,14.2912,14.2683,14.2857,14.4137,14.4195,14.3846,14.5126,14.5533,14.5533,14.5533,14.5533,14.501,14.245,14.1229,14.0298,13.832,13.7797,13.7797,13.7797,13.832,13.8786,13.8786,13.8786,13.896,13.9658,14.0822,14.2101,14.3381,14.4195,14.4777,14.5475,14.5533,14.5533,14.5533,14.5533,14.5533,14.5533,14.3807,14.0289,13.449,13.2142,12.8294,12.2434,12.2117,12.2117,12.2117,12.1629,12.0555,11.8944,11.7285,11.6455,11.6455,11.6455,11.6748,11.7285,11.7285,11.6992,11.5344,11.4633,11.475,11.1827,11.1333,0.0,11.2295,11.4295,11.9085,13.023,13.5195,13.9785,14.673,14.8943,14.9337,14.8154,15.1968,15.6242,15.9727,16.0187,16.0187,16.0187,16.045,16.1042,16.216,16.124,16.1108,16.2226,15.9924,15.782,15.6373,15.6308,15.6176,15.5913,15.5913,15.5913,15.5913,15.5913,15.5913,15.5913,15.5913,15.5913,15.5913,15.5913,15.5913,15.5913,15.5913,15.5913,15.5453,15.0051,14.7585,14.669,14.3774,14.1549,13.9891,14.0938,14.1345,14.1694,14.4021,14.4137,14.3497,14.5068,14.5533,14.5533,14.5533,14.5533,14.5126,14.3032,14.1345,13.9775,13.8204,13.803,13.8204,13.8204,13.9193,14.0124,14.0124,14.0124,14.0531,14.1869,14.2916,14.3614,14.3614,14.4719,14.5533,14.5533,14.5533,14.5533,14.5533,14.5533,14.5533,14.5533,14.2002,13.8216,13.4198,13.0355,12.6251,12.2434,12.2117,12.2117,12.2117,12.2117,12.1629,12.0555,11.8798,11.7773,11.7578,11.7773,11.8261,11.8944,11.8944,11.8456,10.6384,10.7515,10.9665,10.6792,10.6018,0.0,12.2092,12.5442,13.0454,14.7277,15.203,15.4367,15.7946,15.8609,15.8675,15.8543,15.907,15.9661,16.0122,16.0187,16.0187,16.0187,16.1305,16.216,16.2292,16.216,16.216,16.2292,16.0845,15.9333,15.782,15.7754,15.7228,15.5913,15.5913,15.5913,15.5913,15.5913,15.5913,15.5913,15.5913,15.5913,15.5913,15.5913,15.5913,15.5913,15.5913,15.5913,15.5651,15.229,14.9404,14.6814,14.4746,14.2321,13.9775,13.9891,13.9949,14.0182,14.1636,14.2043,14.2334,14.4777,14.5533,14.5533,14.5533,14.5533,14.5475,14.5184,14.3381,14.0938,13.8495,13.8669,13.9542,13.9542,14.0531,14.152,14.152,14.152,14.1869,14.3206,14.3555,14.3614,14.3614,14.4719,14.5533,14.5533,14.5533,14.5533,14.5533,14.5533,14.5533,14.5533,14.2002,13.8216,13.4198,13.0355,12.6251,12.2434,12.2117,12.2117,12.2117,12.2117,12.1629,12.0555,12.0311,11.9676,11.8749,11.9725,11.9725,11.8944,11.8944,11.8847,10.2072,10.2329,10.4243,10.5965,0.0,0.0,12.453,13.0257,13.6371,14.7868,15.1811,15.4129,15.7161,15.7689,15.7952,15.8807,15.9661,16.0187,16.0187,16.1634,16.2686,16.2686,16.3212,16.3607,16.3607,16.3607,16.3607,16.3607,16.1503,15.9924,15.9333,15.7689,15.6505,15.5913,15.5913,15.5913,15.5913,15.5913,15.5913,15.5913,15.5913,15.5913,15.5913,15.5913,15.5913,15.5913,15.5913,15.5913,15.5847,15.4526,15.1179,14.6977,14.6172,14.2951,13.8728,13.9484,13.9251,13.8902,14.0996,14.1752,14.2043,14.3846,14.4951,14.5533,14.5533,14.5533,14.5417,14.4661,14.3672,14.2392,14.0589,13.9891,13.9949,14.0705,14.1869,14.2857,14.2857,14.2857,14.3206,14.4486,14.4777,14.4777,14.4777,14.5184,14.5533,14.5533,14.5533,14.5533,14.5533,14.5533,14.5533,14.5533,14.0011,13.5648,13.3907,12.8041,12.3912,12.2117,12.2117,12.2117,12.2117,12.2117,12.1922,12.1482,12.1482,12.0945,11.9872,12.0945,12.0897,11.9872,12.0506,12.0457,9.9239,0.0,0.0,0.0,0.0,0.0,13.0428,13.679,14.2052,14.8643,15.172,15.3875,15.5584,15.5913,15.6373,15.7754,15.8872,15.9859,16.0648,16.2555,16.4067,16.4462,16.4527,16.4527,16.4527,16.4527,16.4527,16.4527,16.216,16.0648,16.0187,15.782,15.6308,15.5913,15.5913,15.5913,15.5913,15.5913,15.5913,15.5913,15.5913,15.5913,15.5913,15.5913,15.5913,15.5913,15.5913,15.5913,15.5913,15.5913,15.2769,14.8028,14.7362,14.3765,13.9109,13.9098,13.8611,13.8146,14.0414,14.1171,14.1461,14.309,14.4253,14.5068,14.5417,14.5533,14.5359,14.4428,14.3904,14.3439,14.2508,14.152,14.1054,14.2043,14.3265,14.4195,14.4195,14.4195,14.4428,14.5359,14.5533,14.5533,14.5533,14.5533,14.5533,14.5533,14.5533,14.5533,14.5533,14.5533,14.5533,14.5533,13.9452,13.507,13.3907,12.7736,12.3284,12.2117,12.2117,12.2117,12.2117,12.2117,12.2117,12.2117,12.2117,12.158,12.0506,12.158,12.1726,12.0994,12.1775,12.1726,0.0,0.0,0.0,11.6448,12.1029,12.7097,14.3313,14.7186,14.9024,15.4469,15.6834,15.7426,15.611,15.5913,15.6373,15.7754,15.8017,15.907,16.1831,16.2292,16.2884,16.433,16.4527,16.4527,16.4527,16.4527,16.4527,16.4527,16.3081,16.1634,16.0253,15.8741,15.7294,15.5913,15.5913,15.5913,15.5913,15.5913,15.5913,15.5913,15.5913,15.5913,15.5913,15.5913,15.5913,15.5913,15.5913,15.5913,15.5913,15.5913,15.4058,15.0968,14.8028,14.5158,14.199,13.905,13.7855,13.803,13.9309,13.9775,14.024,14.2799,14.3672,14.3904,14.5184,14.5533,14.5533,14.5533,14.4602,14.3614,14.3614,14.3555,14.3555,14.3555,14.4544,14.5475,14.5475,14.5475,14.5533,14.5533,14.5533,14.5533,14.5533,14.5533,14.5533,14.5533,14.5533,14.5533,14.5533,14.5533,14.5533,14.5533,14.2002,13.7933,13.4198,13.0055,12.6251,12.2434,12.2117,12.2117,12.2117,12.2117,12.2117,12.2117,12.2117,12.158,12.0506,12.158,12.2117,12.2068,12.2117,12.2117,10.3039,10.6614,11.234,12.5333,13.1255,13.6915,14.781,15.172,15.3877,15.6636,15.69,15.6439,15.5979,15.5913,15.6045,15.6505,15.736,15.8675,16.0648,16.17,16.2818,16.433,16.4527,16.4527,16.4527,16.4527,16.4527,16.4527,16.3147,16.17,16.0253,15.8807,15.736,15.5913,15.5913,15.5913,15.5913,15.5913,15.5913,15.5913,15.5913,15.5913,15.5913,15.5913,15.5913,15.5913,15.5913,15.5913,15.5913,15.5913,15.4123,15.139,15.0265,14.6915,14.2468,14.1267,13.9676,13.7913,13.832,13.9018,13.9891,14.0763,14.1636,14.2625,14.3904,14.4312,14.4312,14.4312,14.4602,14.4544,14.2799,14.3614,14.4893,14.4893,14.5242,14.5533,14.5533,14.5533,14.5533,14.5533,14.5533,14.5533,14.5533,14.5533,14.5533,14.5533,14.5533,14.5533,14.5533,14.5533,14.5533,14.5533,14.2002,13.9116,13.7933,13.1793,12.743,12.5942,12.3598,12.2117,12.2117,12.2117,12.2117,12.2117,12.2117,12.197,12.158,12.197,12.2117,12.2117,12.2117,12.2117,10.6377,11.1556,11.8093,13.1986,13.888,14.423,15.1579,15.4532,15.611,15.7031,15.6505,15.5913,15.5913,15.5913,15.5913,15.5913,15.6636,15.7952,15.9924,16.0977,16.2292,16.4264,16.4527,16.4527,16.4527,16.4527,16.4527,16.4527,16.3147,16.1897,16.0977,15.907,15.7557,15.6702,15.6176,15.5913,15.5913,15.5913,15.5913,15.5913,15.5913,15.5913,15.5913,15.5913,15.5913,15.5913,15.5913,15.5913,15.5913,15.5913,15.4791,15.2975,15.1874,14.8468,14.3999,14.2884,14.0598,13.7797,13.7797,13.8379,13.9135,13.96,14.0298,14.1287,14.2567,14.3265,14.3614,14.3614,14.4544,14.5184,14.3497,14.4312,14.5533,14.5533,14.5533,14.5533,14.5533,14.5533,14.5533,14.5533,14.5533,14.5533,14.5533,14.5533,14.5533,14.5533,14.5533,14.5533,14.5533,14.5533,14.5533,14.5533,14.3479,14.112,13.9955,13.3853,12.9454,12.799,12.4176,12.2117,12.2117,12.2117,12.2117,12.2117,12.2117,12.2117,12.2117,12.2117,12.2117,12.2117,12.2117,12.2117,10.7937,11.5753,12.4174,13.7151,14.3897,14.8877,15.4598,15.5913,15.5913,15.5913,15.5913,15.5913,15.5913,15.5913,15.5913,15.5913,15.5913,15.69,15.9661,16.0122,16.124,16.4067,16.4462,16.4527,16.4527,16.4527,16.4527,16.4527,16.3212,16.2357,16.2292,15.9661,15.8083,15.8017,15.6636,15.5913,15.5913,15.5913,15.5913,15.5913,15.5913,15.5913,15.5913,15.5913,15.5913,15.5913,15.5913,15.5913,15.5913,15.5913,15.5913,15.5651,15.2769,14.9836,14.6915,14.3999,14.0842,13.8049,13.8049,13.8049,13.803,13.9251,13.9658,13.9949,14.1229,14.2567,14.3614,14.3614,14.4544,14.5533,14.5533,14.5533,14.5533,14.5533,14.5533,14.5533,14.5533,14.5533,14.5533,14.5533,14.5533,14.5533,14.5533,14.5533,14.5533,14.5533,14.5533,14.5533,14.5533,14.5533,14.5533,14.5533,14.5533,14.4077,14.0289,13.651,13.2438,12.8598,12.4489,12.2434,12.2117,12.2117,12.2117,12.2117,12.2117,12.2117,12.2117,12.2117,12.2117,12.2117,12.2117,12.2117,11.6837,12.6319,13.4496,14.6956,15.0272,15.1442,15.5058,15.5913,15.5913,15.5913,15.5913,15.5913,15.5913,15.5913,15.5913,15.5913,15.5913,15.6505,15.828,15.953,16.0845,16.262,16.387,16.4527,16.4527,16.4527,16.4527,16.4527,16.4133,16.3475,16.2357,16.0582,15.9135,15.8017,15.6636,15.5913,15.5913,15.5913,15.5913,15.5913,15.5913,15.5913,15.5913,15.5913,15.5913,15.5913,15.5913,15.5913,15.5913,15.5913,15.5913,15.5913,15.4991,15.2975,15.0265,14.9404,14.5722,14.1208,14.1267,13.9676,13.7855,13.8204,13.896,13.9775,14.0124,14.181,14.3614,14.3614,14.4544,14.5533,14.5533,14.5533,14.5533,14.5533,14.5533,14.5533,14.5533,14.5533,14.5533,14.5533,14.5533,14.5533,14.5533,14.5533,14.5533,14.5533,14.5533,14.5533,14.5533,14.5533,14.5533,14.5533,14.5533,14.5266,14.4077,14.0567,13.651,13.2733,12.8598,12.5062,12.2117,12.2117,12.2117,12.2117,12.2117,12.2117,12.2117,12.2117,12.2117,12.2117,12.2117,12.2117,11.6953,12.8616,13.9401,15.02,15.2231,15.2362,15.5256,15.5913,15.5913,15.5913,15.6373,15.6636,15.5979,15.5913,15.5913,15.5913,15.5913,15.6373,15.782,15.8741,15.999,16.2029,16.3015,16.3804,16.4462,16.4527,16.4527,16.4527,16.4527,16.4133,16.3344,16.1897,16.045,15.9004,15.7557,15.6834,15.6834,15.6176,15.6176,15.6834,15.6176,15.5913,15.5913,15.5913,15.5913,15.5913,15.5913,15.5913,15.5913,15.5913,15.5913,15.5913,15.5913,15.4123,15.1179,15.0051,14.6464,14.2169,14.0782,13.9181,13.7797,13.7797,13.832,13.8902,13.8902,14.0705,14.2799,14.2799,14.4137,14.5533,14.5533,14.5533,14.5533,14.5533,14.5533,14.5533,14.5533,14.5533,14.5533,14.5533,14.5533,14.5533,14.5533,14.5533,14.5533,14.5533,14.5533,14.5533,14.5533,14.5533,14.5533,14.5533,14.5533,14.5533,14.5533,14.2002,13.8835,13.651,13.1252,12.6817,12.4751,12.3017,12.2117,12.2117,12.2117,12.2117,12.2117,12.2117,12.2117,12.2117,12.2117,12.2117,11.5227,12.7744,14.0826,14.9732,15.1902,15.2625,15.5519,15.6176,15.6176,15.6176,15.7163,15.7557,15.6176,15.5913,15.5913,15.5913,15.5913,15.6308,15.7557,15.7886,15.9004,16.17,16.216,16.2884,16.433,16.4527,16.4527,16.4527,16.4527,16.4527,16.4527,16.3081,16.1634,16.0253,15.8741,15.8017,15.8017,15.6768,15.6768,15.8017,15.6965,15.6373,15.6176,15.6176,15.6045,15.5913,15.5913,15.5913,15.5913,15.5913,15.5913,15.5913,15.5913,15.4325,15.16,14.8688,14.5555,14.2646,13.9429,13.8049,13.7797,13.7797,13.7913,13.8088,13.8088,13.9891,14.2043,14.2218,14.3963,14.5824,14.5824,14.5824,14.5766,14.5591,14.5533,14.5533,14.5533,14.5533,14.5533,14.5533,14.5533,14.5533,14.5533,14.5533,14.5533,14.5533,14.5533,14.5533,14.5533,14.5533,14.5533,14.5533,14.5533,14.5533,14.5533,14.2606,14.0289,13.9676,13.3268,12.8849,12.799,12.4751,12.2702,12.2117,12.2117,12.2117,12.2117,12.2117,12.2117,12.2117,12.2117,12.2117,12.625,13.443,14.1461,15.1059,15.3414,15.4138,15.6965,15.7623,15.7623,15.7623,15.782,15.7557,15.6176,15.5913,15.5913,15.5913,15.5913,15.5979,15.6242,15.7294,15.8609,16.0385,16.1568,16.2884,16.433,16.4527,16.4527,16.4527,16.4527,16.4527,16.4527,16.3081,16.1634,16.0253,15.8741,15.8017,15.8017,15.7754,15.7754,15.8017,15.9004,15.8807,15.7623,15.7623,15.7031,15.5913,15.5913,15.5913,15.5913,15.5913,15.5913,15.5913,15.5913,15.5651,15.4791,15.1809,14.8688,14.5784,14.2646,13.9922,13.7797,13.7797,13.8553,13.9426,13.9426,14.1229,14.3497,14.4602,14.5998,14.722,14.722,14.722,14.6929,14.5824,14.5533,14.5533,14.5533,14.5533,14.5533,14.5533,14.5533,14.5533,14.5533,14.5533,14.5533,14.5533,14.5533,14.5533,14.5533,14.5533,14.5533,14.5533,14.5533,14.5533,14.5533,14.4941,14.3208,13.9955,13.8498,13.4726,12.8294,12.743,12.5373,12.2117,12.2117,12.2117,12.2117,12.2117,12.2117,12.2117,12.2117,12.2117,12.7033,13.4113,14.0378,14.6543,15.0389,15.3217,15.5321,15.6965,15.8215,15.9004,15.9135,15.8675,15.7228,15.6373,15.5913,15.5913,15.5913,15.5913,15.5913,15.6505,15.7426,15.8872,16.0319,16.1766,16.3212,16.4067,16.4527,16.4527,16.4527,16.4527,16.4527,16.387,16.2818,16.1371,16.1371,16.1042,16.0253,16.0253,15.9859,15.9135,15.9859,15.9398,15.8017,15.8017,15.7228,15.5913,15.5913,15.5913,15.5913,15.5913,15.5913,15.5913,15.5913,15.5913,15.5453,15.0756,14.8249,14.6362,14.2529,13.9989,13.896,13.9658,14.0298,14.088,14.1578,14.309,14.4893,14.6231,14.7511,14.85,14.85,14.8034,14.7394,14.6755,14.6057,14.5533,14.5533,14.5533,14.5533,14.5533,14.5533,14.5533,14.5533,14.5533,14.5533,14.5533,14.5533,14.5533,14.5533,14.5533,14.5533,14.5533,14.5533,14.5533,14.5533,14.5533,14.4673,14.2879,14.0844,13.7081,13.1252,13.0954,12.9204,12.5062,12.3017,12.2117,12.2117,12.2117,12.2117,12.2117,12.2117,12.2117,12.8053,13.4535,14.0694,14.3857,14.7693,15.1376,15.4072,15.6439,15.8346,15.9464,15.9727,15.9398,15.8215,15.6834,15.5913,15.5913,15.5913,15.5913,15.5913,15.5913,15.6439,15.782,15.9267,16.0779,16.216,16.3607,16.4527,16.4527,16.4527,16.4527,16.4527,16.4527,16.3804,16.2357,16.341,16.3344,16.1897,16.216,16.1437,15.9727,16.0319,15.953,15.7557,15.7886,15.736,15.6308,15.6045,15.5913,15.5913,15.5913,15.5913,15.5913,15.5913,15.5913,15.519,14.9187,14.6915,14.6197,14.1341,13.9716,13.9949,14.1287,14.1752,14.2043,14.3555,14.4777,14.594,14.7802,14.9023,14.9779,14.9779,14.8849,14.7976,14.8267,14.7162,14.5998,14.5998,14.5766,14.5533,14.5533,14.5533,14.5533,14.5533,14.5533,14.5533,14.5533,14.5533,14.5533,14.5533,14.5533,14.5533,14.5533,14.5533,14.5533,14.5533,14.5533,14.5533,14.5533,14.2606,13.9116,13.5359,13.507,13.3027,12.799,12.4751,12.3017,12.2117,12.2117,12.2117,12.2117,12.2117,12.2117,13.6915,14.172,14.5418,14.9798,14.914,14.9337,15.611,15.782,15.8017,15.8149,15.8215,15.8149,15.8017,15.6834,15.5913,15.5913,15.5913,15.5913,15.5913,15.5913,15.6439,15.782,15.9267,16.0779,16.216,16.3607,16.4527,16.4527,16.4527,16.4527,16.4527,16.4527,16.3804,16.2357,16.2423,16.1831,16.0385,16.17,16.0911,15.8215,16.0845,15.999,15.611,15.7426,15.7952,15.7754,15.6439,15.5913,15.5913,15.5913,15.5913,15.5913,15.5913,15.5913,15.519,14.9187,14.6915,14.6197,14.1341,13.9716,13.9949,14.1287,14.1752,14.2218,14.4661,14.5475,14.6289,14.9896,15.1001,15.1059,15.1059,15.0128,14.9488,15.0652,14.9081,14.7394,14.7394,14.6406,14.5533,14.5533,14.5533,14.5533,14.5533,14.5533,14.5533,14.5533,14.5533,14.5533,14.5533,14.5533,14.5533,14.5533,14.5533,14.5533,14.5533,14.5533,14.5533,14.5533,14.5266,14.3208,13.9397,13.9116,13.5594,12.799,12.7685,12.5633,12.2117,12.2117,12.2117,12.2117,12.2117,12.2117,12.8966,13.4862,13.9868,13.9802,14.3485,14.7891,15.0784,15.2823,15.4861,15.7491,15.8017,15.8017,15.8017,15.6834,15.5913,15.5913,15.5913,15.5913,15.5913,15.5913,15.611,15.6636,15.8807,16.045,16.0977,16.3147,16.4527,16.4527,16.4527,16.4527,16.4527,16.4527,16.4199,16.3673,16.4527,16.4264,16.2818,16.3344,16.216,15.9333,16.0516,15.9661,15.7163,15.69,15.6768,15.6702,15.611,15.5913,15.5913,15.5913,15.5913,15.5913,15.5913,15.5913,15.5453,15.1179,14.9034,14.7662,14.4632,14.3081,14.2334,14.3614,14.4021,14.4486,14.7045,14.786,14.8441,15.1524,15.2397,15.2397,15.2397,15.1466,15.0652,15.1117,14.9896,14.8441,14.7685,14.7104,14.6522,14.5708,14.5533,14.5533,14.5533,14.5533,14.5533,14.5533,14.5533,14.5533,14.5533,14.5533,14.5533,14.5533,14.5533,14.5533,14.5533,14.5533,14.5533,14.5533,14.5533,14.4941,14.3479,14.112,13.7081,13.1549,12.9204,12.5942,12.2117,12.2117,12.2117,12.2117,12.2117,12.2117,12.398,12.9807,13.4805,13.3621,13.9013,14.4931,14.6247,14.7825,15.0455,15.565,15.6373,15.6505,15.7754,15.6505,15.5387,15.5847,15.5913,15.5913,15.5913,15.5913,15.5913,15.5913,15.8412,16.0187,16.0187,16.2818,16.4527,16.4527,16.4527,16.4527,16.4527,16.4527,16.4527,16.4527,16.5514,16.5382,16.387,16.4264,16.3015,16.0187,16.0187,15.9398,15.7952,15.6965,15.6308,15.5913,15.5913,15.5913,15.5913,15.5913,15.5913,15.5913,15.5913,15.5913,15.5453,15.2498,15.0686,14.9272,14.6932,14.5366,14.4509,14.5216,14.5533,14.5998,14.8558,14.9314,14.9896,15.2455,15.3153,15.3153,15.3153,15.2513,15.1815,15.1815,15.0826,14.9663,14.8849,14.8325,14.7685,14.6406,14.6173,14.5998,14.5591,14.5533,14.5533,14.5533,14.5533,14.5533,14.5533,14.5533,14.5533,14.5533,14.5533,14.5533,14.5533,14.5533,14.5533,14.5533,14.5533,14.5533,14.5533,14.2879,13.9676,13.5648,13.1846,12.7736,12.3912,12.2702,12.2117,12.2117,12.2117,12.2117,12.7086,12.9807,13.2766,13.566,13.7567,13.9802,14.4077,14.3945,14.4997,15.2296,15.2691,15.2954,15.7228,15.5716,15.4269,15.565,15.5913,15.5913,15.5913,15.5913,15.5913,15.5913,15.8412,16.0187,16.0187,16.2818,16.4527,16.4527,16.4527,16.4527,16.4527,16.4527,16.4527,16.4527,16.4527,16.3804,16.2357,16.3804,16.3015,16.0187,16.0187,15.9398,15.8017,15.8017,15.7228,15.5913,15.5913,15.5913,15.5913,15.5913,15.5913,15.5913,15.5913,15.5913,15.5453,15.2498,15.139,15.0925,14.7522,14.6139,14.6125,14.5656,14.5533,14.5998,14.8558,14.9314,14.9896,15.2455,15.3153,15.3153,15.3153,15.3153,15.3153,15.3153,15.2164,15.1233,15.1233,15.0245,14.8965,14.7743,14.7511,14.7104,14.5766,14.5533,14.5533,14.5533,14.5533,14.5533,14.5533,14.5533,14.5533,14.5533,14.5533,14.5533,14.5533,14.5533,14.5533,14.5533,14.5533,14.5533,14.5533,14.5533,14.375,13.9676,13.5936,13.1846,12.799,12.3863,12.2117,12.2117,12.2117,12.2117,11.9596,12.4546,12.9281,13.0202,13.3818,13.8224,14.2564,14.4734,14.6444,14.8745,14.8877,14.9272,15.1705,15.3875,15.5387,15.5847,15.5913,15.5913,15.5913,15.5913,15.5913,15.5913,15.8412,16.0187,16.0187,16.2818,16.4527,16.4527,16.4527,16.4527,16.4527,16.4527,16.4527,16.4527,16.4527,16.4264,16.3804,16.2292,16.1568,16.1634,16.0648,15.9398,15.8017,15.8017,15.7228,15.5913,15.5913,15.5913,15.5913,15.5913,15.5913,15.5913,15.5913,15.5913,15.5847,15.4791,15.3827,15.2286,14.905,14.7229,14.5945,14.4601,14.4253,14.4719,14.7336,14.8092,14.8616,15.1117,15.1873,15.2048,15.292,15.3153,15.3153,15.3153,15.2862,15.2339,15.1466,15.0943,15.0303,14.9023,14.879,14.8674,14.8209,14.8151,14.786,14.7045,14.6929,14.658,14.5649,14.5533,14.5533,14.5533,14.5533,14.5533,14.5533,14.5533,14.5533,14.5533,14.5533,14.5533,14.5533,14.5533,14.375,13.9955,13.5936,13.1846,12.799,12.3863,12.2117,12.2117,12.2117,12.2117,11.7082,12.2179,12.7177,12.8229,13.1254,13.5397,14.0789,14.217,14.2761,14.4405,14.5129,14.5984,14.7496,15.1376,15.4598,15.5716,15.5453,15.5453,15.6571,15.6242,15.611,15.6636,15.8741,16.0385,16.0911,16.3147,16.4527,16.4527,16.4527,16.4527,16.4527,16.4527,16.4527,16.4527,16.4527,16.4527,16.4527,16.216,16.17,16.3147,16.17,16.0516,15.9596,15.907,15.8017,15.6636,15.611,15.5913,15.5913,15.5913,15.5913,15.5913,15.5913,15.5913,15.5913,15.5913,15.5314,15.3916,15.0131,14.8144,14.6692,14.3885,14.3265,14.4021,14.6173,14.6813,14.7394,15.0419,15.0884,15.0826,15.2106,15.2804,15.3153,15.3153,15.2804,15.2339,15.2048,15.1582,15.1001,15.0245,15.007,14.9896,14.943,14.9314,14.9081,14.8325,14.8209,14.7743,14.6464,14.6289,14.6289,14.6289,14.6289,14.6464,14.6929,14.658,14.6289,14.6289,14.5824,14.5533,14.5533,14.5533,14.4346,14.2002,13.8272,13.4198,13.0055,12.6251,12.3598,12.2117,12.2117,12.2117,11.7971,12.1916,12.5993,12.8821,12.9939,13.2109,13.8882,13.7238,13.5462,13.9276,14.1052,14.2433,14.4274,14.7956,15.1902,15.5321,15.4729,15.4795,15.7623,15.6965,15.6702,15.8017,15.9464,16.0845,16.216,16.3607,16.4527,16.4527,16.4527,16.4527,16.4527,16.4527,16.4527,16.4527,16.4527,16.4527,16.4527,16.3015,16.3015,16.433,16.2949,16.2226,16.2094,16.0911,15.9464,15.7952,15.6702,15.611,15.5913,15.5979,15.5979,15.5913,15.5913,15.5913,15.5913,15.5913,15.5979,15.5318,15.0545,14.8967,14.8067,14.3157,14.2567,14.373,14.501,14.5359,14.6057,14.9896,15.0128,14.9547,15.0884,15.2222,15.3153,15.3153,15.2222,15.1699,15.292,15.2222,15.1408,15.1408,15.1408,15.1001,14.9837,14.9605,14.9605,14.9488,14.9488,14.9023,14.786,14.7685,14.7685,14.7685,14.7685,14.8151,14.9256,14.8325,14.7627,14.7569,14.6289,14.5533,14.5533,14.5533,14.5533,14.5533,14.1728,13.7933,13.4198,13.0055,12.5942,12.2434,12.2117,12.2117,11.3894,11.8102,12.2968,12.5862,13.0793,13.5331,13.704,13.5857,13.4279,13.4081,13.3424,13.441,13.9211,14.1841,14.6049,15.4532,15.4729,15.4795,15.7623,15.8675,15.9333,15.9661,16.0911,16.1963,16.2292,16.3607,16.4527,16.4527,16.4527,16.4527,16.4527,16.4527,16.4527,16.4527,16.4527,16.4527,16.4527,16.3015,16.2489,16.2818,16.2489,16.17,16.0714,16.1437,16.045,15.8017,15.8807,15.7952,15.5979,15.7031,15.69,15.5913,15.5913,15.5913,15.5913,15.5913,15.6571,15.6626,15.086,14.9651,14.9425,14.3706,14.1927,14.245,14.3672,14.3381,14.3439,14.7336,14.8209,14.85,15.0652,15.2222,15.3153,15.3153,15.292,15.2804,15.3095,15.292,15.2688,15.2688,15.2688,15.2629,15.2339,15.228,15.1931,15.0943,15.0826,15.0361,14.9081,14.8907,14.8907,14.8907,14.8907,14.9023,14.9314,14.9081,14.8558,14.7627,14.6289,14.5533,14.5533,14.5533,14.5533,14.5533,14.1728,13.9397,13.8498,13.1199,12.7379,12.6509,12.3598,12.2117,11.317,11.8299,12.3297,12.356,12.8032,13.2372,13.2372,13.1846,13.0859,12.9347,12.8952,13.0465,13.5725,13.7238,14.046,14.8548,15.1507,15.3546,15.5782,15.7886,15.9464,16.0122,16.0845,16.1831,16.3212,16.4067,16.4527,16.4527,16.4527,16.4527,16.4527,16.4527,16.4527,16.4527,16.4527,16.4527,16.4527,16.3673,16.3344,16.3344,16.3344,16.2949,16.216,16.2292,16.1437,15.999,16.0122,15.8938,15.69,15.7689,15.7163,15.5979,15.6571,15.69,15.6965,15.7623,15.8346,15.8131,15.1932,15.0398,15.0091,14.3824,14.2159,14.2741,14.3439,14.3148,14.3323,14.6638,14.7569,14.7976,14.9896,15.1757,15.3153,15.3153,15.2688,15.2455,15.3037,15.2688,15.2455,15.3037,15.3153,15.3153,15.3153,15.3153,15.292,15.2222,15.2106,15.1641,15.0419,15.0245,15.0245,15.0245,15.0245,15.0477,15.1059,15.0535,14.9721,14.8441,14.7685,14.6755,14.5591,14.5533,14.5533,14.5533,14.3479,14.1453,13.9676,13.3561,12.9755,12.7685,12.3863,12.2117,11.3367,11.9549,12.4744,12.2508,12.5007,12.7966,12.7769,12.7506,12.6979,12.5533,12.5862,12.7703,13.2174,13.3358,13.5265,14.0394,14.6444,15.131,15.348,15.6571,15.907,16.0056,16.0187,16.124,16.387,16.4133,16.4264,16.4462,16.4527,16.4527,16.4527,16.4527,16.4527,16.4527,16.4527,16.4527,16.4527,16.4527,16.4396,16.4133,16.4396,16.4396,16.4133,16.3081,16.2555,16.2226,16.1305,15.9924,15.8346,15.8543,15.782,15.6702,15.7886,15.8346,15.8478,15.9727,16.0187,15.9513,15.4496,15.2146,15.0709,14.4178,14.2741,14.3614,14.3614,14.3497,14.3904,14.6522,14.7394,14.7802,14.9023,15.1117,15.292,15.3095,15.2339,15.1815,15.292,15.228,15.1873,15.292,15.3153,15.3153,15.3153,15.3153,15.3153,15.3153,15.3153,15.2746,15.1699,15.1524,15.1524,15.1524,15.1524,15.1873,15.2804,15.2048,15.0884,14.943,14.8965,14.786,14.594,14.5649,14.5533,14.5533,14.5533,14.4077,14.0567,13.6796,13.2733,12.8901,12.4751,12.2702,11.0934,11.7313,12.3955,12.4744,12.7242,12.9215,12.7966,12.6782,12.5467,12.4086,12.1982,12.1785,12.6125,12.8886,13.1254,13.3292,14.0591,14.7825,15.302,15.8346,16.1305,16.0319,16.0187,16.0845,16.2489,16.262,16.3147,16.4396,16.4527,16.4527,16.4527,16.4527,16.4527,16.4527,16.4527,16.4527,16.4527,16.4527,16.387,16.2686,16.387,16.387,16.2686,16.3673,16.3475,16.2357,16.341,16.2292,15.9924,16.1174,16.0779,15.9596,15.9793,15.9859,15.9924,16.0122,16.0187,16.0117,16.0411,15.7894,15.3368,14.5834,14.3497,14.3614,14.3614,14.2857,14.2567,14.5126,14.6696,14.7802,14.9023,15.0419,15.1815,15.2862,15.2978,15.292,15.3095,15.2978,15.292,15.3095,15.3153,15.3153,15.3153,15.3153,15.3153,15.3153,15.3153,15.3095,15.2862,15.2862,15.2862,15.2862,15.2862,15.2513,15.1582,15.2339,15.1873,14.9488,14.7336,14.6464,14.722,14.6173,14.5533,14.5533,14.5533,14.5266,14.4673,14.0844,13.6796,13.3027,12.8901,12.5373,11.2315,11.9088,12.5927,12.6585,12.8295,12.9478,12.8032,12.7177,12.6125,12.3889,12.2442,12.2113,12.4086,12.6125,12.9084,13.3621,13.8421,14.4405,15.2625,15.736,16.0056,16.0187,16.0187,16.1042,16.3278,16.3475,16.3804,16.4462,16.4527,16.4527,16.4527,16.4527,16.4527,16.4527,16.4527,16.4527,16.4527,16.3673,16.2949,16.2292,16.2226,16.2226,16.2357,16.3015,16.341,16.3541,16.4199,16.3278,16.1305,16.124,16.0779,16.0187,16.0187,16.0648,16.1437,16.2226,16.2489,16.262,16.3278,16.0927,15.6408,14.9577,14.6061,14.4661,14.4661,14.4253,14.4021,14.5242,14.6987,14.8674,14.9198,15.0826,15.2397,15.3037,15.3153,15.3153,15.3153,15.3153,15.3153,15.3153,15.3153,15.3153,15.3153,15.3153,15.3153,15.3153,15.3153,15.3153,15.3153,15.3153,15.3153,15.3153,15.2513,15.1873,15.1292,15.1175,15.0012,14.7453,14.6871,14.658,14.6464,14.5882,14.5533,14.5533,14.5533,14.5533,14.5533,14.1728,13.765,13.3907,12.9755,12.5942,11.7971,0.0,13.0859,13.1188,13.1846,13.2043,0.0,12.9413,12.79,12.5072,12.3626,12.3034,12.3428,12.4349,12.7242,13.3818,13.6449,14.092,15.0389,15.3875,15.6505,15.9333,15.9398,16.045,16.3673,16.3673,16.3804,16.4462,16.4527,16.4527,16.4527,16.4527,16.4527,16.4527,16.4527,16.4527,16.4527,16.3015,16.216,16.1766,16.0714,16.0911,16.2292,16.2292,16.3278,16.4988,16.4264,16.3541,16.2686,16.124,16.0911,16.124,16.124,16.1831,16.2949,16.4067,16.4527,16.4527,16.4527,16.1941,15.7915,15.3869,14.9795,14.6476,14.5799,14.5533,14.5533,14.5533,14.6929,14.8558,14.9198,15.0768,15.2397,15.3037,15.3153,15.3153,15.3153,15.3153,15.3153,15.3153,15.3153,15.3153,15.3153,15.3153,15.3153,15.3153,15.3153,15.3153,15.3153,15.3153,15.3153,15.3153,15.199,15.1117,15.0826,14.9372,14.7743,14.6115,14.6696,14.6755,14.6057,14.5708,14.5533,14.5533,14.5533,14.5533,14.5533,14.2606,13.9116,13.507,13.1252,12.7124,0.0,13.6317,14.0131,14.1446,14.0854,13.9605,13.8158,13.4673,0.0,12.7966,12.4218,12.185,12.3231,12.356,12.5072,12.961,13.2766,13.7238,14.4603,14.697,15.0455,15.736,15.6965,15.7886,16.2029,16.124,16.1634,16.433,16.4527,16.4527,16.4527,16.4527,16.4527,16.4527,16.4527,16.4527,16.4527,16.3015,16.1634,16.0319,16.0253,16.0911,16.2292,16.2292,16.387,16.6434,16.3673,16.3212,16.4199,16.2752,16.2949,16.4199,16.4199,16.4264,16.433,16.4462,16.4527,16.4527,16.4527,16.0506,15.5832,15.837,15.5063,14.9287,14.6476,14.5533,14.5533,14.5533,14.5708,14.6347,14.8732,14.9488,15.0245,15.2571,15.3153,15.3153,15.3153,15.3153,15.3153,15.3153,15.3153,15.3153,15.3153,15.3153,15.3153,15.3153,15.3153,15.3153,15.3153,15.3153,15.3153,15.3153,15.199,15.0768,14.9547,14.722,14.6289,14.7336,14.6347,14.6231,14.7336,14.6231,14.5533,14.5533,14.5533,14.5533,14.5533,14.5266,14.3208,13.9397,13.5359,13.1252,13.7698,14.2104,14.4668,14.4274,14.2433,14.0394,13.8947,13.5199,13.1188,12.8295,12.6388,12.4875,12.3692,12.4875,12.7834,13.3095,13.566,13.9211,14.5458,14.8417,15.0916,15.3677,15.6702,15.953,16.2029,16.262,16.3344,16.4396,16.4527,16.4527,16.4527,16.4527,16.4527,16.4527,16.4527,16.4067,16.3147,16.17,16.0253,15.8807,15.7952,15.8741,16.1042,16.1897,16.341,16.5317,16.5185,16.4856,0.0,16.2884,16.3147,16.4396,16.3475,16.3673,16.4527,16.4527,16.4527,16.4527,16.4527,16.2276,15.9567,15.9744,15.7509,15.4116,14.9807,14.7204,14.5533,14.5533,14.6173,14.7162,14.8907,14.9954,15.1001,15.2746,15.3153,15.3153,15.3153,15.3153,15.3153,15.3153,15.3153,15.3153,15.3153,15.3153,15.3153,15.3153,15.3153,15.3153,15.3153,15.3153,15.3153,15.3153,15.1292,14.9837,14.9372,14.7802,14.6638,14.6347,14.5824,14.6173,14.7511,14.6289,14.594,14.6755,14.594,14.5533,14.5533,14.5533,14.3479,13.9676,13.5648,13.1846,14.3288,14.6707,14.9009,14.8022,14.526,14.2367,14.0986,13.6909,13.2306,12.8492,12.7703,12.6979,12.4546,12.6059,12.9478,13.487,13.6975,14.0065,14.6247,14.9337,15.1442,15.2757,15.6834,15.9727,16.0253,16.2029,16.3541,16.4396,16.4527,16.4527,16.4527,16.4527,16.4527,16.4527,16.4067,16.3344,16.2292,16.045,15.9004,15.8017,15.7031,15.8083,16.0911,16.1371,16.3212,16.5908,16.5514,16.5317,16.5119,16.3607,16.3607,16.4396,16.341,16.3607,16.4527,16.4527,16.4527,16.4527,16.4527,16.2854,16.0907,16.1208,15.8376,15.419,15.2229,15.03,14.8184,14.6271,14.6522,14.7802,14.9023,15.0303,15.1582,15.2862,15.3153,15.3153,15.3153,15.3153,15.3153,15.3153,15.3153,15.3153,15.3153,15.3153,15.3153,15.3153,15.3153,15.3153,15.3153,15.3153,15.3153,15.3153,15.1233,14.9779,14.9372,14.786,14.6696,14.6231,14.5766,14.6173,14.7511,14.6638,14.6813,14.8092,14.722,14.6755,14.6755,14.6755,14.5114,14.2076,13.9447,13.5158,14.6773,15.0389,15.3743,15.3809,15.0455,14.6773,14.5392,14.0591,13.4739,12.8886,12.7703,12.7242,12.5862,12.6782,12.9149,13.3621,13.5528,13.9013,14.6115,14.8482,15.1113,15.5321,15.7097,15.7426,15.6045,15.8543,16.1371,16.4264,16.4527,16.4527,16.4527,16.4527,16.4527,16.4527,16.3081,16.2292,16.2292,15.9464,15.8017,15.7952,15.8017,15.953,16.2226,16.0845,16.341,16.867,16.4264,16.4067,16.6632,16.5119,16.4527,16.4527,16.4527,16.4527,16.4462,16.4462,16.4462,16.4462,16.4462,16.1396,15.836,16.3038,15.7128,14.9049,15.3738,15.5063,15.3628,14.7465,14.6522,14.7802,14.9023,15.0303,15.1582,15.2862,15.3153,15.3153,15.3153,15.3153,15.3153,15.3153,15.3153,15.3153,15.3153,15.3153,15.3153,15.3153,15.3153,15.3153,15.3153,15.3153,15.3153,15.3153,15.199,15.071,14.943,14.7045,14.6115,14.7453,14.6289,14.6173,14.7511,14.7569,14.8092,14.9314,14.9314,14.9314,14.9314,14.9314,14.8732,14.7569,14.7569,14.2699,14.8088,15.0455,15.2494,15.3546,15.0455,14.6773,14.5392,14.0591,13.4739,12.8886,12.8492,12.8492,12.6059,12.836,13.1517,13.395,13.8027,14.1709,14.3814,14.8943,15.2625,15.2823,15.4993,15.6768,15.736,15.907,16.1371,16.4264,16.4527,16.4527,16.4527,16.4527,16.4527,16.4527,16.4067,16.2884,16.0845,15.999,15.8543,15.6505,15.7491,15.9004,16.0845,16.2489,16.4199,16.5843,16.6632,16.6895,16.6698,16.6237,16.6106,16.5974,16.4922,16.387,16.2949,16.2949,16.2357,16.1437,16.1437,15.9841,15.8516,16.189,16.0111,15.6231,15.4127,15.1971,14.9593,14.6504,14.6522,14.7627,14.7976,14.9663,15.1582,15.2862,15.3153,15.3153,15.3153,15.3153,15.3153,15.3153,15.3153,15.3153,15.3153,15.3153,15.3153,15.3153,15.3153,15.3153,15.3153,15.3153,15.2804,15.1931,15.1466,15.071,14.943,14.786,14.6755,14.6173,14.5766,14.6522,14.8732,14.7976,14.8558,15.0652,14.9779,14.9314,14.9314,14.9314,14.9139,14.879,14.7976,14.4652,14.7891,15.0061,15.1836,15.2691,15.0455,14.7365,14.4734,14.0591,13.5462,12.9018,12.8886,12.9347,12.7637,12.9873,13.3029,13.6317,14.0723,14.4537,14.6904,15.1507,15.4466,15.4203,15.519,15.6242,15.7097,15.8478,16.0056,16.1766,16.2949,16.3607,16.3607,16.3607,16.387,16.4462,16.3936,16.2818,16.1042,16.045,15.9004,15.6768,15.8741,15.9859,16.0253,16.2555,16.4264,16.5448,16.6632,16.7026,16.6763,16.7355,16.6566,16.4988,16.4593,16.3278,16.1437,16.1437,16.0911,16.0187,16.0187,15.9201,15.8412,16.0714,16.0516,15.8655,15.5004,15.2107,14.942,14.7176,14.671,14.6987,14.7976,14.9372,15.0943,15.2746,15.3153,15.3153,15.3153,15.3153,15.3153,15.3153,15.3153,15.3153,15.3153,15.3153,15.3153,15.3153,15.3153,15.3153,15.3153,15.3153,15.2862,15.2106,15.1582,15.071,14.943,14.8267,14.722,14.6406,14.5824,14.6696,14.9256,14.8674,14.943,15.1931,15.1233,15.0884,15.0884,15.0884,15.0594,15.007,14.8849,14.6829,14.6707,14.9206,15.1442,15.1573,15.0652,14.8482,14.3879,14.0789,13.6712,12.9215,12.8886,12.9807,12.9676,13.1254,13.4344,13.9868,14.3616,14.7693,15.302,15.5124,15.6505,15.7689,15.6702,15.5913,15.5913,15.7163,15.8017,15.8017,16.0516,16.2029,16.1897,16.2029,16.2818,16.4264,16.3015,16.2292,16.2292,16.0911,15.953,15.8215,16.0845,16.1503,16.045,16.1831,16.4001,16.65,16.5251,16.5448,16.6895,16.8341,16.65,16.2818,16.4067,16.2752,16.0187,16.0056,15.9924,15.9793,15.9793,15.8938,15.8017,15.953,15.8803,15.7215,15.5598,15.3661,15.1647,14.868,14.6839,14.6289,14.8558,14.9256,14.9954,15.228,15.2862,15.2978,15.3153,15.3153,15.3153,15.3153,15.3153,15.3153,15.3153,15.3153,15.3153,15.3153,15.3153,15.3153,15.3153,15.3153,15.3153,15.3153,15.1931,15.0594,14.943,14.8151,14.7394,14.7394,14.6231,14.6638,14.9081,14.9256,15.0477,15.292,15.3095,15.3153,15.3153,15.3153,15.2571,15.1408,15.0128,14.8907,14.6444,14.8482,15.0192,15.131,15.1376,14.9666,14.4142,14.1512,13.7895,12.9413,12.8886,12.9544,12.836,13.3095,13.7961,14.0328,14.7036,15.2362,15.3612,15.5979,15.7228,15.6439,15.611,15.5913,15.5913,15.7163,15.8017,15.8017,15.9661,16.0122,15.9004,15.999,16.1305,16.2752,16.2489,16.2292,16.2292,16.0911,16.0056,15.9727,16.0319,16.1108,16.1897,16.3344,16.4396,16.5054,16.5908,16.6434,16.6895,16.8341,16.7684,16.5711,16.4856,16.2752,16.0056,15.8872,15.7754,15.6834,15.6834,15.6636,15.6571,15.8017,15.5889,15.2773,15.1863,14.9808,14.7413,14.6462,14.659,14.722,14.7802,14.8616,14.9488,15.0012,15.0943,15.1931,15.292,15.3153,15.3153,15.3153,15.3153,15.3153,15.3153,15.3153,15.3153,15.3153,15.3153,15.3153,15.3153,15.3153,15.3153,15.3153,15.1117,14.9663,14.9372,14.7278,14.594,14.594,14.5708,14.6289,14.786,14.8849,15.007,15.1641,15.2629,15.3153,15.3153,15.3153,15.3037,15.2746,15.1466,15.0186,14.7299,14.9337,15.085,15.2296,15.2625,15.1507,14.7036,14.4866,14.1512,13.349,13.2053,13.1603,13.0103,13.3621,13.8112,14.3041,14.9403,15.4269,15.565,15.7689,15.828,15.611,15.5913,15.5913,15.5913,15.6571,15.6965,15.6965,15.7689,15.782,15.7031,15.8346,15.9793,16.124,16.1963,16.2292,16.2292,16.2292,16.1897,16.124,16.124,16.1568,16.2357,16.3081,16.387,16.4527,16.5317,16.5645,16.5777,16.7289,16.6566,16.4593,16.4527,16.2292,15.907,15.828,15.7097,15.5913,15.5913,15.5913,15.6045,15.6531,15.5141,15.2988,15.1209,14.9106,14.7153,14.682,14.6798,14.6755,14.7394,14.8034,14.8616,14.9198,14.9837,15.0535,15.1175,15.1815,15.2397,15.3037,15.2629,15.2455,15.3037,15.2629,15.2455,15.3037,15.3153,15.3153,15.3153,15.2106,15.135,15.135,15.0128,14.9314,14.9314,14.8151,14.7104,14.6522,14.6522,14.6813,14.7511,14.8732,14.9954,15.1233,15.2513,15.3153,15.3153,15.3153,15.3153,15.3095,15.1815,15.0884,14.7628,14.9929,15.1573,15.302,15.3414,15.2691,15.0061,14.8285,14.526,13.8553,13.6111,13.4806,13.3086,13.4746,13.8686,14.5877,15.1113,15.5058,15.7623,15.8807,15.8543,15.6176,15.5913,15.5913,15.5913,15.5913,15.5913,15.5913,15.5913,15.5913,15.5913,15.7031,15.8215,15.9398,16.1042,16.216,16.2686,16.3673,16.3607,16.2686,16.2423,16.2423,16.2686,16.2686,16.3344,16.4527,16.4527,16.4527,16.4593,16.6106,16.5119,16.2818,16.4001,16.216,15.8741,15.8478,15.7623,15.6636,15.6636,15.6636,15.6568,15.6466,15.5617,15.4306,15.1729,14.9299,14.7433,14.7672,14.6639,14.5824,14.6929,14.722,14.7453,14.8441,14.8849,14.9023,14.9023,15.0012,15.1292,15.2571,15.1815,15.135,15.2629,15.1757,15.1292,15.2339,15.2513,15.2513,15.2513,15.0652,14.943,14.9663,14.9488,14.943,14.9663,14.9488,14.8907,14.7918,14.786,14.786,14.786,14.9023,15.0186,15.1233,15.2513,15.3153,15.3153,15.3153,15.3153,15.3153,15.2048,15.1466,14.5129,14.7628,15.0126,15.1507,15.1902,15.1442,14.9863,14.8285,14.5852,14.1117,13.9101,13.7612,13.6186,14.0217,14.4434,14.6838,15.1902,15.6176,15.7754,15.7097,15.6308,15.5913,15.5913,15.5913,15.5913,15.5913,15.5913,15.5913,15.5913,15.5913,15.5913,15.6045,15.6242,15.6439,15.907,16.17,16.4199,16.3147,16.3147,16.4199,16.2884,16.2949,16.4199,16.4199,16.433,16.4527,16.4527,16.4527,16.4593,16.6106,16.5777,16.4199,16.4396,16.3344,16.1568,16.0385,15.9793,15.9661,15.9661,15.9661,15.9661,15.9586,15.6048,15.1667,15.2326,14.8625,14.4575,14.5686,14.5624,14.5591,14.5766,14.5824,14.5824,14.5998,14.6929,14.7802,14.7802,14.8732,14.9954,15.1233,15.0477,15.0012,15.1292,15.0419,14.9663,14.9837,14.9837,14.9837,14.9837,14.9547,14.9779,15.0884,15.0012,14.9779,15.0884,14.9954,14.9256,14.9139,14.9081,14.9081,14.9081,15.0303,15.1059,15.1233,15.2513,15.3153,15.3153,15.3153,15.3153,15.3153,15.2978,15.228,14.5392,14.7825,14.9798,15.1244,15.1573,15.1442,15.0784,15.0126,14.8417,14.4077,14.2062,14.0466,13.8181,14.1148,14.5076,14.8032,15.3283,15.7294,15.7886,15.8149,15.7689,15.611,15.5913,15.5913,15.5913,15.5913,15.5913,15.5913,15.5913,15.5913,15.5913,15.5913,15.5913,15.5913,15.7097,15.9135,16.2029,16.2226,16.262,16.3212,16.1831,16.1897,16.3278,16.3278,16.3738,16.4527,16.4527,16.4527,16.4527,16.5185,16.5119,16.4527,16.4527,16.3607,16.2226,16.1634,16.0911,16.0187,16.0187,16.124,16.235,16.0551,15.8205,15.5297,15.2279,14.9396,14.7156,14.5831,14.5533,14.5533,14.5533,14.5533,14.5533,14.5533,14.5998,14.6406,14.6406,14.7453,14.85,14.9081,14.8732,14.8732,14.9954,14.9139,14.8558,14.9256,14.9314,14.9081,14.8441,14.8325,14.879,15.007,14.9663,14.9837,15.1117,15.071,15.0419,15.0419,15.0419,15.007,14.9372,15.0594,15.1233,15.1233,15.2513,15.3153,15.3153,15.3153,15.3153,15.3153,15.3153,15.2862,14.3419,14.5523,14.7299,14.9863,15.0192,15.0192,15.1376,15.131,15.0126,14.6838,14.5076,14.3465,14.0695,14.2408,14.541,14.8828,15.3349,15.6505,15.69,15.7557,15.7228,15.5058,15.5124,15.5387,15.5387,15.565,15.5913,15.5913,15.5913,15.5913,15.5913,15.5913,15.5913,15.5913,15.6242,15.7491,15.9596,16.1042,16.1766,16.1766,16.0714,16.0911,16.2292,16.2292,16.3081,16.4527,16.4527,16.4527,16.4527,16.4527,16.4527,16.4527,16.4527,16.3804,16.2884,16.2884,16.216,16.1305,16.1305,16.2686,16.4046,16.1661,16.0506,15.8885,15.3144,15.0991,14.9542,14.6476,14.5533,14.5533,14.5533,14.5533,14.5533,14.5533,14.5533,14.5533,14.5533,14.6347,14.7045,14.7045,14.7278,14.7743,14.8267,14.7627,14.7336,14.8267,14.8383,14.8151,14.7627,14.7802,14.85,14.9721,14.9837,15.0361,15.1641,15.1699,15.1699,15.1699,15.1699,15.1292,15.0361,15.1233,15.1699,15.1699,15.2688,15.3153,15.3153,15.3153,15.3153,15.3153,15.3153,15.3153,13.658,13.8027,14.0526,14.5984,14.6378,14.6444,15.0652,15.0521,14.9535,14.9337,14.7901,14.6456,14.4997,14.5865,14.7441,14.9206,15.085,15.2428,15.3809,15.2888,15.1968,15.1836,15.302,15.3875,15.3875,15.5124,15.5913,15.5913,15.5913,15.5913,15.5913,15.5913,15.5913,15.5913,15.7228,15.7952,15.8149,15.9596,16.0319,16.0319,16.0253,16.0911,16.2292,16.2292,16.3081,16.4527,16.4527,16.4527,16.4527,16.4527,16.4527,16.4527,16.4527,16.4462,16.4396,16.4396,16.433,16.4264,16.4264,16.4396,16.4527,16.4254,16.2156,15.911,15.5832,15.2657,14.9542,14.6476,14.5533,14.5533,14.5533,14.5533,14.5533,14.5533,14.5533,14.5533,14.5533,14.5591,14.5649,14.5649,14.6696,14.7162,14.594,14.5708,14.5649,14.5708,14.5766,14.6173,14.7394,14.8558,14.9721,15.1001,15.1175,15.1699,15.292,15.3037,15.3037,15.3037,15.3037,15.3037,15.2978,15.3037,15.3037,15.3037,15.3095,15.3153,15.3153,15.3153,15.3153,15.3153,15.3153,15.3153,13.5791,13.7501,13.9079,14.1183,14.1972,14.2433,14.309,14.2893,14.2498,14.2498,14.2761,14.2893,14.2367,14.4208,14.5984,14.6575,14.9403,15.1442,15.1113,15.2165,15.302,15.302,15.348,15.4138,15.5058,15.4795,15.4927,15.5847,15.5913,15.5913,15.5913,15.5913,15.5913,15.5913,15.6373,15.7097,15.8017,15.8543,15.8807,15.8807,15.8807,15.907,15.9596,16.0516,16.124,16.1766,16.2686,16.3081,16.3147,16.4133,16.4527,16.4527,16.4527,16.4527,16.4527,16.4527,16.4527,16.433,16.341,16.3081,16.3081,16.3081,16.1006,15.7579,15.3689,15.1552,14.9362,14.548,14.4893,14.5533,14.5533,14.5533,14.5533,14.5533,14.5533,14.5533,14.5533,14.5533,14.5533,14.5533,14.594,14.6115,14.5649,14.5533,14.5533,14.5533,14.6289,14.7569,14.9663,15.0303,15.1059,15.2339,15.2455,15.2629,15.3095,15.3153,15.3153,15.3153,15.3153,15.3153,15.3153,15.2397,15.1931,15.1931,15.1117,15.071,15.071,15.1524,15.1931,15.1931,15.2746,15.3153,13.0512,13.2274,13.3774,13.3948,13.6192,13.8356,13.7369,13.7172,13.7304,13.7764,13.8619,13.9474,13.9934,14.1972,14.3748,14.4208,14.6773,14.868,14.868,14.9929,15.1244,15.2231,15.2362,15.3086,15.4993,15.519,15.5387,15.5847,15.6308,15.6373,15.5913,15.5913,15.5913,15.5913,15.5913,15.6308,15.7294,15.7294,15.7294,15.7294,15.7294,15.7294,15.736,15.8807,15.9727,16.0253,16.1174,16.1568,16.17,16.262,16.3015,16.3015,16.3015,16.3015,16.3015,16.3015,16.3015,16.2884,16.1963,16.1568,16.1568,16.1568,16.0203,15.7699,15.383,15.2264,15.1126,14.7204,14.5971,14.5649,14.5649,14.4984,14.4253,14.4253,14.4253,14.4253,14.4253,14.4602,14.4893,14.4893,14.5242,14.5533,14.5533,14.5533,14.5533,14.5533,14.6696,14.8441,15.0943,15.1641,15.2222,15.3037,15.3153,15.3153,15.3153,15.3153,15.3153,15.3153,15.2746,15.2513,15.2513,15.1292,15.0594,15.0594,14.9779,14.9314,14.9314,15.0186,15.0594,15.0652,15.1466,15.1873,12.06,12.2141,12.4132,12.4537,12.9195,13.3884,13.3884,13.3884,13.4344,13.5791,13.612,13.6646,13.8093,13.9539,14.092,14.2367,14.263,14.3682,14.651,14.5786,14.6115,14.914,14.9535,15.0652,15.3546,15.6308,15.7294,15.5913,15.7163,15.736,15.5913,15.5913,15.5913,15.5913,15.5913,15.5913,15.5913,15.5913,15.5913,15.5913,15.5913,15.5913,15.5913,15.7294,15.8741,16.0056,16.0122,16.0122,16.0122,16.0187,16.0187,16.0187,16.0187,16.0187,16.0187,16.0122,16.0122,16.0122,16.0122,16.0122,16.0122,16.0122,16.0122,15.9448,15.6411,15.5336,15.4682,15.1355,14.8378,14.6139,14.6139,14.3824,14.1752,14.1752,14.1752,14.1752,14.1752,14.2683,14.3614,14.3614,14.4602,14.5533,14.5533,14.5591,14.5649,14.5649,14.6755,14.8441,15.0826,15.228,15.3037,15.3095,15.3095,15.3095,15.3095,15.3037,15.3037,15.3037,15.1873,15.1175,15.1175,14.9954,14.9314,14.9314,14.9256,14.9198,14.9198,14.9256,14.9314,14.9314,14.9314,14.9314,12.1188,12.0355,12.0083,11.8515,12.1616,12.4612,12.356,12.4152,12.5599,12.8032,12.9413,13.053,13.2043,13.3424,13.487,13.6449,13.8421,14.0065,14.0854,14.3353,14.6115,14.914,15.0389,15.2165,15.5058,15.5058,15.4795,15.4401,15.6636,15.6965,15.4466,15.6308,15.6965,15.5913,15.5913,15.5913,15.5913,15.5913,15.5913,15.5913,15.5913,15.5913,15.5913,15.6308,15.6702,15.7163,15.8149,15.8609,15.8675,15.9727,16.0187,16.0187,16.0187,16.0187,15.9924,15.782,15.7689,15.8609,15.8609,15.8609,15.8609,15.8609,15.7062,15.4802,15.3075,15.2372,15.123,14.7216,14.6026,14.5646,14.3571,14.2411,14.1752,14.1752,14.1752,14.1752,14.1752,14.2043,14.2276,14.2276,14.3265,14.4428,14.5417,14.6347,14.7278,14.8151,14.786,14.7802,14.85,14.9663,15.0768,15.1699,15.1757,15.1757,15.1757,15.0943,15.0419,15.0419,15.007,14.9896,14.9896,14.8674,14.8034,14.8034,14.7104,14.658,14.658,14.7569,14.8034,14.8092,14.8965,14.9314,11.4592,11.1617,11.0079,10.8912,11.0819,11.3463,11.5527,11.5809,11.7004,12.1544,12.3877,12.5664,12.7703,12.9215,13.0662,13.224,13.4344,13.6514,13.8356,14.0789,14.4142,14.8943,15.0192,15.1836,15.4729,15.4795,15.4664,15.4664,15.6768,15.7031,15.4795,15.6242,15.7031,15.6768,15.6768,15.7097,15.7689,15.7097,15.6768,15.6768,15.6176,15.5913,15.5913,15.5913,15.5913,15.5913,15.6768,15.7097,15.7163,15.8017,15.8412,15.8412,15.8412,15.8412,15.8215,15.6505,15.6439,15.7097,15.7097,15.7097,15.7097,15.7097,15.5967,15.428,15.3439,15.2965,15.2274,14.9851,14.7972,14.6077,14.4271,14.1918,14.0124,14.0124,14.0124,14.0124,14.0124,14.0531,14.088,14.088,14.2392,14.3846,14.4602,14.5824,14.7278,14.9081,14.8732,14.8325,14.8325,14.8907,14.9605,15.0361,15.0477,15.0477,15.0477,14.9779,14.9314,14.9314,14.8849,14.8616,14.8616,14.7394,14.6696,14.6696,14.594,14.5533,14.5533,14.6347,14.6696,14.6755,14.7394,14.7743,10.3247,9.882,9.6763,9.6722,9.8365,10.141,0.0,10.7243,10.7859,11.4307,11.7521,12.0186,12.3757,12.5533,12.7111,12.9084,13.0728,13.3161,13.7304,13.8421,14.1381,14.8154,14.9009,15.0192,15.3217,15.4664,15.5387,15.5387,15.69,15.7163,15.5716,15.5979,15.6636,15.7754,15.7952,15.8609,15.9924,15.8807,15.8215,15.8215,15.6965,15.6373,15.6373,15.6176,15.611,15.611,15.5979,15.5913,15.5913,15.5913,15.5913,15.5913,15.5913,15.5913,15.5913,15.5913,15.5913,15.5913,15.5913,15.5913,15.5913,15.5913,15.5913,15.5913,15.5913,15.5913,15.5651,15.4991,15.0968,14.6752,14.6197,14.217,13.8088,13.8204,13.8262,13.8262,13.8262,13.9135,13.9949,13.9949,14.1927,14.3672,14.3846,14.4893,14.6464,14.8616,14.8907,14.8907,14.8907,14.8907,14.8965,14.9139,14.9139,14.9139,14.9139,14.9023,14.8907,14.8907,14.7918,14.7336,14.7336,14.6173,14.5533,14.5533,14.5533,14.5649,14.5766,14.5649,14.5649,14.5766,14.5591,14.5417,0.0,0.0,0.0,0.0,0.0,0.0,0.0,9.2152,9.556,10.0526,10.3642,10.7836,11.5457,11.7971,12.0601,12.5599,12.8558,13.0991,13.2963,13.7369,14.1709,14.5458,14.5918,14.7496,15.1639,15.2296,15.2428,15.2428,15.4861,15.565,15.4269,15.6373,15.7228,15.6308,15.7426,15.8149,15.8412,15.9333,15.9793,15.9727,15.9464,15.9333,15.9333,15.8149,15.7623,15.7557,15.6373,15.5913,15.5913,15.5913,15.5913,15.5913,15.5913,15.5913,15.5913,15.5913,15.5913,15.5913,15.5913,15.5913,15.5913,15.5913,15.5913,15.5913,15.5913,15.5913,15.4991,15.0051,14.7807,14.6031,14.2092,14.0265,13.9658,14.0705,14.0996,14.0996,14.0996,14.1171,14.1345,14.1345,14.2567,14.3963,14.501,14.6289,14.6987,14.6347,14.6289,14.6289,14.6289,14.6289,14.6696,14.7802,14.7918,14.7918,14.7918,14.6929,14.6289,14.6289,14.6057,14.594,14.594,14.5708,14.5533,14.5533,14.5533,14.6057,14.7162,14.6057,14.6115,14.7104,14.6057,14.4428,0.0,0.0,0.0,0.0,0.0,0.0,0.0,0.0,0.0,0.0,0.0,9.8292,10.4704,0.0,11.4114,11.8977,12.3746,12.79,13.1451,13.4542,13.7698,14.1381,14.309,14.5392,14.9009,14.9337,14.9995,15.1507,15.3612,15.4532,15.3809,15.5782,15.6965,15.6965,15.7623,15.8346,15.907,15.9859,16.0187,16.0187,16.0187,16.0187,16.0187,15.9464,15.907,15.907,15.8346,15.7623,15.6965,15.6965,15.6505,15.5847,15.5124,15.4401,15.3743,15.3743,15.3743,15.3743,15.3743,15.3743,15.3743,15.3743,15.3743,15.3743,15.3743,15.3158,15.194,14.9035,14.6355,14.4121,14.1616,14.04,13.9891,14.0589,14.1229,14.1752,14.1752,14.1752,14.1752,14.1752,14.2741,14.3846,14.4486,14.5708,14.6347,14.5649,14.5533,14.5533,14.5533,14.5533,14.5533,14.5591,14.6173,14.6289,14.5649,14.5591,14.5533,14.5533,14.5533,14.5533,14.5533,14.5533,14.5882,14.6522,14.6522,14.6522,14.6522,14.5882,14.5242,14.4602,14.2625,14.0161,0.0,0.0,0.0,0.0,0.0,0.0,0.0,0.0,0.0,0.0,0.0,0.0,0.0,0.0,0.0,11.2044,11.7976,12.4073,13.0333,13.0925,13.27,13.8027,14.0657,14.3156,14.6049,14.6312,14.7562,15.0521,15.1836,15.2757,15.3349,15.4466,15.5716,15.7163,15.7426,15.828,15.9727,16.0056,16.0187,16.0187,16.0187,0.0,16.0187,15.9924,15.9924,16.0187,15.9924,15.907,15.8017,15.8017,15.7163,15.5716,15.3683,15.2178,15.1065,15.0349,15.0088,15.0411,15.0935,15.1387,15.1705,15.2231,15.2428,15.2362,15.1456,15.0402,0.0,14.7702,14.4567,14.1448,14.133,14.0266,13.9484,14.0007,14.1171,14.2159,14.245,14.245,14.245,14.245,14.3323,14.4021,14.4021,14.4661,14.5184,14.5184,14.5417,14.5475,14.5184,14.5417,14.5126,14.4137,14.4951,14.5126,14.4079,14.4486,14.5126,14.5882,14.5242,14.4893,14.5184,14.5417,14.594,14.6755,14.6813,14.6289,14.5184,14.4951,14.3614,14.1229,13.5354,13.1192,0.0,0.0,0.0,0.0,0.0,0.0,0.0,0.0,0.0,0.0,0.0,0.0,0.0,0.0,0.0,0.0,11.3358,11.9514,12.7148,12.7111,12.9347,13.7632,13.8882,14.0197,14.3025,14.3353,14.4537,14.743,14.7825,14.9074,15.1705,15.1968,0.0,0.0,0.0,15.6834,15.8215,15.953,16.0187,16.0187,16.0187,16.0187,16.0187,15.8872,15.8938,16.0122,15.8807,15.8149,15.8017,15.8017,15.7163,15.5519,15.1423,14.9896,14.9369,14.5462,14.489,14.6359,14.8867,0.0,0.0,15.4598,15.5387,15.4732,15.0767,14.9626,14.8186,14.1657,13.9488,13.8748,13.7299,13.735,13.8611,14.0938,14.2508,14.373,14.4893,14.5126,14.5126,14.5126,14.5242,14.5359,14.5359,14.4544,14.3846,14.3846,14.4835,14.5126,14.4021,14.4835,14.5475,14.5359,14.5475,0.0,14.5359,14.3381,14.3614,14.7104,14.4079,14.2683,14.3788,14.4951,14.5068,14.4079,14.4079,14.4021,14.3846,14.2741,14.1403,13.9542,12.215,11.4255,0.0,0.0,0.0,0.0,0.0,0.0,0.0,0.0,0.0,0.0,0.0,0.0,0.0,0.0,0.0,0.0,10.6518,11.2155,11.8066,12.2763,12.79,13.4016,13.5594,13.6909,13.8947,13.9868,14.1249,14.3288,14.4997,14.6444,14.7693,14.9403,15.0652,15.1244,15.2625,15.3677,15.4269,15.6571,15.7689,15.7689,15.9398,16.0187,16.0187,15.953,15.9596,16.0187,15.953,15.8807,15.8017,15.8017,15.7163,15.5388,0.0,0.0,0.0,0.0,14.5862,14.6573,14.7745,14.8453,14.9206,15.0389,15.085,15.0272,14.6888,14.5114,14.3328,13.7864,13.5653,13.4599,13.4038,13.5238,13.7215,13.9018,14.1054,14.2683,14.3206,14.3904,14.4428,14.4428,14.4428,0.0,14.3439,14.2857,14.2567,14.2567,14.2974,14.3381,14.3614,14.4137,14.4428,14.4428,14.5126,14.5242,14.4486,14.4137,0.0,0.0,0.0,14.5649,14.6929,14.7453,0.0,0.0,0.0,14.0356,13.5819,13.2329,0.0,0.0,10.895,10.3357,0.0,0.0,0.0,0.0,0.0,0.0,0.0,0.0,0.0,0.0,0.0,0.0,0.0,0.0,0.0,0.0,9.7967,10.4017,10.7454,11.5701,12.2475,12.555,13.0628,13.349,13.2898,13.566,13.7895,13.8882,14.1249,14.3025,14.3814,14.5918,14.743,14.8219,14.96,15.0587,15.0981,15.348,15.4729,15.4729,15.6834,15.782,15.782,15.782,15.8083,15.8412,15.8412,15.782,15.6834,15.6834,15.5979,15.4269,14.9037,14.6768,14.6253,14.3535,14.2567,14.289,14.4686,14.5691,14.5865,14.6093,14.6543,14.6224,14.1627,13.9943,13.8531,13.3569,13.1828,13.105,13.105,13.3027,13.5354,13.6924,13.9018,14.088,14.1578,14.245,14.3148,14.3148,14.2276,14.1461,14.1229,14.088,14.0763,14.1112,14.152,14.1927,14.2508,14.2916,14.3148,14.3148,14.4253,14.4661,14.373,14.4486,14.5882,14.7918,14.7394,14.8034,15.0303,14.9023,14.8092,14.7569,14.3032,13.6517,0.0,0.0,0.0,0.0,0.0,0.0,0.0,0.0,0.0,0.0,0.0,0.0,0.0,0.0,0.0,0.0,0.0,0.0,0.0,0.0,0.0,0.0,0.0,0.0,9.5914,10.4594,11.0799,11.0714,12.3268,12.9873,12.4415,13.0267,13.4476,13.4542,13.5857,13.7895,14.0723,14.0986,14.2301,14.5063,14.6575,14.8022,14.9535,15.0981,15.1705,15.1705,15.1836,15.1836,15.1836,15.1836,15.2625,15.4006,15.4006,15.394,15.394,15.394,15.302,15.1053,14.3858,14.0325,13.8667,13.3091,13.088,13.1869,13.8529,14.1845,14.3056,14.3342,14.5084,14.5396,13.5881,13.4869,13.5476,12.8523,12.7443,12.8432,12.8432,13.0352,13.2911,13.547,13.7041,13.8669,14.1171,14.1752,14.181,14.181,13.8786,13.7041,13.9367,13.8786,13.8379,13.96,14.088,0.0,14.0007,14.0996,14.181,14.181,14.2916,14.3672,14.3614,14.3672,14.53,14.9023,14.6987,14.786,15.2804,14.8267,14.6289,14.7511,14.1229,13.2969,12.2848,0.0,0.0,0.0,0.0,0.0,0.0,0.0,0.0,0.0,0.0,0.0,0.0,0.0,0.0,0.0,0.0,0.0,0.0,0.0,0.0,0.0,0.0,0.0,0.0,9.8693,10.7683,10.8586,11.4658,11.8155,11.6311,12.0071,12.3369,12.5599,12.9676,13.2503,13.349,13.5397,13.6909,13.7895,14.1183,14.3156,14.3682,14.6049,14.7233,14.7299,14.9272,15.0192,15.0258,15.1179,15.1902,15.2362,15.2362,15.2362,15.2231,15.131,14.7342,14.1785,13.9286,13.6393,13.3434,13.1484,13.1987,13.3643,13.6152,13.7802,13.8505,13.7027,13.588,13.4234,12.9242,12.8346,12.8014,12.373,12.3546,12.4709,12.5524,12.7676,13.0061,13.1748,13.3842,13.5645,13.6517,13.7332,13.7971,13.7971,13.4132,13.041,12.8665,13.1515,13.3027,13.0003,13.3667,13.7099,13.832,13.8844,13.9833,14.1578,14.2101,14.2392,14.2392,14.3148,14.4544,14.6696,14.6871,14.7976,15.0535,14.8965,14.7918,14.7569,14.1985,13.3202,12.1278,0.0,0.0,0.0,0.0,0.0,0.0,0.0,0.0,0.0,0.0,0.0,0.0,0.0,0.0,0.0,0.0,0.0,0.0,0.0,0.0,0.0,0.0,0.0,0.0,0.0,0.0,10.2991,10.7564,0.0,10.7485,10.8815,11.0843,11.3431,11.8331,12.2763,12.5927,12.7643,12.9897,13.3424,13.5887,13.785,13.9211,14.1578,14.3025,14.3551,14.5458,14.6641,14.7167,14.8088,14.8482,14.8482,14.8482,14.8482,14.8285,14.5852,14.0678,13.4404,13.3433,12.9392,12.4528,12.5273,12.6593,12.8165,13.0433,13.2581,13.4355,13.3603,13.0489,12.6137,12.1343,11.9464,11.854,11.7039,11.7846,11.9882,12.2964,12.5349,12.7385,12.913,13.0817,13.2155,13.262,13.3027,13.2736,13.0933,12.8258,12.4768,11.9998,12.2964,12.5175,12.279,12.6396,13.0933,13.5238,13.6575,13.7855,13.9542,14.0473,14.1229,14.1694,14.3323,14.4893,14.6173,14.7453,14.8558,14.9314,14.8441,14.6755,14.4137,13.8088,12.913,0.0,0.0,0.0,0.0,0.0,0.0,0.0,0.0,0.0,0.0,0.0,0.0,0.0,0.0,0.0,0.0,0.0,0.0,0.0,0.0,0.0,0.0,0.0,0.0,0.0,0.0,0.0,9.4099,10.1715,0.0,0.0,0.0,0.0,9.8785,10.2718,10.8782,11.7344,11.7062,12.1066,13.0397,13.0216,13.1897,13.571,13.7393,13.8903,14.0217,14.046,14.1249,14.2564,14.2564,14.263,14.263,14.263,14.263,14.2301,13.7698,13.3161,12.8724,12.5543,11.9029,11.1539,11.3982,11.4508,11.5037,12.1659,12.6337,12.9911,13.2012,12.8167,12.0871,11.2054,10.8281,0.0,0.0,11.011,11.36,12.0172,12.2906,12.4593,12.7385,12.8083,12.8432,12.9654,12.8956,12.6396,12.0987,12.0812,11.9416,11.2785,0.0,11.4647,11.709,11.9009,12.2964,13.0584,13.4016,13.5761,13.5936,13.8146,14.0182,14.1461,14.3963,14.5998,14.7278,14.8441,14.9023,14.9023,14.6406,14.2508,13.7273,12.9595,0.0,0.0,0.0,0.0,0.0,0.0,0.0,0.0,0.0,0.0,0.0,0.0,0.0,0.0,0.0,0.0,0.0,0.0,0.0,0.0,0.0,0.0,0.0,0.0,0.0,0.0,7.9187,8.6431,8.9472,9.0231,8.9027,0.0,0.0,0.0,0.0,0.0,0.0,9.9496,10.1555,10.5767,11.3128,11.7032,12.1345,12.6193,13.0373,13.2752,13.3075,13.6149,13.7698,13.8093,13.9211,13.9671,13.9671,13.9671,13.9671,13.9013,13.0333,12.3138,11.6779,11.0678,10.3844,9.7794,10.0179,10.0762,10.1907,11.0995,11.5392,11.652,11.3249,11.1622,10.8579,9.5094,0.0,0.0,0.0,0.0,10.1908,10.9295,11.4239,11.8486,12.3023,12.4768,12.5466,12.5815,12.4942,12.1161,11.1215,10.7957,10.3944,9.4637,9.6499,0.0,9.8883,10.7201,11.5926,12.2732,12.8374,13.2446,13.4423,13.6808,13.8437,13.8786,14.2101,14.4253,14.4602,14.4951,14.5126,14.5126,13.9891,13.4132,12.7967,0.0,0.0,0.0,0.0,0.0,0.0,0.0,0.0,0.0,0.0,0.0,0.0,0.0,0.0,0.0,0.0,0.0,0.0,0.0,0.0,0.0,0.0,0.0,0.0,0.0,0.0,0.0,7.342,7.9612,8.2657,8.0228,7.7674,0.0,0.0,0.0,0.0,0.0,0.0,0.0,0.0,0.0,10.076,10.4221,10.8321,11.3202,12.0177,12.3777,12.4495,12.9527,13.2902,13.4542,13.4818,13.5712,13.6777,13.6777,13.349,12.7637,12.0643,11.2627,10.3872,0.0,0.0,0.0,0.0,8.7499,8.8466,9.6936,10.0576,10.1508,9.9521,0.0,0.0,0.0,0.0,0.0,0.0,0.0,9.4172,10.1908,10.8946,11.5054,11.9125,12.1045,12.1801,12.1219,11.389,10.5224,9.7604,9.4928,9.1031,8.1841,8.3586,0.0,0.0,0.0,10.8074,11.6275,12.4884,13.0817,13.2271,13.5179,13.7506,13.8553,14.0647,14.2392,14.3555,14.309,14.152,13.8728,13.2969,12.5524,0.0,0.0,0.0,0.0,0.0,0.0,0.0,0.0,0.0,0.0,0.0,0.0,0.0,0.0,0.0,0.0,0.0,0.0,0.0,0.0,0.0,0.0,0.0,0.0,0.0,0.0,0.0,0.0,0.0,7.4893,7.5502,0.0,0.0,0.0,0.0,0.0,0.0,0.0,0.0,0.0,0.0,0.0,0.0,0.0,9.3839,9.8723,10.7215,11.2172,11.3756,11.9829,12.4693,12.836,12.7348,12.8555,13.1385,13.0037,0.0,11.2609,10.8927,0.0,0.0,0.0,0.0,0.0,0.0,0.0,0.0,0.0,0.0,0.0,0.0,0.0,0.0,0.0,0.0,0.0,0.0,0.0,0.0,0.0,0.0,11.0575,11.296,11.5054,11.5752,11.3076,9.9349,8.6552,8.312,8.2422,7.9921,0.0,0.0,0.0,0.0,0.0,0.0,11.04,12.1976,12.9479,13.0119,13.3551,13.6808,13.9251,13.9775,14.0996,14.3265,14.1403,13.7448,13.134,12.5989,0.0,0.0,0.0,0.0,0.0,0.0,0.0,0.0,0.0,0.0,0.0,0.0,0.0,0.0,0.0,0.0,0.0,0.0,0.0,0.0,0.0,0.0,0.0,0.0,0.0,0.0,0.0,0.0,0.0,0.0,0.0,0.0,0.0,0.0,0.0,0.0,0.0,0.0,0.0,0.0,0.0,0.0,0.0,0.0,0.0,0.0,0.0,0.0,0.0,0.0,10.2257,10.5876,10.8896,10.8679,11.1364,11.5932,10.7662,10.3846,10.2783,9.4593,0.0,0.0,0.0,0.0,0.0,0.0,0.0,0.0,0.0,0.0,0.0,0.0,0.0,0.0,0.0,0.0,0.0,0.0,0.0,0.0,0.0,0.0,9.4405,9.5917,10.0512,10.1792,9.202,0.0,0.0,0.0,0.0,0.0,0.0,0.0,0.0,0.0,0.0,0.0,10.3711,11.6101,12.5582,12.977,13.2736,13.547,13.7971,14.0124,14.1578,14.2043,13.5877,13.0293,0.0,0.0,0.0,0.0,0.0,0.0,0.0,0.0,0.0,0.0,0.0,0.0,0.0,0.0,0.0,0.0,0.0,0.0,0.0,0.0,0.0,0.0,0.0,0.0,0.0,0.0,0.0,0.0,0.0,0.0,0.0,0.0,0.0,0.0,0.0,0.0,0.0,0.0,0.0,0.0,0.0,0.0,0.0,0.0,0.0,0.0,0.0,0.0,0.0,0.0,0.0,0.0,0.0,0.0,0.0,0.0,0.0,0.0,9.3434,8.7362,0.0,0.0,0.0,0.0,0.0,0.0,0.0,0.0,0.0,0.0,0.0,0.0,0.0,0.0,0.0,0.0,0.0,0.0,0.0,0.0,0.0,0.0,0.0,0.0,0.0,0.0,0.0,0.0,0.0,0.0,0.0,0.0,0.0,0.0,0.0,0.0,0.0,0.0,0.0,0.0,9.9349,11.3425,12.4302,12.8781,13.1515,13.4365,13.7564,13.8379,13.8204,13.6808,13.0759,0.0,0.0,0.0,0.0,0.0,0.0,0.0,0.0,0.0,0.0,0.0,0.0,0.0,0.0,0.0,0.0,0.0,0.0,0.0,0.0,0.0,0.0,0.0,0.0,0.0,0.0,0.0,0.0,0.0,0.0,0.0,0.0,0.0,0.0,0.0,0.0,0.0,0.0,0.0,0.0,0.0,0.0,0.0,0.0,0.0,0.0,0.0,0.0,0.0,0.0,0.0,0.0,0.0,0.0,0.0,0.0,0.0,0.0,0.0,8.0603,7.3403,0.0,0.0,0.0,0.0,0.0,0.0,0.0,0.0,0.0,0.0,0.0,0.0,0.0,0.0,0.0,0.0,0.0,0.0,0.0,0.0,0.0,0.0,0.0,0.0,0.0,0.0,0.0,0.0,0.0,0.0,0.0,0.0,0.0,0.0,0.0,0.0,0.0,0.0,0.0,0.0,9.6382,11.1622,12.3372,12.7443,12.9944,13.2853,13.6692,13.6168,13.4249,13.1108,12.5291,0.0,0.0,0.0,0.0,0.0,0.0,0.0,0.0,0.0,0.0,0.0,0.0,0.0,0.0,0.0,0.0,0.0,0.0,0.0,0.0,0.0,0.0,0.0,0.0,0.0,0.0,0.0,0.0,0.0,0.0,0.0,0.0,0.0,0.0,0.0,0.0,0.0,0.0,0.0,0.0,0.0,0.0,0.0,0.0,0.0,0.0,0.0,0.0,0.0,0.0,0.0,0.0,0.0,0.0,0.0,0.0,0.0,0.0,0.0,0.0,0.0,0.0,0.0,0.0,0.0,0.0,0.0,0.0,0.0,0.0,0.0,0.0,0.0,0.0,0.0,0.0,0.0,0.0,0.0,0.0,0.0,0.0,0.0,0.0,0.0,0.0,0.0,0.0,0.0,0.0,0.0,0.0,0.0,0.0,0.0,0.0,0.0,0.0,0.0,0.0,0.0,9.4986,10.9528,12.1045,12.6047,12.785,13.0235,13.4132,13.4365,13.2213,12.7269,0.0,0.0,0.0,0.0,0.0,0.0,0.0,0.0,0.0,0.0,0.0,0.0,0.0,0.0,0.0,0.0,0.0,0.0,0.0,0.0,0.0,0.0,0.0,0.0,0.0,0.0,0.0,0.0,0.0,0.0,0.0,0.0,0.0,0.0,0.0,0.0,0.0,0.0,0.0,0.0,0.0,0.0,0.0,0.0,0.0,0.0,0.0,0.0,0.0,0.0,0.0,0.0,0.0,0.0,0.0,0.0,0.0,0.0,0.0,0.0,0.0,0.0,0.0,0.0,0.0,0.0,0.0,0.0,0.0,0.0,0.0,0.0,0.0,0.0,0.0,0.0,0.0,0.0,0.0,0.0,0.0,0.0,0.0,0.0,0.0,0.0,0.0,0.0,0.0,0.0,0.0,0.0,0.0,0.0,0.0,0.0,0.0,0.0,0.0,0.0,0.0,0.0,9.3707,10.8074,11.9882,12.5756,12.6862,12.9072,13.3725,13.3376,13.0061,12.3372,0.0,0.0,0.0,0.0,0.0,0.0,0.0,0.0,0.0,0.0,0.0,0.0,0.0,0.0,0.0,0.0,0.0,0.0,0.0,0.0,0.0,0.0,0.0,0.0,0.0,0.0,0.0,0.0,0.0,0.0,0.0,0.0,0.0,0.0,0.0,0.0,0.0,0.0,0.0,0.0,0.0,0.0,0.0,0.0,0.0,0.0,0.0,0.0,0.0,0.0,0.0,0.0,0.0,0.0,0.0,0.0,0.0,0.0,0.0,0.0,0.0,0.0,0.0,0.0,0.0,0.0,0.0,0.0,0.0,0.0,0.0,0.0,0.0,0.0,0.0,0.0,0.0,0.0,0.0,0.0,0.0,0.0,0.0,0.0,0.0,0.0,0.0,0.0,0.0,0.0,0.0,0.0,0.0,0.0,0.0,0.0,0.0,0.0,0.0,0.0,0.0,0.0,9.3067,10.7259,11.8951,12.4651,12.5582,12.7618,13.2038,13.1515,12.7734,12.0056,0.0,0.0,0.0,0.0,0.0,0.0,0.0,0.0,0.0,0.0,0.0,0.0,0.0,0.0,0.0,0.0,0.0,0.0,0.0,0.0,0.0,0.0,0.0,0.0,0.0,0.0,0.0,0.0,0.0,0.0,0.0,0.0,0.0,0.0,0.0,0.0,0.0,0.0,0.0,0.0,0.0,0.0,0.0,0.0,0.0,0.0,0.0,0.0,0.0,0.0,0.0,0.0,0.0,0.0,0.0,0.0,0.0,0.0,0.0,0.0,0.0,0.0,0.0,0.0,0.0,0.0,0.0,0.0,0.0,0.0,0.0,0.0,0.0,0.0,0.0,0.0,0.0,0.0,0.0,0.0,0.0,0.0,0.0,0.0,0.0,0.0,0.0,0.0,0.0,0.0,0.0,0.0,0.0,0.0,0.0,0.0,0.0,0.0,0.0,0.0,0.0,0.0,9.3067,10.7259,11.8311,12.2266,12.3721,12.5524,12.8141,12.8374,12.5058,0.0,0.0,0.0,0.0,0.0,0.0,0.0,0.0,0.0,0.0,0.0,0.0,0.0,0.0,0.0,0.0,0.0,0.0,0.0,0.0,0.0,0.0,0.0,0.0,0.0,0.0,0.0,0.0,0.0,0.0,0.0,0.0,0.0,0.0,0.0,0.0,0.0,0.0,0.0,0.0,0.0,0.0,0.0,0.0,0.0,0.0,0.0,0.0,0.0,0.0,0.0,0.0,0.0,0.0,0.0,0.0,0.0,0.0,0.0,0.0,0.0,0.0,0.0,0.0,0.0,0.0,0.0,0.0,0.0,0.0,0.0,0.0,0.0,0.0,0.0,0.0,0.0,0.0,0.0,0.0,0.0,0.0,0.0,0.0,0.0,0.0,0.0,0.0,0.0,0.0,0.0,0.0,0.0,0.0,0.0,0.0,0.0,0.0,0.0,0.0,0.0,0.0,0.0,9.1147,10.1385,11.1506,12.1568,12.215,12.3255,12.6745,12.7036,12.407,11.7206,0.0,0.0,0.0,0.0,0.0,0.0,0.0,0.0,0.0,0.0,0.0,0.0,0.0,0.0,0.0,0.0,0.0,0.0,0.0,0.0,0.0,0.0,0.0,0.0,0.0,0.0,0.0,0.0,0.0,0.0,0.0,0.0,0.0,0.0,0.0,0.0,0.0,0.0,0.0,0.0,0.0,0.0,0.0,0.0,0.0,0.0,0.0,0.0,0.0,0.0,0.0,0.0,0.0,0.0,0.0,0.0,0.0,0.0,0.0,0.0,0.0,0.0,0.0,0.0,0.0,0.0,0.0,0.0,0.0,0.0,0.0,0.0,0.0,0.0,0.0,0.0,0.0,0.0,0.0,0.0,0.0,0.0,0.0,0.0,0.0,0.0,0.0,0.0,0.0,0.0,0.0,0.0,0.0,0.0,0.0,0.0,0.0,0.0,0.0,0.0,0.0,0.0,0.0,10.1152,11.1331,12.087,12.1627,12.2557,12.5407,12.564,12.3139,11.7148,0.0,0.0,0.0,0.0,0.0,0.0,0.0,0.0,0.0,0.0,0.0,0.0,0.0,0.0,0.0,0.0,0.0,0.0,0.0,0.0,0.0,0.0,0.0,0.0,0.0,0.0,0.0,0.0,0.0,0.0,0.0,0.0,0.0,0.0,0.0,0.0,0.0,0.0,0.0,0.0,0.0,0.0,0.0,0.0,0.0,0.0,0.0,0.0,0.0,0.0,0.0,0.0,0.0,0.0,0.0,0.0,0.0,0.0,0.0,0.0,0.0,0.0,0.0,0.0,0.0,0.0,0.0,0.0,0.0,0.0,0.0,0.0,0.0,0.0,0.0,0.0,0.0,0.0,0.0,0.0,0.0,0.0,0.0,0.0,0.0,0.0,0.0,0.0,0.0,0.0,0.0,0.0,0.0,0.0,0.0,0.0,0.0,0.0,0.0,0.0,0.0,0.0,0.0,10.4758,11.5461,12.0056,12.1627,12.2848,12.4011,12.4244,12.2034,11.6857,10.8074,0.0,0.0,0.0,0.0,0.0,0.0,0.0,0.0,0.0,0.0,0.0,0.0,0.0,0.0,0.0,0.0,0.0,0.0,0.0,0.0,0.0,0.0,0.0,0.0,0.0,0.0,0.0,0.0,0.0,0.0,0.0,0.0,0.0,0.0,0.0,0.0,0.0,0.0,0.0,0.0,0.0,0.0,0.0,0.0,0.0,0.0,0.0,0.0,0.0,0.0,0.0,0.0,0.0,0.0,0.0,0.0,0.0,0.0,0.0,0.0,0.0,0.0,0.0,0.0,0.0,0.0,0.0,0.0,0.0,0.0,0.0,0.0,0.0,0.0,0.0,0.0,0.0,0.0,0.0,0.0,0.0,0.0,0.0,0.0,0.0,0.0,0.0,0.0,0.0,0.0,0.0,0.0,0.0,0.0,0.0,0.0,0.0,0.0,0.0,0.0,0.0,0.0,9.8883,10.6212,11.802,11.9533,12.0231,12.1452,12.2499,12.0405,11.4239,10.5456,0.0,0.0,0.0,0.0,0.0,0.0,0.0,0.0,0.0,0.0,0.0,0.0,0.0,0.0,0.0,0.0,0.0,0.0,0.0,0.0,0.0,0.0,0.0,0.0,0.0,0.0,0.0,0.0,0.0,0.0,0.0,0.0,0.0,0.0,0.0,0.0,0.0,0.0,0.0,0.0,0.0,0.0,0.0,0.0,0.0,0.0,0.0,0.0,0.0,0.0,0.0,0.0,0.0,0.0,0.0,0.0,0.0,0.0,0.0,0.0,0.0,0.0,0.0,0.0,0.0,0.0,0.0,0.0,0.0,0.0,0.0,0.0,0.0,0.0,0.0,0.0,0.0,0.0,0.0,0.0,0.0,0.0,0.0,0.0,0.0,0.0,0.0,0.0,0.0,0.0,0.0,0.0,0.0,0.0,0.0,0.0,0.0,0.0,0.0,0.0,0.0,0.0,8.8588,9.8302,11.5984,11.9474,12.0812,12.151,12.2208,11.9591,11.2494,10.2548,0.0,0.0,0.0,0.0,0.0,0.0,0.0,0.0,0.0,0.0,0.0,0.0,0.0,0.0,0.0,0.0,0.0,0.0,0.0,0.0,0.0,0.0,0.0,0.0,0.0,0.0,0.0,0.0,0.0,0.0,0.0,0.0,0.0,0.0,0.0,0.0,0.0,0.0,0.0,0.0,0.0,0.0,0.0,0.0,0.0,0.0,0.0,0.0,0.0,0.0,0.0,0.0,0.0,0.0,0.0,0.0,0.0,0.0,0.0,0.0,0.0,0.0,0.0,0.0,0.0,0.0,0.0,0.0,0.0,0.0,0.0,0.0,0.0,0.0,0.0,0.0,0.0,0.0,0.0,0.0,0.0,0.0,0.0,0.0,0.0,0.0,0.0,0.0,0.0,0.0,0.0,0.0,0.0,0.0,0.0,0.0,0.0,0.0,0.0,0.0,0.0,0.0,0.0,9.2078,11.1506,11.866,12.2092,12.2325,12.2325,11.8893,11.0924,0.0,0.0,0.0,0.0,0.0,0.0,0.0,0.0,0.0,0.0,0.0,0.0,0.0,0.0,0.0,0.0,0.0,0.0,0.0,0.0,0.0,0.0,0.0,0.0,0.0,0.0,0.0,0.0,0.0,0.0,0.0,0.0,0.0,0.0,0.0,0.0,0.0,0.0,0.0,0.0,0.0,0.0,0.0,0.0,0.0,0.0,0.0,0.0,0.0,0.0,0.0,0.0,0.0,0.0,0.0,0.0,0.0,0.0,0.0,0.0,0.0,0.0,0.0,0.0,0.0,0.0,0.0,0.0,0.0,0.0,0.0,0.0,0.0,0.0,0.0,0.0,0.0,0.0,0.0,0.0,0.0,0.0,0.0,0.0,0.0,0.0,0.0,0.0,0.0,0.0,0.0,0.0,0.0,0.0,0.0,0.0,0.0,0.0,0.0,0.0,0.0,0.0,0.0,0.0,8.9228,9.8069,11.1215,11.9823,12.0929,12.0987,11.7264,10.8423,0.0,0.0,0.0,0.0,0.0,0.0,0.0,0.0,0.0,0.0,0.0,0.0,0.0,0.0]}],[{"header":{"parameterUnit":"kt","parameterCategory":2,"dx":1,"dy":1,"la1":29.285339999999998,"la2":30.599998999999997,"lo1":-89.70041500000002,"lo2":-87.6738589999976,"nx":112,"ny":82,"refTime":"2022-10-25T12:00:00:Z","depth":0,"parameterNumber":2,"parameterNumberName":"V-component_of_WINDS"},"data":[-8.9067,-9.0244,-9.0624,-8.6182,-8.6296,-8.6372,-8.1968,-8.2044,-8.316,-8.3864,-8.4228,-8.5665,-8.956,-8.5518,-8.191,-8.3634,-7.8656,-7.4717,0.0,-7.4614,-7.4454,-7.533,-7.682,-7.7943,-7.8399,-8.0981,-8.4614,-8.9542,-8.8386,-8.9357,-9.4257,-9.2532,-9.0966,-9.0472,-9.0434,-9.0282,-9.0016,-9.0282,-9.0282,-9.0016,-9.0016,-9.0168,-9.0434,-9.013,-9.0434,-9.1155,-9.1983,-9.4702,-9.8987,-10.3534,-10.616,-10.7918,-11.4889,-11.6948,-11.6044,-12.0145,-12.1824,-12.2117,-12.2117,-12.2117,-12.2117,-12.2117,-12.2117,-12.2117,-12.2117,-12.2117,-12.197,-12.1287,-12.0799,-12.036,-11.9676,-11.9237,-11.8944,-11.8944,-11.9432,-11.9676,-11.8554,-11.8651,-11.8798,-11.8407,-11.8359,-11.8895,-12.0262,-12.0848,-12.1336,-12.2019,-12.2117,-12.197,-12.1629,-12.0945,-12.311,-13.0094,-13.0095,-13.3069,-14.158,-14.181,-14.0705,-13.8611,-13.8844,-13.8669,-13.7855,-13.7797,-13.7797,-13.7797,-13.7797,-13.7797,-13.7797,-13.7797,-13.7797,-13.7797,-13.7797,-13.7797,-8.6789,-8.7852,-8.8346,-8.3297,-8.3524,-8.3752,-7.9006,-7.9824,-8.1696,-8.2169,-8.4331,-8.671,-8.8014,-8.5243,-8.2536,-8.2208,-7.8146,-7.5485,0.0,-7.5689,-7.5211,-7.7002,-7.887,-7.9918,-7.9652,-8.2879,-8.5461,-8.6638,-8.7435,-8.8878,-9.1117,-9.0966,-9.0548,-9.0016,-9.0016,-9.0016,-9.0016,-9.0016,-9.0016,-9.0016,-9.0016,-9.0016,-9.0016,-9.0016,-9.032,-9.0776,-9.0548,-9.2679,-9.6694,-9.9949,-10.3093,-10.6162,-11.3434,-11.6149,-11.6611,-12.0726,-12.2117,-12.2117,-12.2117,-12.2117,-12.2117,-12.2117,-12.2117,-12.2117,-12.2117,-12.2117,-12.1922,-12.0848,-12.0262,-11.9725,-11.8651,-11.8359,-11.8359,-11.8359,-11.9188,-11.9676,-11.8603,-11.8359,-11.8261,-11.7871,-11.7529,-11.7822,-11.9676,-11.9676,-11.992,-12.1385,-12.158,-12.1726,-12.2068,-12.1482,-12.3243,-12.9221,-13.052,-13.3609,-14.0362,-14.2533,-14.2567,-13.9949,-13.9775,-13.9367,-13.8495,-13.803,-13.7797,-13.7797,-13.7797,-13.7797,-13.7797,-13.7797,-13.7797,-13.7797,-13.7797,-13.7797,-8.5157,-8.4853,-8.5005,-8.0032,-7.9462,-7.9386,-7.7094,-7.957,-8.213,-8.2121,-8.5045,-8.8136,-8.8542,-8.544,-8.233,-8.0974,-7.7518,0.0,0.0,-7.259,-7.2856,-7.6083,-7.8627,-8.1095,-8.3562,-8.1664,-8.2309,-8.7245,-8.5233,-8.5992,-9.0928,-9.0434,-9.0016,-9.0016,-9.0016,-9.0016,-9.0016,-9.0016,-9.0016,-9.0016,-9.0016,-9.0016,-9.0016,-9.0016,-9.0016,-9.0092,-9.0852,-9.1231,-9.1345,-9.2143,-9.7817,-10.5546,-10.7123,-11.283,-12.0387,-12.1726,-12.2117,-12.2117,-12.2117,-12.2117,-12.2117,-12.2117,-12.2117,-12.2117,-12.2117,-12.2117,-12.1922,-12.0799,-11.9774,-11.87,-11.7529,-11.7236,-11.7236,-11.7187,-11.8066,-11.8554,-11.7431,-11.7236,-11.6943,-11.5869,-11.6504,-11.7578,-11.87,-11.8017,-11.8066,-12.0262,-12.0604,-12.0945,-12.2019,-12.2117,-12.3203,-12.5898,-12.9568,-13.3134,-13.5659,-14.0629,-14.3672,-14.373,-14.1287,-13.9833,-13.9716,-13.8553,-13.7855,-13.7797,-13.7797,-13.7797,-13.7797,-13.7797,-13.7797,-13.7797,-13.7797,-13.7797,-8.0905,-8.1778,-8.2917,-8.0335,-8.0297,-8.0674,-7.9975,-7.9791,-8.1304,-8.7307,-8.8083,0.0,0.0,0.0,-8.3334,-8.1743,0.0,-7.7905,-7.5817,-7.8285,-8.0677,-8.155,-8.174,-8.2803,-8.5347,-8.5537,-8.6524,-8.9143,-8.7017,-8.6979,-9.0168,-9.013,-9.0016,-9.0016,-9.0016,-9.0016,-9.0016,-9.0016,-9.0016,-9.0016,-9.0016,-9.0016,-9.0016,-9.0016,-9.032,-9.0852,-9.051,-9.1042,-9.2491,-9.6064,-9.9165,-10.2506,-11.013,-11.454,-11.7281,-12.0649,-12.2117,-12.2117,-12.2117,-12.2117,-12.2117,-12.2117,-12.2117,-12.2117,-12.2117,-12.2117,-12.1726,-11.9872,-11.9725,-11.9481,-11.6797,-11.665,-11.7041,-11.626,-11.6943,-11.7431,-11.6309,-11.6699,-11.6943,-11.5869,-11.5869,-11.6455,-11.7529,-11.8115,-11.9188,-12.1385,-12.1678,-12.1775,-12.2117,-12.2117,-12.3499,-12.697,-12.8384,-13.1801,-13.8113,-13.9047,-14.1122,-14.4951,-14.3497,-14.1694,-13.9833,-13.9367,-13.8786,-13.7855,-13.7797,-13.7797,-13.7797,-13.7797,-13.7797,-13.7797,-13.7797,-13.7797,-7.9082,-7.9804,-8.0867,-7.8513,-8.0198,-8.1855,-7.9141,-8.02,-8.2839,-8.6621,0.0,0.0,0.0,0.0,0.0,0.0,-8.0069,-8.0032,-7.8513,-8.1436,-8.3866,-8.4208,-8.5688,-8.6865,-8.7321,-8.7777,-8.8612,-8.9903,-8.8042,-8.7739,-8.9903,-9.0016,-9.0016,-9.0016,-9.0016,-9.0016,-9.0016,-9.0016,-9.0016,-9.0016,-9.0016,-9.0016,-9.0016,-9.0016,-9.0244,-9.07,-9.0586,-9.108,-9.23,-9.7315,-9.9669,-10.1474,-11.0301,-11.5285,-11.7736,-12.0435,-12.1726,-12.2117,-12.2117,-12.2117,-12.2117,-12.2117,-12.2117,-12.2117,-12.2117,-12.1824,-12.1092,-11.9432,-11.9042,-11.8603,-11.626,-11.6113,-11.6406,-11.5772,-11.6113,-11.6406,-11.5772,-11.6162,-11.6553,-11.6357,-11.5967,-11.5967,-11.7041,-11.8163,-11.953,-12.1189,-12.1433,-12.1629,-12.2068,-12.2117,-12.3017,-12.5373,-12.6817,-13.0355,-13.6796,-13.8168,-14.066,-14.5208,-14.4835,-14.3497,-14.1461,-14.0298,-13.9367,-13.8669,-13.8088,-13.7797,-13.7797,-13.7797,-13.7797,-13.7797,-13.7797,-13.7797,-7.9209,-7.8761,-7.8848,-7.6291,-7.9507,-8.1963,-7.7569,0.0,-8.6229,-8.4708,0.0,-8.7553,-8.3496,0.0,0.0,-7.7996,-8.0032,-8.2044,-8.1854,-8.341,-8.4815,-8.5461,-8.9561,-9.1459,-8.9295,-8.9067,-8.9333,-8.9979,-8.865,-8.846,-8.9941,-9.0092,-9.0092,-9.0016,-9.0016,-9.0016,-9.0016,-9.0016,-9.0016,-9.0016,-9.0016,-9.0016,-9.0016,-9.0016,-9.0016,-9.0054,-9.0776,-9.108,-9.1462,-9.6614,-9.9765,-10.1743,-10.9933,-11.5571,-11.983,-12.0193,-12.1141,-12.197,-12.197,-12.197,-12.197,-12.2117,-12.2117,-12.2117,-12.2117,-12.1482,-12.0457,-11.9286,-11.8212,-11.7138,-11.5967,-11.5625,-11.5625,-11.5625,-11.5625,-11.5625,-11.5625,-11.5625,-11.5918,-11.6894,-11.6406,-11.6211,-11.7431,-11.8456,-11.9481,-12.0555,-12.0701,-12.1043,-12.2019,-12.2117,-12.2117,-12.2117,-12.5062,-12.9204,-13.3614,-13.7081,-14.0844,-14.5266,-14.5533,-14.501,-14.3904,-14.1461,-14.0065,-13.9716,-13.8495,-13.7797,-13.7797,-13.7797,-13.7797,-13.7797,-13.7797,-13.7797,-8.1826,-7.871,-7.5689,-7.965,-7.8269,-7.8285,0.0,0.0,0.0,-9.6095,-9.6323,-9.4351,-9.0634,-8.8734,-8.6797,-8.4767,-8.603,-8.6865,-8.5537,-8.789,-8.9599,-8.9105,-9.0472,-9.1269,-9.0814,-9.0776,-9.0548,-9.0054,-8.9713,-8.9675,-8.9979,-9.0624,-9.07,-9.0016,-9.0016,-9.0016,-9.0016,-9.0016,-9.0016,-9.0016,-9.0016,-9.0016,-9.0016,-9.0016,-9.0016,-9.0016,-9.0168,-9.0244,-9.0623,-9.5695,-10.0043,-10.4504,-11.4043,-11.6567,-11.5461,-11.9152,-12.0653,-12.0848,-12.0848,-12.0848,-12.0994,-12.1824,-12.2117,-12.2117,-12.2117,-12.197,-12.1385,-11.9481,-11.8798,-11.8163,-11.6162,-11.5625,-11.5625,-11.5625,-11.5625,-11.5625,-11.5625,-11.5625,-11.5723,-11.5918,-11.6504,-11.7578,-11.9579,-12.0067,-12.0604,-12.1678,-12.1824,-12.1873,-12.2117,-12.2117,-12.2117,-12.2117,-12.2702,-12.6251,-13.3321,-13.449,-13.7989,-14.5266,-14.5533,-14.5417,-14.5184,-14.373,-14.1927,-13.9775,-13.8495,-13.7797,-13.7797,-13.7797,-13.7797,-13.7797,-13.7797,-13.7797,-8.1922,-7.9711,-7.7576,-7.9572,-7.9946,0.0,0.0,-8.7023,-8.8495,-9.3335,-9.2051,-8.9978,-8.831,-8.7369,-8.662,-8.525,-8.7131,-8.8915,-8.9333,-9.0814,-9.1687,-9.1307,-9.1611,-9.2029,-9.2446,-9.2105,-9.1839,-9.1839,-9.108,-9.0434,-9.0016,-9.0396,-9.0434,-9.0016,-9.0016,-9.0016,-9.0016,-9.0016,-9.0016,-9.0016,-9.0016,-9.0016,-9.0016,-9.0016,-9.0016,-9.0016,-9.0016,-9.0016,-9.0696,-9.7226,-10.1623,-10.4256,-11.1196,-11.4635,-11.5948,-11.8859,-11.9725,-11.9872,-12.0945,-12.0994,-12.0701,-12.1775,-12.2117,-12.2117,-12.2117,-12.2117,-12.1678,-11.953,-11.8505,-11.7724,-11.6065,-11.5625,-11.5625,-11.5625,-11.6065,-11.6455,-11.6455,-11.6455,-11.6602,-11.7187,-11.8163,-11.9237,-12.0311,-12.0994,-12.1482,-12.2068,-12.2117,-12.2117,-12.2117,-12.2117,-12.2117,-12.2117,-12.3912,-12.743,-13.3321,-13.5648,-13.9397,-14.5266,-14.5533,-14.5533,-14.5533,-14.4951,-14.3672,-14.1752,-13.9775,-13.8786,-13.8786,-13.8786,-13.9135,-13.9775,-13.9775,-13.9426,-8.1895,-8.0267,-7.8497,-7.9765,-8.2382,0.0,-8.5778,-8.6912,-8.8118,-8.9087,-8.7797,-8.608,-8.557,-8.5992,-8.622,-8.5537,-8.7739,-9.0206,-9.2219,-9.2484,-9.2484,-9.2484,-9.2636,-9.2978,-9.3623,-9.3092,-9.3016,-9.3661,-9.2332,-9.1117,-9.0282,-9.0244,-9.0168,-9.0016,-9.0016,-9.0016,-9.0016,-9.0016,-9.0016,-9.0016,-9.0016,-9.0016,-9.0016,-9.0016,-9.0016,-9.0016,-9.0016,-9.0016,-9.0658,-9.8378,-10.1907,-10.3191,-10.785,-11.2593,-11.7382,-11.8261,-11.8603,-11.8895,-12.0848,-12.0945,-12.0409,-12.1726,-12.2117,-12.2117,-12.2117,-12.2117,-12.1775,-12.0018,-11.8603,-11.7285,-11.5967,-11.5821,-11.5967,-11.5967,-11.6797,-11.7578,-11.7578,-11.7578,-11.7919,-11.9042,-11.992,-12.0506,-12.0506,-12.1433,-12.2117,-12.2117,-12.2117,-12.2117,-12.2117,-12.2117,-12.2117,-12.2117,-12.5633,-12.9454,-13.3614,-13.7366,-14.1453,-14.5266,-14.5533,-14.5533,-14.5533,-14.5533,-14.4951,-14.3672,-14.1578,-14.0356,-14.0124,-14.0356,-14.0938,-14.1752,-14.1752,-14.1171,-8.349,-7.8473,-7.3276,-8.4567,-8.3954,0.0,-9.2841,-9.4957,-9.5216,-9.61,-9.6854,-9.5992,-9.2111,-9.1573,-9.1611,-9.1535,-9.1839,-9.2181,-9.2446,-9.2484,-9.2484,-9.2484,-9.313,-9.3623,-9.3699,-9.3623,-9.3623,-9.3699,-9.2864,-9.1991,-9.1117,-9.108,-9.0776,-9.0016,-9.0016,-9.0016,-9.0016,-9.0016,-9.0016,-9.0016,-9.0016,-9.0016,-9.0016,-9.0016,-9.0016,-9.0016,-9.0016,-9.0016,-9.0318,-9.5162,-9.9358,-10.3278,-10.8579,-11.3208,-11.7285,-11.7382,-11.7431,-11.7626,-11.8847,-11.9188,-11.9432,-12.1482,-12.2117,-12.2117,-12.2117,-12.2117,-12.2068,-12.1824,-12.0311,-11.8261,-11.6211,-11.6357,-11.709,-11.709,-11.7919,-11.8749,-11.8749,-11.8749,-11.9042,-12.0164,-12.0457,-12.0506,-12.0506,-12.1433,-12.2117,-12.2117,-12.2117,-12.2117,-12.2117,-12.2117,-12.2117,-12.2117,-12.5633,-12.9454,-13.3614,-13.7366,-14.1453,-14.5266,-14.5533,-14.5533,-14.5533,-14.5533,-14.4951,-14.3672,-14.3381,-14.2625,-14.152,-14.2683,-14.2683,-14.1752,-14.1752,-14.1636,-8.3768,-8.1396,-7.8552,-8.3162,0.0,0.0,-9.0062,-9.0784,-9.112,-9.4202,-9.3486,-9.2153,-9.1195,-9.1042,-9.1193,-9.1687,-9.2181,-9.2484,-9.2484,-9.332,-9.3927,-9.3927,-9.4231,-9.4458,-9.4458,-9.4458,-9.4458,-9.4458,-9.3244,-9.2332,-9.1991,-9.1042,-9.0358,-9.0016,-9.0016,-9.0016,-9.0016,-9.0016,-9.0016,-9.0016,-9.0016,-9.0016,-9.0016,-9.0016,-9.0016,-9.0016,-9.0016,-9.0016,-8.9979,-9.1933,-9.6776,-10.2914,-10.5229,-11.0187,-11.6406,-11.7041,-11.6846,-11.6553,-11.831,-11.8944,-11.9188,-12.0701,-12.1629,-12.2117,-12.2117,-12.2117,-12.2019,-12.1385,-12.0555,-11.9481,-11.7968,-11.7382,-11.7431,-11.8066,-11.9042,-11.9872,-11.9872,-11.9872,-12.0164,-12.1238,-12.1482,-12.1482,-12.1482,-12.1824,-12.2117,-12.2117,-12.2117,-12.2117,-12.2117,-12.2117,-12.2117,-12.2117,-12.7736,-13.2142,-13.3907,-13.9732,-14.3807,-14.5533,-14.5533,-14.5533,-14.5533,-14.5533,-14.53,-14.4777,-14.4777,-14.4137,-14.2857,-14.4137,-14.4079,-14.2857,-14.3614,-14.3555,-8.2903,0.0,0.0,0.0,0.0,0.0,-8.839,-8.8409,-8.8764,-9.1535,-9.0264,-8.884,-8.9827,-9.0016,-9.0282,-9.108,-9.1725,-9.2294,-9.275,-9.3851,-9.4724,-9.4952,-9.499,-9.499,-9.499,-9.499,-9.499,-9.499,-9.3623,-9.275,-9.2484,-9.1117,-9.0244,-9.0016,-9.0016,-9.0016,-9.0016,-9.0016,-9.0016,-9.0016,-9.0016,-9.0016,-9.0016,-9.0016,-9.0016,-9.0016,-9.0016,-9.0016,-9.0016,-9.0016,-9.4536,-10.1262,-10.2229,-10.7355,-11.4164,-11.6201,-11.6309,-11.5918,-11.7822,-11.8456,-11.87,-12.0067,-12.1043,-12.1726,-12.2019,-12.2117,-12.197,-12.1189,-12.075,-12.036,-11.9579,-11.8749,-11.8359,-11.9188,-12.0213,-12.0994,-12.0994,-12.0994,-12.1189,-12.197,-12.2117,-12.2117,-12.2117,-12.2117,-12.2117,-12.2117,-12.2117,-12.2117,-12.2117,-12.2117,-12.2117,-12.2117,-12.8345,-13.2733,-13.3907,-14.0011,-14.4346,-14.5533,-14.5533,-14.5533,-14.5533,-14.5533,-14.5533,-14.5533,-14.5533,-14.4893,-14.3614,-14.4893,-14.5068,-14.4195,-14.5126,-14.5068,0.0,0.0,0.0,-8.6956,-8.7129,-8.6132,-9.1741,-9.2867,-9.2219,-9.0536,-9.0548,-9.089,-9.013,-9.0016,-9.0282,-9.108,-9.1231,-9.1839,-9.3433,-9.3699,-9.4041,-9.4876,-9.499,-9.499,-9.499,-9.499,-9.499,-9.499,-9.4155,-9.332,-9.2522,-9.1649,-9.0814,-9.0016,-9.0016,-9.0016,-9.0016,-9.0016,-9.0016,-9.0016,-9.0016,-9.0016,-9.0016,-9.0016,-9.0016,-9.0016,-9.0016,-9.0016,-9.0016,-9.0016,-9.2567,-9.7106,-10.1262,-10.5464,-10.994,-11.4115,-11.5674,-11.5821,-11.6894,-11.7285,-11.7675,-11.9823,-12.0555,-12.075,-12.1824,-12.2117,-12.2117,-12.2117,-12.1336,-12.0506,-12.0506,-12.0457,-12.0457,-12.0457,-12.1287,-12.2068,-12.2068,-12.2068,-12.2117,-12.2117,-12.2117,-12.2117,-12.2117,-12.2117,-12.2117,-12.2117,-12.2117,-12.2117,-12.2117,-12.2117,-12.2117,-12.2117,-12.5633,-12.9755,-13.3614,-13.765,-14.1453,-14.5266,-14.5533,-14.5533,-14.5533,-14.5533,-14.5533,-14.5533,-14.5533,-14.4893,-14.3614,-14.4893,-14.5533,-14.5475,-14.5533,-14.5533,-8.0865,-8.0704,-8.0873,-8.4538,-8.6055,-8.6805,-8.8813,-9.0264,-9.1093,-9.089,-9.0586,-9.032,-9.0054,-9.0016,-9.0092,-9.0358,-9.0852,-9.1611,-9.275,-9.3357,-9.4003,-9.4876,-9.499,-9.499,-9.499,-9.499,-9.499,-9.499,-9.4193,-9.3357,-9.2522,-9.1687,-9.0852,-9.0016,-9.0016,-9.0016,-9.0016,-9.0016,-9.0016,-9.0016,-9.0016,-9.0016,-9.0016,-9.0016,-9.0016,-9.0016,-9.0016,-9.0016,-9.0016,-9.0016,-9.2607,-9.6446,-9.805,-10.2871,-10.932,-11.0867,-11.3107,-11.5723,-11.6065,-11.665,-11.7382,-11.8115,-11.8847,-11.9676,-12.075,-12.1092,-12.1092,-12.1092,-12.1336,-12.1287,-11.9823,-12.0506,-12.158,-12.158,-12.1873,-12.2117,-12.2117,-12.2117,-12.2117,-12.2117,-12.2117,-12.2117,-12.2117,-12.2117,-12.2117,-12.2117,-12.2117,-12.2117,-12.2117,-12.2117,-12.2117,-12.2117,-12.5633,-12.8598,-12.9755,-13.5881,-14.0289,-14.1728,-14.4077,-14.5533,-14.5533,-14.5533,-14.5533,-14.5533,-14.5533,-14.5359,-14.4893,-14.5359,-14.5533,-14.5533,-14.5533,-14.5533,-8.0891,-8.105,-8.1543,-8.4084,-8.5523,-8.6662,-8.7956,-8.9219,-9.013,-9.0662,-9.0358,-9.0016,-9.0016,-9.0016,-9.0016,-9.0016,-9.0434,-9.1193,-9.2332,-9.294,-9.3699,-9.4838,-9.499,-9.499,-9.499,-9.499,-9.499,-9.499,-9.4193,-9.3471,-9.294,-9.1839,-9.0966,-9.0472,-9.0168,-9.0016,-9.0016,-9.0016,-9.0016,-9.0016,-9.0016,-9.0016,-9.0016,-9.0016,-9.0016,-9.0016,-9.0016,-9.0016,-9.0016,-9.0016,-9.1634,-9.4203,-9.5825,-10.0615,-10.7041,-10.8651,-11.1837,-11.5625,-11.5625,-11.6113,-11.6748,-11.7138,-11.7724,-11.8554,-11.9628,-12.0213,-12.0506,-12.0506,-12.1287,-12.1824,-12.0409,-12.1092,-12.2117,-12.2117,-12.2117,-12.2117,-12.2117,-12.2117,-12.2117,-12.2117,-12.2117,-12.2117,-12.2117,-12.2117,-12.2117,-12.2117,-12.2117,-12.2117,-12.2117,-12.2117,-12.2117,-12.2117,-12.4176,-12.6509,-12.7685,-13.3853,-13.8216,-13.9676,-14.3479,-14.5533,-14.5533,-14.5533,-14.5533,-14.5533,-14.5533,-14.5533,-14.5533,-14.5533,-14.5533,-14.5533,-14.5533,-14.5533,-8.0968,-7.9183,-7.797,-8.5286,-8.6036,-8.5954,-8.9257,-9.0016,-9.0016,-9.0016,-9.0016,-9.0016,-9.0016,-9.0016,-9.0016,-9.0016,-9.0016,-9.0586,-9.2181,-9.2446,-9.3092,-9.4724,-9.4952,-9.499,-9.499,-9.499,-9.499,-9.499,-9.4231,-9.3737,-9.3699,-9.2181,-9.1269,-9.1231,-9.0434,-9.0016,-9.0016,-9.0016,-9.0016,-9.0016,-9.0016,-9.0016,-9.0016,-9.0016,-9.0016,-9.0016,-9.0016,-9.0016,-9.0016,-9.0016,-9.0016,-9.0318,-9.4536,-9.8705,-10.2871,-10.7041,-11.153,-11.5324,-11.5324,-11.5324,-11.5821,-11.6846,-11.7187,-11.7431,-11.8505,-11.9628,-12.0506,-12.0506,-12.1287,-12.2117,-12.2117,-12.2117,-12.2117,-12.2117,-12.2117,-12.2117,-12.2117,-12.2117,-12.2117,-12.2117,-12.2117,-12.2117,-12.2117,-12.2117,-12.2117,-12.2117,-12.2117,-12.2117,-12.2117,-12.2117,-12.2117,-12.2117,-12.2117,-12.3598,-12.743,-13.1252,-13.5359,-13.9116,-14.3208,-14.5266,-14.5533,-14.5533,-14.5533,-14.5533,-14.5533,-14.5533,-14.5533,-14.5533,-14.5533,-14.5533,-14.5533,-14.5533,-8.3724,-8.3609,-8.3229,-8.743,-8.7636,-8.7435,-8.9523,-9.0016,-9.0016,-9.0016,-9.0016,-9.0016,-9.0016,-9.0016,-9.0016,-9.0016,-9.0016,-9.0358,-9.1383,-9.2105,-9.2864,-9.3889,-9.461,-9.499,-9.499,-9.499,-9.499,-9.499,-9.4762,-9.4383,-9.3737,-9.2712,-9.1877,-9.1231,-9.0434,-9.0016,-9.0016,-9.0016,-9.0016,-9.0016,-9.0016,-9.0016,-9.0016,-9.0016,-9.0016,-9.0016,-9.0016,-9.0016,-9.0016,-9.0016,-9.0016,-9.0016,-9.1297,-9.4203,-9.805,-9.9358,-10.4423,-11.082,-11.0867,-11.3107,-11.5674,-11.5967,-11.6602,-11.7285,-11.7578,-11.8993,-12.0506,-12.0506,-12.1287,-12.2117,-12.2117,-12.2117,-12.2117,-12.2117,-12.2117,-12.2117,-12.2117,-12.2117,-12.2117,-12.2117,-12.2117,-12.2117,-12.2117,-12.2117,-12.2117,-12.2117,-12.2117,-12.2117,-12.2117,-12.2117,-12.2117,-12.2117,-12.2117,-12.2434,-12.3598,-12.7124,-13.1252,-13.507,-13.9116,-14.2606,-14.5533,-14.5533,-14.5533,-14.5533,-14.5533,-14.5533,-14.5533,-14.5533,-14.5533,-14.5533,-14.5533,-14.5533,-8.3038,-8.2729,-8.3347,-8.7155,-8.789,-8.7966,-8.9637,-9.0016,-9.0016,-9.0016,-9.0282,-9.0434,-9.0054,-9.0016,-9.0016,-9.0016,-9.0016,-9.0282,-9.1117,-9.1649,-9.237,-9.3547,-9.4117,-9.4572,-9.4952,-9.499,-9.499,-9.499,-9.499,-9.4762,-9.4307,-9.3471,-9.2636,-9.1801,-9.0966,-9.0548,-9.0548,-9.0168,-9.0168,-9.0548,-9.0168,-9.0016,-9.0016,-9.0016,-9.0016,-9.0016,-9.0016,-9.0016,-9.0016,-9.0016,-9.0016,-9.0016,-9.0016,-9.2607,-9.6776,-9.8378,-10.3511,-10.9584,-11.1483,-11.3716,-11.5625,-11.5625,-11.6065,-11.6553,-11.6553,-11.8066,-11.9823,-11.9823,-12.0945,-12.2117,-12.2117,-12.2117,-12.2117,-12.2117,-12.2117,-12.2117,-12.2117,-12.2117,-12.2117,-12.2117,-12.2117,-12.2117,-12.2117,-12.2117,-12.2117,-12.2117,-12.2117,-12.2117,-12.2117,-12.2117,-12.2117,-12.2117,-12.2117,-12.2117,-12.2117,-12.5633,-12.8901,-13.1252,-13.651,-14.0844,-14.2879,-14.4673,-14.5533,-14.5533,-14.5533,-14.5533,-14.5533,-14.5533,-14.5533,-14.5533,-14.5533,-14.5533,-8.219,-8.0991,-8.2127,-8.6448,-8.7701,-8.8118,-8.9789,-9.0168,-9.0168,-9.0168,-9.0738,-9.0966,-9.0168,-9.0016,-9.0016,-9.0016,-9.0016,-9.0244,-9.0966,-9.1155,-9.1801,-9.3357,-9.3623,-9.4041,-9.4876,-9.499,-9.499,-9.499,-9.499,-9.499,-9.499,-9.4155,-9.332,-9.2522,-9.1649,-9.1231,-9.1231,-9.051,-9.051,-9.1231,-9.0624,-9.0282,-9.0168,-9.0168,-9.0092,-9.0016,-9.0016,-9.0016,-9.0016,-9.0016,-9.0016,-9.0016,-9.0016,-9.227,-9.6116,-10.0291,-10.4785,-10.8963,-11.3412,-11.5324,-11.5625,-11.5625,-11.5723,-11.5869,-11.5869,-11.7382,-11.9188,-11.9335,-12.0799,-12.2361,-12.2361,-12.2361,-12.2312,-12.2166,-12.2117,-12.2117,-12.2117,-12.2117,-12.2117,-12.2117,-12.2117,-12.2117,-12.2117,-12.2117,-12.2117,-12.2117,-12.2117,-12.2117,-12.2117,-12.2117,-12.2117,-12.2117,-12.2117,-12.2117,-12.2117,-12.5062,-12.743,-12.799,-13.4436,-13.878,-13.9676,-14.2879,-14.4941,-14.5533,-14.5533,-14.5533,-14.5533,-14.5533,-14.5533,-14.5533,-14.5533,-14.5533,-8.9224,-8.8136,-8.6688,-8.8095,-8.8574,-8.8991,-9.0624,-9.1004,-9.1004,-9.1004,-9.1117,-9.0966,-9.0168,-9.0016,-9.0016,-9.0016,-9.0016,-9.0054,-9.0206,-9.0814,-9.1573,-9.2598,-9.3282,-9.4041,-9.4876,-9.499,-9.499,-9.499,-9.499,-9.499,-9.499,-9.4155,-9.332,-9.2522,-9.1649,-9.1231,-9.1231,-9.108,-9.108,-9.1231,-9.1801,-9.1687,-9.1004,-9.1004,-9.0662,-9.0016,-9.0016,-9.0016,-9.0016,-9.0016,-9.0016,-9.0016,-9.0016,-9.0318,-9.1634,-9.5785,-10.0291,-10.4467,-10.8963,-11.2802,-11.5625,-11.5625,-11.626,-11.6992,-11.6992,-11.8505,-12.0409,-12.1336,-12.2507,-12.3532,-12.3532,-12.3532,-12.3288,-12.2361,-12.2117,-12.2117,-12.2117,-12.2117,-12.2117,-12.2117,-12.2117,-12.2117,-12.2117,-12.2117,-12.2117,-12.2117,-12.2117,-12.2117,-12.2117,-12.2117,-12.2117,-12.2117,-12.2117,-12.2117,-12.2117,-12.2702,-12.4489,-12.7685,-12.9152,-13.2974,-13.9397,-14.0289,-14.2333,-14.5533,-14.5533,-14.5533,-14.5533,-14.5533,-14.5533,-14.5533,-14.5533,-14.5533,-8.5685,-8.7094,-8.7718,-8.589,-8.6827,-8.846,-8.9675,-9.0624,-9.1345,-9.1801,-9.1877,-9.1611,-9.0776,-9.0282,-9.0016,-9.0016,-9.0016,-9.0016,-9.0016,-9.0358,-9.089,-9.1725,-9.256,-9.3395,-9.4231,-9.4724,-9.499,-9.499,-9.499,-9.499,-9.499,-9.461,-9.4003,-9.3168,-9.3168,-9.2978,-9.2522,-9.2522,-9.2294,-9.1877,-9.2294,-9.2029,-9.1231,-9.1231,-9.0776,-9.0016,-9.0016,-9.0016,-9.0016,-9.0016,-9.0016,-9.0016,-9.0016,-9.0016,-9.0658,-9.7435,-10.0939,-10.3918,-11.0856,-11.4886,-11.6602,-11.7187,-11.7724,-11.8212,-11.8798,-12.0067,-12.158,-12.2702,-12.3776,-12.4606,-12.4606,-12.4216,-12.3679,-12.3142,-12.2556,-12.2117,-12.2117,-12.2117,-12.2117,-12.2117,-12.2117,-12.2117,-12.2117,-12.2117,-12.2117,-12.2117,-12.2117,-12.2117,-12.2117,-12.2117,-12.2117,-12.2117,-12.2117,-12.2117,-12.2117,-12.2117,-12.3017,-12.4751,-12.6817,-13.0655,-13.651,-13.6796,-13.8554,-14.2606,-14.4673,-14.5533,-14.5533,-14.5533,-14.5533,-14.5533,-14.5533,-14.5533,-8.2762,-8.4885,-8.7064,-8.4316,-8.5271,-8.7397,-8.8953,-9.032,-9.1421,-9.2067,-9.2219,-9.2029,-9.1345,-9.0548,-9.0016,-9.0016,-9.0016,-9.0016,-9.0016,-9.0016,-9.032,-9.1117,-9.1953,-9.2826,-9.3623,-9.4458,-9.499,-9.499,-9.499,-9.499,-9.499,-9.499,-9.4572,-9.3737,-9.4345,-9.4307,-9.3471,-9.3623,-9.3206,-9.2219,-9.256,-9.2105,-9.0966,-9.1155,-9.0852,-9.0244,-9.0092,-9.0016,-9.0016,-9.0016,-9.0016,-9.0016,-9.0016,-9.0016,-9.0958,-9.9683,-10.2871,-10.4281,-11.3946,-11.7236,-11.7431,-11.8554,-11.8944,-11.9188,-12.0457,-12.1482,-12.2458,-12.402,-12.5045,-12.568,-12.568,-12.4899,-12.4167,-12.4411,-12.3483,-12.2507,-12.2507,-12.2312,-12.2117,-12.2117,-12.2117,-12.2117,-12.2117,-12.2117,-12.2117,-12.2117,-12.2117,-12.2117,-12.2117,-12.2117,-12.2117,-12.2117,-12.2117,-12.2117,-12.2117,-12.2117,-12.2117,-12.2117,-12.5062,-12.8598,-13.2438,-13.2733,-13.478,-13.9676,-14.2879,-14.4673,-14.5533,-14.5533,-14.5533,-14.5533,-14.5533,-14.5533,-8.8914,-8.6846,-8.4805,-8.6486,-8.6106,-8.622,-9.013,-9.1117,-9.1231,-9.1307,-9.1345,-9.1307,-9.1231,-9.0548,-9.0016,-9.0016,-9.0016,-9.0016,-9.0016,-9.0016,-9.032,-9.1117,-9.1953,-9.2826,-9.3623,-9.4458,-9.499,-9.499,-9.499,-9.499,-9.499,-9.499,-9.4572,-9.3737,-9.3775,-9.3433,-9.2598,-9.3357,-9.2902,-9.1345,-9.2864,-9.237,-9.013,-9.089,-9.1193,-9.108,-9.032,-9.0016,-9.0016,-9.0016,-9.0016,-9.0016,-9.0016,-9.0016,-9.0958,-9.9683,-10.2871,-10.4281,-11.3946,-11.7236,-11.7431,-11.8554,-11.8944,-11.9335,-12.1385,-12.2068,-12.2751,-12.5777,-12.6705,-12.6754,-12.6754,-12.5973,-12.5436,-12.6412,-12.5094,-12.3679,-12.3679,-12.2849,-12.2117,-12.2117,-12.2117,-12.2117,-12.2117,-12.2117,-12.2117,-12.2117,-12.2117,-12.2117,-12.2117,-12.2117,-12.2117,-12.2117,-12.2117,-12.2117,-12.2117,-12.2117,-12.2117,-12.2117,-12.2434,-12.4489,-12.8294,-12.8598,-13.2089,-13.9676,-13.9955,-14.2002,-14.5533,-14.5533,-14.5533,-14.5533,-14.5533,-14.5533,-7.9031,-7.9837,-8.0753,-8.0715,-8.2841,-8.5385,-8.7055,-8.8232,-8.9409,-9.0928,-9.1231,-9.1231,-9.1231,-9.0548,-9.0016,-9.0016,-9.0016,-9.0016,-9.0016,-9.0016,-9.013,-9.0434,-9.1687,-9.2636,-9.294,-9.4193,-9.499,-9.499,-9.499,-9.499,-9.499,-9.499,-9.48,-9.4496,-9.499,-9.4838,-9.4003,-9.4307,-9.3623,-9.1991,-9.2674,-9.2181,-9.0738,-9.0586,-9.051,-9.0472,-9.013,-9.0016,-9.0016,-9.0016,-9.0016,-9.0016,-9.0016,-9.0016,-9.0658,-9.6776,-10.0999,-10.4841,-11.1986,-11.6382,-11.9432,-12.0506,-12.0848,-12.1238,-12.3386,-12.4069,-12.4557,-12.7144,-12.7876,-12.7876,-12.7876,-12.7095,-12.6412,-12.6802,-12.5777,-12.4557,-12.3923,-12.3435,-12.2947,-12.2263,-12.2117,-12.2117,-12.2117,-12.2117,-12.2117,-12.2117,-12.2117,-12.2117,-12.2117,-12.2117,-12.2117,-12.2117,-12.2117,-12.2117,-12.2117,-12.2117,-12.2117,-12.2117,-12.2117,-12.2702,-12.4176,-12.6509,-13.0655,-13.6223,-13.8554,-14.1728,-14.5533,-14.5533,-14.5533,-14.5533,-14.5533,-14.5533,-7.303,-7.4944,-7.783,-7.7146,-8.0259,-8.3676,-8.4436,-8.5347,-8.6865,-8.9865,-9.0282,-9.0358,-9.108,-9.0358,-8.9713,-8.9979,-9.0016,-9.0016,-9.0016,-9.0016,-9.0016,-9.0016,-9.1459,-9.2484,-9.2484,-9.4003,-9.499,-9.499,-9.499,-9.499,-9.499,-9.499,-9.499,-9.499,-9.5559,-9.5484,-9.461,-9.4838,-9.4117,-9.2484,-9.2484,-9.2029,-9.1193,-9.0624,-9.0244,-9.0016,-9.0016,-9.0016,-9.0016,-9.0016,-9.0016,-9.0016,-9.0016,-9.0016,-9.0658,-9.4829,-9.8794,-10.3072,-11.022,-11.5112,-11.8595,-12.1312,-12.2117,-12.2507,-12.4655,-12.5289,-12.5777,-12.7925,-12.8511,-12.8511,-12.8511,-12.7974,-12.7388,-12.7388,-12.6558,-12.5582,-12.4899,-12.446,-12.3923,-12.2849,-12.2654,-12.2507,-12.2166,-12.2117,-12.2117,-12.2117,-12.2117,-12.2117,-12.2117,-12.2117,-12.2117,-12.2117,-12.2117,-12.2117,-12.2117,-12.2117,-12.2117,-12.2117,-12.2117,-12.2117,-12.2117,-12.4751,-12.799,-13.2142,-13.5936,-14.0011,-14.3807,-14.4941,-14.5533,-14.5533,-14.5533,-14.5533,-7.4487,-7.4944,-7.6653,-7.8323,-7.9424,-8.0715,-8.3183,-8.3107,-8.3714,-8.7928,-8.8156,-8.8308,-9.0776,-8.9903,-8.9067,-8.9865,-9.0016,-9.0016,-9.0016,-9.0016,-9.0016,-9.0016,-9.1459,-9.2484,-9.2484,-9.4003,-9.499,-9.499,-9.499,-9.499,-9.499,-9.499,-9.499,-9.499,-9.499,-9.4572,-9.3737,-9.4572,-9.4117,-9.2484,-9.2484,-9.2029,-9.1231,-9.1231,-9.0776,-9.0016,-9.0016,-9.0016,-9.0016,-9.0016,-9.0016,-9.0016,-9.0016,-9.0016,-9.0658,-9.4829,-9.6446,-9.8012,-10.8663,-11.2643,-11.3653,-12.0069,-12.2117,-12.2507,-12.4655,-12.5289,-12.5777,-12.7925,-12.8511,-12.8511,-12.8511,-12.8511,-12.8511,-12.8511,-12.7681,-12.69,-12.69,-12.607,-12.4996,-12.3971,-12.3776,-12.3435,-12.2312,-12.2117,-12.2117,-12.2117,-12.2117,-12.2117,-12.2117,-12.2117,-12.2117,-12.2117,-12.2117,-12.2117,-12.2117,-12.2117,-12.2117,-12.2117,-12.2117,-12.2117,-12.2117,-12.2117,-12.3863,-12.799,-13.1846,-13.5936,-13.9676,-14.375,-14.5533,-14.5533,-14.5533,-14.5533,-7.0448,-7.1907,-7.464,-7.5172,-7.726,-7.9804,-8.2309,-8.3562,-8.4549,-8.5878,-8.5954,-8.6182,-8.7587,-8.884,-8.9713,-8.9979,-9.0016,-9.0016,-9.0016,-9.0016,-9.0016,-9.0016,-9.1459,-9.2484,-9.2484,-9.4003,-9.499,-9.499,-9.499,-9.499,-9.499,-9.499,-9.499,-9.499,-9.499,-9.4838,-9.4572,-9.3699,-9.3282,-9.332,-9.275,-9.2029,-9.1231,-9.1231,-9.0776,-9.0016,-9.0016,-9.0016,-9.0016,-9.0016,-9.0016,-9.0016,-9.0016,-9.0016,-8.9979,-9.1634,-9.4265,-9.8424,-10.4851,-10.9442,-11.3513,-11.92,-12.1043,-12.1433,-12.363,-12.4264,-12.4704,-12.6802,-12.7437,-12.7583,-12.8315,-12.8511,-12.8511,-12.8511,-12.8267,-12.7827,-12.7095,-12.6656,-12.6119,-12.5045,-12.485,-12.4752,-12.4362,-12.4313,-12.4069,-12.3386,-12.3288,-12.2995,-12.2214,-12.2117,-12.2117,-12.2117,-12.2117,-12.2117,-12.2117,-12.2117,-12.2117,-12.2117,-12.2117,-12.2117,-12.2117,-12.2117,-12.3863,-12.7685,-13.1846,-13.5936,-13.9676,-14.375,-14.5533,-14.5533,-14.5533,-14.5533,-6.828,-7.054,-7.3426,-7.4033,-7.5779,-7.8171,-8.1284,-8.2082,-8.2423,-8.3373,-8.379,-8.4284,-8.5157,-8.7397,-8.9257,-8.9903,-8.9751,-8.9751,-9.0396,-9.0206,-9.013,-9.0434,-9.1649,-9.2598,-9.2902,-9.4193,-9.499,-9.499,-9.499,-9.499,-9.499,-9.499,-9.499,-9.499,-9.499,-9.499,-9.499,-9.3623,-9.3357,-9.4193,-9.3357,-9.2674,-9.2143,-9.1839,-9.1231,-9.0434,-9.013,-9.0016,-9.0016,-9.0016,-9.0016,-9.0016,-9.0016,-9.0016,-9.0016,-9.0016,-9.1944,-9.5711,-10.2221,-10.6648,-11.054,-11.7559,-12.0213,-12.0848,-12.2654,-12.3191,-12.3679,-12.6217,-12.6607,-12.6558,-12.7632,-12.8218,-12.8511,-12.8511,-12.8218,-12.7827,-12.7583,-12.7193,-12.6705,-12.607,-12.5924,-12.5777,-12.5387,-12.5289,-12.5094,-12.446,-12.4362,-12.3971,-12.2898,-12.2751,-12.2751,-12.2751,-12.2751,-12.2898,-12.3288,-12.2995,-12.2751,-12.2751,-12.2361,-12.2117,-12.2117,-12.2117,-12.3284,-12.5633,-12.9506,-13.3614,-13.765,-14.1453,-14.4077,-14.5533,-14.5533,-14.5533,-6.811,-7.0388,-7.2742,-7.4375,-7.502,-7.6273,-8.0183,-7.9234,-7.8209,-8.0411,-8.1436,-8.2234,-8.3297,-8.5423,-8.7701,-8.9675,-8.9333,-8.9371,-9.1004,-9.0624,-9.0472,-9.1231,-9.2067,-9.2864,-9.3623,-9.4458,-9.499,-9.499,-9.499,-9.499,-9.499,-9.499,-9.499,-9.499,-9.499,-9.499,-9.499,-9.4117,-9.4117,-9.4876,-9.4079,-9.3661,-9.3585,-9.2902,-9.2067,-9.1193,-9.0472,-9.013,-9.0016,-9.0054,-9.0054,-9.0016,-9.0016,-9.0016,-9.0016,-9.0016,-9.0054,-9.1489,-10.1067,-10.4308,-10.6104,-11.5927,-11.9628,-12.0604,-12.1678,-12.197,-12.2556,-12.5777,-12.5973,-12.5485,-12.6607,-12.773,-12.8511,-12.8511,-12.773,-12.729,-12.8315,-12.773,-12.7046,-12.7046,-12.7046,-12.6705,-12.5729,-12.5533,-12.5533,-12.5436,-12.5436,-12.5045,-12.4069,-12.3923,-12.3923,-12.3923,-12.3923,-12.4313,-12.524,-12.446,-12.3874,-12.3825,-12.2751,-12.2117,-12.2117,-12.2117,-12.2117,-12.2117,-12.5942,-12.9755,-13.3614,-13.765,-14.1728,-14.5266,-14.5533,-14.5533,-6.5756,-6.8186,-7.0996,-7.2666,-7.5514,-7.8133,-7.912,-7.8437,-7.7526,-7.7412,-7.7032,-7.7602,-8.0373,-8.1892,-8.4322,-8.9219,-8.9333,-8.9371,-9.1004,-9.1611,-9.1991,-9.2181,-9.2902,-9.3509,-9.3699,-9.4458,-9.499,-9.499,-9.499,-9.499,-9.499,-9.499,-9.499,-9.499,-9.499,-9.499,-9.499,-9.4117,-9.3813,-9.4003,-9.3813,-9.3357,-9.2788,-9.3206,-9.2636,-9.1231,-9.1687,-9.1193,-9.0054,-9.0662,-9.0586,-9.0016,-9.0016,-9.0016,-9.0016,-9.0016,-9.0396,-9.226,-10.1278,-10.4787,-10.7077,-11.5852,-11.9091,-11.953,-12.0555,-12.0311,-12.036,-12.363,-12.4362,-12.4606,-12.6412,-12.773,-12.8511,-12.8511,-12.8315,-12.8218,-12.8462,-12.8315,-12.812,-12.812,-12.812,-12.8071,-12.7827,-12.7778,-12.7486,-12.6656,-12.6558,-12.6168,-12.5094,-12.4948,-12.4948,-12.4948,-12.4948,-12.5045,-12.5289,-12.5094,-12.4655,-12.3874,-12.2751,-12.2117,-12.2117,-12.2117,-12.2117,-12.2117,-12.5942,-12.8294,-12.9152,-13.6455,-14.0233,-14.112,-14.4077,-14.5533,-6.5339,-6.83,-7.1186,-7.1337,-7.3919,-7.6425,-7.6425,-7.6121,-7.5552,-7.4678,-7.4451,-7.5324,-7.8361,-7.9234,-8.1095,-8.5764,-8.7473,-8.865,-8.9941,-9.1155,-9.2067,-9.2446,-9.2864,-9.3433,-9.4231,-9.4724,-9.499,-9.499,-9.499,-9.499,-9.499,-9.499,-9.499,-9.499,-9.499,-9.499,-9.499,-9.4496,-9.4307,-9.4307,-9.4307,-9.4079,-9.3623,-9.3699,-9.3206,-9.237,-9.2446,-9.1763,-9.0586,-9.1042,-9.0738,-9.0054,-9.0396,-9.0586,-9.0624,-9.1004,-9.1421,-9.3146,-10.1998,-10.531,-10.7059,-11.5948,-11.9286,-11.9774,-12.036,-12.0116,-12.0262,-12.3044,-12.3825,-12.4167,-12.5777,-12.7339,-12.8511,-12.8511,-12.812,-12.7925,-12.8413,-12.812,-12.7925,-12.8413,-12.8511,-12.8511,-12.8511,-12.8511,-12.8315,-12.773,-12.7632,-12.7242,-12.6217,-12.607,-12.607,-12.607,-12.607,-12.6265,-12.6754,-12.6314,-12.5631,-12.4557,-12.3923,-12.3142,-12.2166,-12.2117,-12.2117,-12.2117,-12.4176,-12.6251,-12.799,-13.4145,-13.7933,-13.9955,-14.375,-14.5533,-6.5453,-6.9022,-7.2021,-7.073,-7.2173,-7.3881,-7.3767,-7.3615,-7.3312,-7.2476,-7.2666,-7.3729,-7.6311,-7.6994,-7.8095,-8.1057,-8.4549,-8.7359,-8.8612,-9.0396,-9.1839,-9.2408,-9.2484,-9.3092,-9.461,-9.4762,-9.4838,-9.4952,-9.499,-9.499,-9.499,-9.499,-9.499,-9.499,-9.499,-9.499,-9.499,-9.499,-9.4914,-9.4762,-9.4914,-9.4914,-9.4762,-9.4155,-9.3851,-9.3661,-9.313,-9.2332,-9.1421,-9.1535,-9.1117,-9.0472,-9.1155,-9.1421,-9.1497,-9.2219,-9.2484,-9.3492,-10.1292,-10.5057,-10.75,-11.6234,-11.9774,-12.0506,-12.0506,-12.0409,-12.075,-12.2947,-12.3679,-12.402,-12.5045,-12.6802,-12.8315,-12.8462,-12.7827,-12.7388,-12.8315,-12.7778,-12.7437,-12.8315,-12.8511,-12.8511,-12.8511,-12.8511,-12.8511,-12.8511,-12.8511,-12.8169,-12.729,-12.7144,-12.7144,-12.7144,-12.7144,-12.7437,-12.8218,-12.7583,-12.6607,-12.5387,-12.4996,-12.4069,-12.2458,-12.2214,-12.2117,-12.2117,-12.2117,-12.3598,-12.7124,-13.0954,-13.507,-13.8835,-14.2879,-14.4941,-6.4048,-6.7731,-7.1565,-7.2021,-7.3463,-7.4602,-7.3881,-7.3198,-7.2438,-7.1641,-7.0426,-7.0312,-7.2818,-7.4413,-7.5779,-7.6956,-8.1171,-8.5347,-8.8346,-9.1421,-9.313,-9.256,-9.2484,-9.2864,-9.3813,-9.3889,-9.4193,-9.4914,-9.499,-9.499,-9.499,-9.499,-9.499,-9.499,-9.499,-9.499,-9.499,-9.499,-9.461,-9.3927,-9.461,-9.461,-9.3927,-9.4496,-9.4383,-9.3737,-9.4345,-9.3699,-9.2332,-9.3054,-9.2826,-9.2143,-9.2256,-9.2294,-9.2332,-9.2446,-9.2484,-9.291,-9.4961,-10.1075,-10.9396,-11.7568,-12.0409,-12.0506,-12.0506,-11.9872,-11.9628,-12.1775,-12.3093,-12.402,-12.5045,-12.6217,-12.7388,-12.8267,-12.8364,-12.8315,-12.8462,-12.8364,-12.8315,-12.8462,-12.8511,-12.8511,-12.8511,-12.8511,-12.8511,-12.8511,-12.8511,-12.8462,-12.8267,-12.8267,-12.8267,-12.8267,-12.8267,-12.7974,-12.7193,-12.7827,-12.7437,-12.5436,-12.363,-12.2898,-12.3532,-12.2654,-12.2117,-12.2117,-12.2117,-12.2434,-12.3017,-12.6817,-13.0954,-13.478,-13.8835,-14.2333,-6.4845,-6.8756,-7.2704,-7.3084,-7.4071,-7.4754,-7.3919,-7.3426,-7.2818,-7.1527,-7.0692,-7.0502,-7.1641,-7.2818,-7.4527,-7.7146,-7.9918,-8.3373,-8.8118,-9.0852,-9.2408,-9.2484,-9.2484,-9.2978,-9.4269,-9.4383,-9.4572,-9.4952,-9.499,-9.499,-9.499,-9.499,-9.499,-9.499,-9.499,-9.499,-9.499,-9.4496,-9.4079,-9.3699,-9.3661,-9.3661,-9.3737,-9.4117,-9.4345,-9.4421,-9.48,-9.4269,-9.313,-9.3092,-9.2826,-9.2484,-9.2484,-9.275,-9.3206,-9.3661,-9.3813,-9.3889,-9.4269,-9.91,-10.6494,-11.4774,-11.9337,-12.1385,-12.1385,-12.1043,-12.0848,-12.1873,-12.3337,-12.4752,-12.5192,-12.6558,-12.7876,-12.8413,-12.8511,-12.8511,-12.8511,-12.8511,-12.8511,-12.8511,-12.8511,-12.8511,-12.8511,-12.8511,-12.8511,-12.8511,-12.8511,-12.8511,-12.8511,-12.8511,-12.8511,-12.8511,-12.7974,-12.7437,-12.6949,-12.6851,-12.5875,-12.3727,-12.3239,-12.2995,-12.2898,-12.241,-12.2117,-12.2117,-12.2117,-12.2117,-12.2117,-12.5942,-13.0055,-13.3907,-13.7933,-14.1728,-6.811,0.0,-7.5552,-7.5741,-7.6121,-7.6235,0.0,-7.4716,-7.3843,-7.2211,-7.1375,-7.1034,-7.1261,-7.1793,-7.3463,-7.726,-7.8779,-8.136,-8.6827,-8.884,-9.0358,-9.1991,-9.2029,-9.2636,-9.4496,-9.4496,-9.4572,-9.4952,-9.499,-9.499,-9.499,-9.499,-9.499,-9.499,-9.499,-9.499,-9.499,-9.4117,-9.3623,-9.3395,-9.2788,-9.2902,-9.3699,-9.3699,-9.4269,-9.5256,-9.4838,-9.4421,-9.3927,-9.3092,-9.2902,-9.3092,-9.3092,-9.3433,-9.4079,-9.4724,-9.499,-9.499,-9.499,-9.8753,-10.4522,-11.0261,-11.5984,-12.0746,-12.1799,-12.2117,-12.2117,-12.2117,-12.3288,-12.4655,-12.5192,-12.6509,-12.7876,-12.8413,-12.8511,-12.8511,-12.8511,-12.8511,-12.8511,-12.8511,-12.8511,-12.8511,-12.8511,-12.8511,-12.8511,-12.8511,-12.8511,-12.8511,-12.8511,-12.8511,-12.8511,-12.8511,-12.7534,-12.6802,-12.6558,-12.5338,-12.3971,-12.2605,-12.3093,-12.3142,-12.2556,-12.2263,-12.2117,-12.2117,-12.2117,-12.2117,-12.2117,-12.5062,-12.8598,-13.2733,-13.651,-14.0567,0.0,-7.8703,-8.0905,-8.1664,-8.1322,-8.0601,-7.9766,-7.7754,0.0,-7.3881,-7.1717,-7.035,-7.1148,-7.1337,-7.2211,-7.483,-7.6653,-7.9234,-8.3486,-8.4853,-8.6865,-9.0852,-9.0624,-9.1155,-9.3547,-9.3092,-9.332,-9.4876,-9.499,-9.499,-9.499,-9.499,-9.499,-9.499,-9.499,-9.499,-9.499,-9.4117,-9.332,-9.256,-9.2522,-9.2902,-9.3699,-9.3699,-9.461,-9.6091,-9.4496,-9.4231,-9.48,-9.3965,-9.4079,-9.48,-9.48,-9.4838,-9.4876,-9.4952,-9.499,-9.499,-9.499,-10.0783,-10.7602,-10.3832,-10.8576,-11.6636,-12.0746,-12.2117,-12.2117,-12.2117,-12.2263,-12.28,-12.4801,-12.5436,-12.607,-12.8023,-12.8511,-12.8511,-12.8511,-12.8511,-12.8511,-12.8511,-12.8511,-12.8511,-12.8511,-12.8511,-12.8511,-12.8511,-12.8511,-12.8511,-12.8511,-12.8511,-12.8511,-12.8511,-12.7534,-12.6509,-12.5485,-12.3532,-12.2751,-12.363,-12.28,-12.2702,-12.363,-12.2702,-12.2117,-12.2117,-12.2117,-12.2117,-12.2117,-12.2434,-12.4489,-12.8294,-13.2438,-13.651,-7.95,-8.2044,-8.3524,-8.3297,-8.2234,-8.1057,-8.0221,-7.8057,-7.5741,-7.4071,-7.297,-7.2097,-7.1413,-7.2097,-7.3805,-7.6842,-7.8323,-8.0373,-8.398,-8.5688,-8.7131,-8.8726,-9.0472,-9.2105,-9.3547,-9.3889,-9.4307,-9.4914,-9.499,-9.499,-9.499,-9.499,-9.499,-9.499,-9.499,-9.4724,-9.4193,-9.3357,-9.2522,-9.1687,-9.1193,-9.1649,-9.2978,-9.3471,-9.4345,-9.5446,-9.537,-9.518,0.0,-9.4041,-9.4193,-9.4914,-9.4383,-9.4496,-9.499,-9.499,-9.499,-9.499,-9.499,-9.7024,-9.9708,-10.1279,-10.3759,-10.7413,-11.5471,-11.9736,-12.2117,-12.2117,-12.2654,-12.3483,-12.4948,-12.5826,-12.6705,-12.8169,-12.8511,-12.8511,-12.8511,-12.8511,-12.8511,-12.8511,-12.8511,-12.8511,-12.8511,-12.8511,-12.8511,-12.8511,-12.8511,-12.8511,-12.8511,-12.8511,-12.8511,-12.8511,-12.6949,-12.5729,-12.5338,-12.402,-12.3044,-12.28,-12.2361,-12.2654,-12.3776,-12.2751,-12.2458,-12.3142,-12.2458,-12.2117,-12.2117,-12.2117,-12.4176,-12.799,-13.2142,-13.5936,-8.2727,-8.4701,-8.603,-8.5461,-8.3866,-8.2196,-8.1398,-7.9044,-7.6387,-7.4185,-7.3729,-7.3312,-7.1907,-7.278,-7.4754,-7.7867,-7.9082,-8.0867,-8.4436,-8.622,-8.7435,-8.8194,-9.0548,-9.2219,-9.2522,-9.3547,-9.4421,-9.4914,-9.499,-9.499,-9.499,-9.499,-9.499,-9.499,-9.4724,-9.4307,-9.3699,-9.2636,-9.1801,-9.1231,-9.0662,-9.1269,-9.2902,-9.3168,-9.4231,-9.5787,-9.5559,-9.5446,-9.5332,-9.4458,-9.4458,-9.4914,-9.4345,-9.4458,-9.499,-9.499,-9.499,-9.499,-9.499,-9.545,-9.6206,-9.8788,-10.1871,-10.5972,-11.1619,-11.5329,-11.84,-12.1113,-12.2947,-12.402,-12.5045,-12.6119,-12.7193,-12.8267,-12.8511,-12.8511,-12.8511,-12.8511,-12.8511,-12.8511,-12.8511,-12.8511,-12.8511,-12.8511,-12.8511,-12.8511,-12.8511,-12.8511,-12.8511,-12.8511,-12.8511,-12.8511,-12.69,-12.568,-12.5338,-12.4069,-12.3093,-12.2702,-12.2312,-12.2654,-12.3776,-12.3044,-12.3191,-12.4264,-12.3532,-12.3142,-12.3142,-12.3142,-12.4488,-12.6808,-12.9469,-13.3401,-8.4739,-8.6827,-8.8764,-8.8802,-8.6865,-8.4739,-8.3942,-8.1171,-7.7792,-7.4413,-7.3729,-7.3463,-7.2666,-7.3198,-7.4564,-7.7146,-7.8247,-8.0259,-8.436,-8.5726,-8.7245,-8.9675,-9.07,-9.089,-9.0092,-9.1535,-9.3168,-9.4838,-9.499,-9.499,-9.499,-9.499,-9.499,-9.499,-9.4155,-9.3699,-9.3699,-9.2067,-9.1231,-9.1193,-9.1231,-9.2105,-9.3661,-9.2864,-9.4345,-9.7382,-9.4838,-9.4724,-9.6205,-9.5332,-9.499,-9.499,-9.499,-9.499,-9.4952,-9.4952,-9.4952,-9.4952,-9.4952,-9.7456,-9.9917,-9.6037,-10.3509,-11.3339,-10.9661,-10.8576,-11.0596,-11.9415,-12.2947,-12.402,-12.5045,-12.6119,-12.7193,-12.8267,-12.8511,-12.8511,-12.8511,-12.8511,-12.8511,-12.8511,-12.8511,-12.8511,-12.8511,-12.8511,-12.8511,-12.8511,-12.8511,-12.8511,-12.8511,-12.8511,-12.8511,-12.8511,-12.7534,-12.6461,-12.5387,-12.3386,-12.2605,-12.3727,-12.2751,-12.2654,-12.3776,-12.3825,-12.4264,-12.5289,-12.5289,-12.5289,-12.5289,-12.5289,-12.4801,-12.3825,-12.3825,-12.7364,-8.5499,-8.6865,-8.8042,-8.865,-8.6865,-8.4739,-8.3942,-8.1171,-7.7792,-7.4413,-7.4185,-7.4185,-7.278,-7.4109,-7.5931,-7.7336,-7.969,-8.1816,-8.3031,-8.5992,-8.8118,-8.8232,-8.9485,-9.051,-9.0852,-9.1839,-9.3168,-9.4838,-9.499,-9.499,-9.499,-9.499,-9.499,-9.499,-9.4724,-9.4041,-9.2864,-9.237,-9.1535,-9.0358,-9.0928,-9.1801,-9.2864,-9.3813,-9.48,-9.5749,-9.6205,-9.6357,-9.6243,-9.5977,-9.5901,-9.5825,-9.5218,-9.461,-9.4079,-9.4079,-9.3737,-9.3206,-9.3206,-9.3684,-9.3839,-9.3939,-9.6204,-10.001,-10.5929,-10.9908,-11.3753,-12.0233,-12.2947,-12.3874,-12.4167,-12.5582,-12.7193,-12.8267,-12.8511,-12.8511,-12.8511,-12.8511,-12.8511,-12.8511,-12.8511,-12.8511,-12.8511,-12.8511,-12.8511,-12.8511,-12.8511,-12.8511,-12.8511,-12.8511,-12.8218,-12.7486,-12.7095,-12.6461,-12.5387,-12.4069,-12.3142,-12.2654,-12.2312,-12.2947,-12.4801,-12.4167,-12.4655,-12.6412,-12.568,-12.5289,-12.5289,-12.5289,-12.5143,-12.485,-12.4167,-12.6299,-8.5385,-8.6638,-8.7663,-8.8156,-8.6865,-8.5081,-8.3562,-8.1171,-7.8209,-7.4489,-7.4413,-7.4678,-7.3691,-7.4982,-7.6804,-7.8703,-8.1246,-8.3448,-8.4815,-8.7473,-8.9181,-8.9029,-8.9599,-9.0206,-9.07,-9.1497,-9.2408,-9.3395,-9.4079,-9.4458,-9.4458,-9.4458,-9.461,-9.4952,-9.4648,-9.4003,-9.2978,-9.2636,-9.1801,-9.051,-9.1649,-9.2294,-9.2522,-9.3851,-9.4838,-9.5522,-9.6205,-9.6433,-9.6281,-9.6623,-9.6167,-9.5256,-9.5028,-9.4269,-9.3206,-9.3206,-9.2902,-9.2484,-9.2484,-9.1915,-9.1459,-9.2788,-9.2674,-9.3455,-10.1625,-10.7499,-11.2596,-11.7594,-12.0939,-12.3337,-12.4167,-12.5338,-12.6656,-12.8169,-12.8511,-12.8511,-12.8511,-12.8511,-12.8511,-12.8511,-12.8511,-12.8511,-12.8511,-12.8511,-12.8511,-12.8511,-12.8511,-12.8511,-12.8511,-12.8511,-12.8267,-12.7632,-12.7193,-12.6461,-12.5387,-12.4411,-12.3532,-12.2849,-12.2361,-12.3093,-12.524,-12.4752,-12.5387,-12.7486,-12.69,-12.6607,-12.6607,-12.6607,-12.6363,-12.5924,-12.4899,-12.5404,-8.4701,-8.6144,-8.7435,-8.7511,-8.6979,-8.5726,-8.3069,-8.1284,-7.8931,-7.4602,-7.4413,-7.4944,-7.4868,-7.5779,-7.7564,-8.0753,-8.2917,-8.5271,-8.8346,-8.9561,-9.0358,-9.1042,-9.0472,-9.0016,-9.0016,-9.0738,-9.1231,-9.1231,-9.2674,-9.3547,-9.3471,-9.3547,-9.4003,-9.4838,-9.4117,-9.3699,-9.3699,-9.2902,-9.2105,-9.1345,-9.2864,-9.3244,-9.2636,-9.3433,-9.4686,-9.6129,-9.5408,-9.5522,-9.6357,-9.7192,-9.6129,-9.4003,-9.4724,-9.3965,-9.2484,-9.2408,-9.2332,-9.2256,-9.2256,-9.1763,-9.1231,-9.2105,-9.2148,-9.2607,-9.8175,-10.3645,-10.8669,-11.3572,-11.8378,-12.2751,-12.4655,-12.524,-12.5826,-12.7778,-12.8267,-12.8364,-12.8511,-12.8511,-12.8511,-12.8511,-12.8511,-12.8511,-12.8511,-12.8511,-12.8511,-12.8511,-12.8511,-12.8511,-12.8511,-12.8511,-12.8511,-12.8511,-12.7486,-12.6363,-12.5387,-12.4313,-12.3679,-12.3679,-12.2702,-12.3044,-12.5094,-12.524,-12.6265,-12.8315,-12.8462,-12.8511,-12.8511,-12.8511,-12.8023,-12.7046,-12.5973,-12.4948,-8.4549,-8.5726,-8.6713,-8.7359,-8.7397,-8.641,-8.3221,-8.1702,-7.9614,-7.4716,-7.4413,-7.4792,-7.4109,-7.6842,-7.9652,-8.1019,-8.4891,-8.7966,-8.8688,-9.0054,-9.0776,-9.032,-9.013,-9.0016,-9.0016,-9.0738,-9.1231,-9.1231,-9.2181,-9.2446,-9.1801,-9.237,-9.313,-9.3965,-9.3813,-9.3699,-9.3699,-9.2902,-9.2408,-9.2219,-9.256,-9.3016,-9.3471,-9.4307,-9.4914,-9.5294,-9.5787,-9.6091,-9.6357,-9.7192,-9.6812,-9.5673,-9.518,-9.3965,-9.2408,-9.1725,-9.108,-9.0548,-9.0548,-9.0434,-9.0396,-9.1231,-9.3205,-9.6392,-10.2915,-10.7846,-11.2604,-11.8603,-12.1918,-12.3532,-12.402,-12.4704,-12.5436,-12.5875,-12.6656,-12.7486,-12.8315,-12.8511,-12.8511,-12.8511,-12.8511,-12.8511,-12.8511,-12.8511,-12.8511,-12.8511,-12.8511,-12.8511,-12.8511,-12.8511,-12.8511,-12.8511,-12.6802,-12.5582,-12.5338,-12.3581,-12.2458,-12.2458,-12.2263,-12.2751,-12.4069,-12.4899,-12.5924,-12.7242,-12.8071,-12.8511,-12.8511,-12.8511,-12.8413,-12.8169,-12.7095,-12.6021,-8.5043,-8.622,-8.7093,-8.7928,-8.8118,-8.7473,-8.4891,-8.3638,-8.1702,-7.707,-7.8174,-7.9075,-7.5494,-7.9102,-8.2986,-8.3001,-8.6258,-8.9067,-8.9865,-9.1042,-9.1383,-9.013,-9.0016,-9.0016,-9.0016,-9.0396,-9.0624,-9.0624,-9.1042,-9.1117,-9.0662,-9.1421,-9.2256,-9.3092,-9.3509,-9.3699,-9.3699,-9.3699,-9.3471,-9.3092,-9.3092,-9.3282,-9.3737,-9.4155,-9.461,-9.499,-9.5446,-9.5635,-9.5711,-9.6585,-9.6167,-9.5028,-9.499,-9.3699,-9.1839,-9.1383,-9.07,-9.0016,-9.0016,-9.0016,-9.0547,-9.4053,-9.6473,-9.8877,-10.4409,-10.9329,-11.3938,-11.731,-12.0474,-12.3142,-12.3679,-12.4216,-12.4704,-12.5192,-12.5729,-12.6314,-12.6851,-12.7388,-12.7876,-12.8413,-12.8071,-12.7925,-12.8413,-12.8071,-12.7925,-12.8413,-12.8511,-12.8511,-12.8511,-12.7632,-12.6998,-12.6998,-12.5973,-12.5289,-12.5289,-12.4313,-12.3435,-12.2947,-12.2947,-12.3191,-12.3776,-12.4801,-12.5826,-12.69,-12.7974,-12.8511,-12.8511,-12.8511,-12.8511,-12.8462,-12.7388,-12.6607,-8.5233,-8.6562,-8.7511,-8.8346,-8.8574,-8.8156,-8.6638,-8.5612,-8.3866,-7.9994,-8.2188,-8.3015,-7.7614,-8.1364,-8.5403,-8.5073,-8.7245,-8.9523,-9.1004,-9.1687,-9.1535,-9.0168,-9.0016,-9.0016,-9.0016,-9.0016,-9.0016,-9.0016,-9.0016,-9.0016,-9.0016,-9.0662,-9.1345,-9.2029,-9.2978,-9.3623,-9.3927,-9.4496,-9.4458,-9.3927,-9.3775,-9.3775,-9.3927,-9.3927,-9.4307,-9.499,-9.499,-9.499,-9.5028,-9.5901,-9.5332,-9.4003,-9.4686,-9.3623,-9.1649,-9.1497,-9.1004,-9.0434,-9.0434,-9.0434,-9.1308,-9.6353,-9.9139,-10.1167,-10.5258,-11.0475,-11.5187,-11.5374,-11.8746,-12.2361,-12.3288,-12.3532,-12.3727,-12.4557,-12.4899,-12.5045,-12.5045,-12.5875,-12.6949,-12.8023,-12.7388,-12.6998,-12.8071,-12.7339,-12.6949,-12.7827,-12.7974,-12.7974,-12.7974,-12.6412,-12.5387,-12.5582,-12.5436,-12.5387,-12.5582,-12.5436,-12.4948,-12.4118,-12.4069,-12.4069,-12.4069,-12.5045,-12.6021,-12.69,-12.7974,-12.8511,-12.8511,-12.8511,-12.8511,-12.8511,-12.7583,-12.7095,-8.379,-8.5233,-8.6676,-8.7473,-8.7701,-8.7435,-8.6524,-8.5612,-8.4208,-8.1474,-8.0715,-8.0253,-7.8627,-8.1363,-8.4231,-8.4777,-8.7701,-9.0168,-9.108,-9.07,-9.0244,-9.0016,-9.0016,-9.0016,-9.0016,-9.0016,-9.0016,-9.0016,-9.0016,-9.0016,-9.0016,-9.0092,-9.0206,-9.032,-9.1839,-9.3357,-9.48,-9.4193,-9.4193,-9.48,-9.4041,-9.4079,-9.48,-9.48,-9.4876,-9.499,-9.499,-9.499,-9.5028,-9.5901,-9.5711,-9.48,-9.4914,-9.4307,-9.3282,-9.2598,-9.2256,-9.2181,-9.2181,-9.2181,-9.2181,-9.3068,-9.8459,-10.5215,-10.666,-11.3017,-11.9709,-12.0629,-12.1653,-12.2166,-12.2312,-12.2361,-12.2361,-12.2507,-12.3288,-12.402,-12.402,-12.4801,-12.5826,-12.69,-12.6265,-12.5875,-12.6949,-12.6217,-12.5582,-12.5729,-12.5729,-12.5729,-12.5729,-12.5485,-12.568,-12.6607,-12.5875,-12.568,-12.6607,-12.5826,-12.524,-12.5143,-12.5094,-12.5094,-12.5094,-12.6119,-12.6754,-12.69,-12.7974,-12.8511,-12.8511,-12.8511,-12.8511,-12.8511,-12.8364,-12.7778,-8.3942,-8.5347,-8.6486,-8.7321,-8.7511,-8.7435,-8.7055,-8.6676,-8.5688,-8.3183,-8.4518,-8.4818,-8.0181,-8.3974,-8.7171,-8.5898,-8.8498,-9.0814,-9.1155,-9.1307,-9.1042,-9.013,-9.0016,-9.0016,-9.0016,-9.0016,-9.0016,-9.0016,-9.0016,-9.0016,-9.0016,-9.0016,-9.0016,-9.0016,-9.07,-9.1877,-9.3547,-9.3661,-9.3889,-9.4231,-9.3433,-9.3471,-9.4269,-9.4269,-9.4534,-9.499,-9.499,-9.499,-9.499,-9.537,-9.5332,-9.499,-9.499,-9.4458,-9.3661,-9.332,-9.2902,-9.2484,-9.2484,-9.3092,-9.4205,-9.6946,-10.0303,-10.4749,-11.013,-11.4636,-11.8105,-12.1286,-12.2117,-12.2117,-12.2117,-12.2117,-12.2117,-12.2117,-12.2507,-12.2849,-12.2849,-12.3727,-12.4606,-12.5094,-12.4801,-12.4801,-12.5826,-12.5143,-12.4655,-12.524,-12.5289,-12.5094,-12.4557,-12.446,-12.485,-12.5924,-12.5582,-12.5729,-12.6802,-12.6461,-12.6217,-12.6217,-12.6217,-12.5924,-12.5338,-12.6363,-12.69,-12.69,-12.7974,-12.8511,-12.8511,-12.8511,-12.8511,-12.8511,-12.8511,-12.8267,-8.2803,-8.4018,-8.5043,-8.6524,-8.6713,-8.6713,-8.7397,-8.7359,-8.6676,-8.4777,-8.7171,-8.7486,-8.2051,-8.5567,-8.8672,-8.6794,-8.8536,-9.0358,-9.0586,-9.0966,-9.0776,-8.9523,-8.9561,-8.9713,-8.9713,-8.9865,-9.0016,-9.0016,-9.0016,-9.0016,-9.0016,-9.0016,-9.0016,-9.0016,-9.0206,-9.0928,-9.2143,-9.2978,-9.3395,-9.3395,-9.2788,-9.2902,-9.3699,-9.3699,-9.4155,-9.499,-9.499,-9.499,-9.499,-9.499,-9.499,-9.499,-9.499,-9.4572,-9.4041,-9.4041,-9.3623,-9.313,-9.313,-9.3927,-9.5669,-9.9066,-10.0783,-10.3181,-11.1266,-11.4297,-11.631,-12.0746,-12.2117,-12.2117,-12.2117,-12.2117,-12.2117,-12.2117,-12.2117,-12.2117,-12.2117,-12.28,-12.3386,-12.3386,-12.3581,-12.3971,-12.4411,-12.3874,-12.363,-12.4411,-12.4508,-12.4313,-12.3874,-12.402,-12.4606,-12.5631,-12.5729,-12.6168,-12.7242,-12.729,-12.729,-12.729,-12.729,-12.6949,-12.6168,-12.69,-12.729,-12.729,-12.812,-12.8511,-12.8511,-12.8511,-12.8511,-12.8511,-12.8511,-12.8511,-7.8855,-7.969,-8.1133,-8.4284,-8.4511,-8.4549,-8.6979,-8.6903,-8.6334,-8.622,-8.5821,-8.4983,-8.3714,-8.464,-8.5555,-8.6144,-8.7093,-8.8004,-8.8802,-8.827,-8.7739,-8.7663,-8.8346,-8.884,-8.884,-8.9561,-9.0016,-9.0016,-9.0016,-9.0016,-9.0016,-9.0016,-9.0016,-9.0016,-9.0776,-9.1193,-9.1307,-9.2143,-9.256,-9.256,-9.2522,-9.2902,-9.3699,-9.3699,-9.4155,-9.499,-9.499,-9.499,-9.499,-9.499,-9.499,-9.499,-9.499,-9.4952,-9.4914,-9.4914,-9.4876,-9.4838,-9.4838,-9.4914,-9.499,-9.5311,-9.8399,-10.2834,-10.7602,-11.1933,-11.631,-12.0746,-12.2117,-12.2117,-12.2117,-12.2117,-12.2117,-12.2117,-12.2117,-12.2117,-12.2117,-12.2166,-12.2214,-12.2214,-12.3093,-12.3483,-12.2458,-12.2263,-12.2214,-12.2263,-12.2312,-12.2654,-12.3679,-12.4655,-12.5631,-12.6705,-12.6851,-12.729,-12.8315,-12.8413,-12.8413,-12.8413,-12.8413,-12.8413,-12.8364,-12.8413,-12.8413,-12.8413,-12.8462,-12.8511,-12.8511,-12.8511,-12.8511,-12.8511,-12.8511,-12.8511,-7.8399,-7.9386,-8.0297,-8.1512,-8.1968,-8.2234,-8.2613,-8.2499,-8.2272,-8.2272,-8.2423,-8.2499,-8.2196,-8.3259,-8.4284,-8.4625,-8.6258,-8.7435,-8.7245,-8.7852,-8.8346,-8.8346,-8.8612,-8.8991,-8.9523,-8.9371,-8.9447,-8.9979,-9.0016,-9.0016,-9.0016,-9.0016,-9.0016,-9.0016,-9.0282,-9.07,-9.1231,-9.1535,-9.1687,-9.1687,-9.1687,-9.1839,-9.2143,-9.2674,-9.3092,-9.3395,-9.3927,-9.4155,-9.4193,-9.4762,-9.499,-9.499,-9.499,-9.499,-9.499,-9.499,-9.499,-9.4876,-9.4345,-9.4155,-9.4155,-9.4155,-9.7221,-10.1845,-10.5627,-11.0615,-11.617,-11.9924,-12.158,-12.2117,-12.2117,-12.2117,-12.2117,-12.2117,-12.2117,-12.2117,-12.2117,-12.2117,-12.2117,-12.2117,-12.2458,-12.2605,-12.2214,-12.2117,-12.2117,-12.2117,-12.2751,-12.3825,-12.5582,-12.6119,-12.6754,-12.7827,-12.7925,-12.8071,-12.8462,-12.8511,-12.8511,-12.8511,-12.8511,-12.8511,-12.8511,-12.7876,-12.7486,-12.7486,-12.6802,-12.6461,-12.6461,-12.7144,-12.7486,-12.7486,-12.8169,-12.8511,-7.7646,-7.8694,-7.9587,-7.9295,-7.9824,-7.988,-7.931,-7.9196,-7.9272,-7.9538,-8.0032,-8.0525,-8.0791,-8.1968,-8.2993,-8.3259,-8.4739,-8.584,-8.584,-8.6562,-8.7321,-8.789,-8.7966,-8.8384,-8.9485,-8.9599,-8.9713,-8.9979,-9.0244,-9.0282,-9.0016,-9.0016,-9.0016,-9.0016,-9.0016,-9.0244,-9.0814,-9.0814,-9.0814,-9.0814,-9.0814,-9.0814,-9.0852,-9.1687,-9.2219,-9.2522,-9.3054,-9.3282,-9.3357,-9.3889,-9.4117,-9.4117,-9.4117,-9.4117,-9.4117,-9.4117,-9.4117,-9.4041,-9.3509,-9.3282,-9.3282,-9.3282,-9.5311,-9.8541,-10.2301,-10.6616,-11.081,-11.4492,-11.7154,-11.9,-11.9,-12.0048,-12.1043,-12.1043,-12.1043,-12.1043,-12.1043,-12.1336,-12.158,-12.158,-12.1873,-12.2117,-12.2117,-12.2117,-12.2117,-12.2117,-12.3093,-12.4557,-12.6656,-12.7242,-12.773,-12.8413,-12.8511,-12.8511,-12.8511,-12.8511,-12.8511,-12.8511,-12.8169,-12.7974,-12.7974,-12.6949,-12.6363,-12.6363,-12.568,-12.5289,-12.5289,-12.6021,-12.6363,-12.6412,-12.7095,-12.7437,-7.6093,-7.7065,-7.8321,-7.7819,-7.7628,-7.7298,-7.7298,-7.7298,-7.7564,-7.8399,-7.8589,-7.8893,-7.9728,-8.0563,-8.136,-8.2196,-8.2347,-8.2955,-8.4587,-8.417,-8.436,-8.6106,-8.6334,-8.6979,-8.865,-9.0244,-9.0814,-9.0016,-9.0738,-9.0852,-9.0016,-9.0016,-9.0016,-9.0016,-9.0016,-9.0016,-9.0016,-9.0016,-9.0016,-9.0016,-9.0016,-9.0016,-9.0016,-9.0814,-9.1649,-9.2408,-9.2446,-9.2446,-9.2446,-9.2484,-9.2484,-9.2484,-9.2484,-9.2484,-9.2484,-9.2446,-9.2446,-9.2446,-9.2446,-9.2446,-9.2446,-9.2446,-9.2446,-9.3454,-9.7737,-9.9437,-10.0452,-10.4999,-10.9294,-11.2643,-11.2643,-11.5948,-11.8944,-11.8944,-11.8944,-11.8944,-11.8944,-11.9725,-12.0506,-12.0506,-12.1336,-12.2117,-12.2117,-12.2166,-12.2214,-12.2214,-12.3142,-12.4557,-12.6558,-12.7778,-12.8413,-12.8462,-12.8462,-12.8462,-12.8462,-12.8413,-12.8413,-12.8413,-12.7437,-12.6851,-12.6851,-12.5826,-12.5289,-12.5289,-12.524,-12.5192,-12.5192,-12.524,-12.5289,-12.5289,-12.5289,-12.5289,-7.5727,-7.3754,-7.2153,-7.4416,-7.3436,-7.1945,-7.1337,-7.1679,-7.2514,-7.3919,-7.4716,-7.5362,-7.6235,-7.7032,-7.7867,-7.8779,-7.9918,-8.0867,-8.1322,-8.2765,-8.436,-8.6106,-8.6827,-8.7852,-8.9523,-8.9523,-8.9371,-8.9143,-9.0434,-9.0624,-8.9181,-9.0244,-9.0624,-9.0016,-9.0016,-9.0016,-9.0016,-9.0016,-9.0016,-9.0016,-9.0016,-9.0016,-9.0016,-9.0244,-9.0472,-9.0738,-9.1307,-9.1573,-9.1611,-9.2219,-9.2484,-9.2484,-9.2484,-9.2484,-9.2332,-9.1117,-9.1042,-9.1573,-9.1573,-9.1573,-9.1573,-9.1573,-9.3907,-9.6731,-9.7051,-10.0376,-10.4912,-10.8438,-11.1041,-11.328,-11.6261,-11.7917,-11.8944,-11.8944,-11.8944,-11.8944,-11.8944,-11.9188,-11.9384,-11.9384,-12.0213,-12.1189,-12.2019,-12.28,-12.3581,-12.4313,-12.4069,-12.402,-12.4606,-12.5582,-12.6509,-12.729,-12.7339,-12.7339,-12.7339,-12.6656,-12.6217,-12.6217,-12.5924,-12.5777,-12.5777,-12.4752,-12.4216,-12.4216,-12.3435,-12.2995,-12.2995,-12.3825,-12.4216,-12.4264,-12.4996,-12.5289,-7.1953,-6.9408,-6.7126,-6.8719,-6.8243,-6.7839,-6.9416,-6.9242,-6.961,-7.267,-7.2605,-7.2552,-7.3729,-7.4602,-7.5438,-7.6349,-7.7564,-7.8817,-7.988,-8.1284,-8.3221,-8.5992,-8.6713,-8.7663,-8.9333,-8.9371,-8.9295,-8.9295,-9.051,-9.0662,-8.9371,-9.0206,-9.0662,-9.051,-9.051,-9.07,-9.1042,-9.07,-9.051,-9.051,-9.0168,-9.0016,-9.0016,-9.0016,-9.0016,-9.0016,-9.051,-9.07,-9.0738,-9.1231,-9.1459,-9.1459,-9.1459,-9.1459,-9.1345,-9.0358,-9.032,-9.07,-9.07,-9.07,-9.07,-9.07,-9.2331,-9.4543,-9.4027,-9.6514,-9.9835,-10.1552,-10.5061,-10.9081,-11.1707,-11.4923,-11.7578,-11.7578,-11.7578,-11.7578,-11.7578,-11.7919,-11.8212,-11.8212,-11.9481,-12.0701,-12.1336,-12.2361,-12.3581,-12.5094,-12.4801,-12.446,-12.446,-12.4948,-12.5533,-12.6168,-12.6265,-12.6265,-12.6265,-12.568,-12.5289,-12.5289,-12.4899,-12.4704,-12.4704,-12.3679,-12.3093,-12.3093,-12.2458,-12.2117,-12.2117,-12.28,-12.3093,-12.3142,-12.3679,-12.3971,-6.5459,-6.4482,-6.3743,-6.3112,-6.2665,-6.3676,0.0,-6.7665,-6.7398,-7.2122,-7.0963,-6.9739,-7.1451,-7.2476,-7.3388,-7.4527,-7.5476,-7.688,-7.9272,-7.9918,-8.1626,-8.5537,-8.603,-8.6713,-8.846,-8.9295,-8.9713,-8.9713,-9.0586,-9.0738,-8.9903,-9.0054,-9.0434,-9.108,-9.1193,-9.1573,-9.2332,-9.1687,-9.1345,-9.1345,-9.0624,-9.0282,-9.0282,-9.0168,-9.013,-9.013,-9.0054,-9.0016,-9.0016,-9.0016,-9.0016,-9.0016,-9.0016,-9.0016,-9.0016,-9.0016,-9.0016,-9.0016,-9.0016,-9.0016,-9.0016,-9.0016,-9.0016,-9.0016,-9.0016,-9.0016,-9.0318,-9.1297,-9.7106,-10.3235,-10.4281,-11.008,-11.5869,-11.5967,-11.6016,-11.6016,-11.6016,-11.6748,-11.7431,-11.7431,-11.9091,-12.0555,-12.0701,-12.158,-12.2898,-12.4704,-12.4948,-12.4948,-12.4948,-12.4948,-12.4996,-12.5143,-12.5143,-12.5143,-12.5143,-12.5045,-12.4948,-12.4948,-12.4118,-12.363,-12.363,-12.2654,-12.2117,-12.2117,-12.2117,-12.2214,-12.2312,-12.2214,-12.2214,-12.2312,-12.2166,-12.2019,0.0,0.0,0.0,0.0,0.0,0.0,0.0,-5.9274,-5.9712,-6.2511,-6.3824,-6.5115,-6.6996,-6.811,-6.9629,-7.2514,-7.4223,-7.5628,-7.6766,-7.931,-8.1816,-8.398,-8.4246,-8.5157,-8.7549,-8.7928,-8.8004,-8.8004,-8.9409,-8.9865,-8.9067,-9.0282,-9.0776,-9.0244,-9.089,-9.1307,-9.1459,-9.1991,-9.2256,-9.2219,-9.2067,-9.1991,-9.1991,-9.1307,-9.1004,-9.0966,-9.0282,-9.0016,-9.0016,-9.0016,-9.0016,-9.0016,-9.0016,-9.0016,-9.0016,-9.0016,-9.0016,-9.0016,-9.0016,-9.0016,-9.0016,-9.0016,-9.0016,-9.0016,-9.0016,-9.0016,-9.1297,-9.8378,-10.1585,-10.4644,-11.252,-11.5626,-11.7187,-11.8066,-11.831,-11.831,-11.831,-11.8456,-11.8603,-11.8603,-11.9628,-12.0799,-12.1678,-12.2751,-12.3337,-12.28,-12.2751,-12.2751,-12.2751,-12.2751,-12.3093,-12.402,-12.4118,-12.4118,-12.4118,-12.3288,-12.2751,-12.2751,-12.2556,-12.2458,-12.2458,-12.2263,-12.2117,-12.2117,-12.2117,-12.2556,-12.3483,-12.2556,-12.2605,-12.3435,-12.2556,-12.1189,0.0,0.0,0.0,0.0,0.0,0.0,0.0,0.0,0.0,0.0,0.0,-6.2921,-6.5426,0.0,-6.8228,-7.1488,-7.2529,-7.3843,-7.5893,-7.7678,-7.95,-8.1626,-8.2613,-8.3942,-8.603,-8.622,-8.66,-8.7473,-8.8688,-8.9219,-8.8802,-8.9941,-9.0624,-9.0624,-9.1004,-9.1421,-9.1839,-9.2294,-9.2484,-9.2484,-9.2484,-9.2484,-9.2484,-9.2067,-9.1839,-9.1839,-9.1421,-9.1004,-9.0624,-9.0624,-9.0358,-8.9979,-8.9561,-8.9143,-8.8764,-8.8764,-8.8764,-8.8764,-8.8764,-8.8764,-8.8764,-8.8764,-8.8764,-8.8764,-8.8764,-9.0667,-9.3566,-9.7712,-10.2479,-10.7131,-11.2143,-11.5223,-11.7382,-11.7968,-11.8505,-11.8944,-11.8944,-11.8944,-11.8944,-11.8944,-11.9774,-12.0701,-12.1238,-12.2263,-12.28,-12.2214,-12.2117,-12.2117,-12.2117,-12.2117,-12.2117,-12.2166,-12.2654,-12.2751,-12.2214,-12.2166,-12.2117,-12.2117,-12.2117,-12.2117,-12.2117,-12.2117,-12.241,-12.2947,-12.2947,-12.2947,-12.2947,-12.241,-12.1873,-12.1336,-11.9676,-11.9181,0.0,0.0,0.0,0.0,0.0,0.0,0.0,0.0,0.0,0.0,0.0,0.0,0.0,0.0,0.0,-7.0013,-7.1238,-7.2721,-7.5248,-7.559,-7.6615,-7.969,-8.1208,-8.2651,-8.4322,-8.4474,-8.5195,-8.6903,-8.7663,-8.8194,-8.8536,-8.9181,-8.9903,-9.0738,-9.089,-9.1383,-9.2219,-9.2408,-9.2484,-9.2484,-9.2484,0.0,-9.2484,-9.2332,-9.2332,-9.2484,-9.2332,-9.1839,-9.1231,-9.1231,-9.0738,-8.9903,-9.0075,-8.9639,-8.8984,-8.9448,-8.9293,-8.8599,-8.8907,-8.8286,-8.7587,-8.789,-8.8004,-8.7966,-8.877,-9.1716,0.0,-9.6837,-10.2643,-10.9028,-10.9924,-11.3585,-11.7041,-11.748,-11.8456,-11.9286,-11.953,-11.953,-11.953,-11.953,-12.0262,-12.0848,-12.0848,-12.1385,-12.1824,-12.1824,-12.2019,-12.2068,-12.1824,-12.2019,-12.1775,-12.0945,-12.1629,-12.1775,-12.0897,-12.1238,-12.1775,-12.241,-12.1873,-12.158,-12.1824,-12.2019,-12.2458,-12.3142,-12.3191,-12.2751,-12.1824,-12.1629,-12.0506,-11.8505,-11.3575,-11.3542,0.0,0.0,0.0,0.0,0.0,0.0,0.0,0.0,0.0,0.0,0.0,0.0,0.0,0.0,0.0,0.0,-7.049,-7.3238,-7.3779,-7.3388,-7.4678,-7.9462,-8.0183,-8.0943,-8.2575,-8.2765,-8.3448,-8.5119,-8.5347,-8.6068,-8.7587,-8.7739,0.0,0.0,0.0,-9.0548,-9.1345,-9.2105,-9.2484,-9.2484,-9.2484,-9.2484,-9.2484,-9.1725,-9.1763,-9.2446,-9.1687,-9.1307,-9.1231,-9.1231,-9.0738,-9.0242,-9.3247,-9.4121,-9.4245,-9.7195,-9.5447,-9.19,-9.3475,0.0,0.0,-8.9257,-8.9713,-9.0237,-9.3297,-9.4407,-9.6233,-10.292,-10.5589,-10.743,-11.2178,-11.474,-11.6309,-11.8261,-11.9579,-12.0604,-12.158,-12.1775,-12.1775,-12.1775,-12.1873,-12.197,-12.197,-12.1287,-12.0701,-12.0701,-12.1531,-12.1775,-12.0848,-12.1531,-12.2068,-12.197,-12.2068,0.0,-12.197,-12.0311,-12.0506,-12.3435,-12.0897,-11.9725,-12.0653,-12.1629,-12.1726,-12.0897,-12.0897,-12.0848,-12.0701,-11.9774,-11.8651,-11.709,-10.2496,-9.8884,0.0,0.0,0.0,0.0,0.0,0.0,0.0,0.0,0.0,0.0,0.0,0.0,0.0,0.0,0.0,0.0,-6.7533,-6.9404,-7.0941,-7.1953,-7.3843,-7.7374,-7.8285,-7.9044,-8.0221,-8.0753,-8.155,-8.2727,-8.3714,-8.4549,-8.5271,-8.6258,-8.6979,-8.7321,-8.8118,-8.8726,-8.9067,-9.0396,-9.1042,-9.1042,-9.2029,-9.2484,-9.2484,-9.2105,-9.2143,-9.2484,-9.2105,-9.1687,-9.1231,-9.1231,-9.0738,-9.0166,0.0,0.0,0.0,0.0,-8.9823,-8.807,-8.8774,-8.7882,-8.6144,-8.6827,-8.7093,-8.7636,-9.1341,-9.4689,-9.8047,-10.2948,-10.6461,-10.9483,-11.1479,-11.3478,-11.5137,-11.665,-11.8359,-11.9725,-12.0164,-12.075,-12.1189,-12.1189,-12.1189,0.0,-12.036,-11.9872,-11.9628,-11.9628,-11.9969,-12.0311,-12.0506,-12.0945,-12.1189,-12.1189,-12.1775,-12.1873,-12.1238,-12.0945,0.0,0.0,0.0,-12.2214,-12.3288,-12.3727,0.0,0.0,0.0,-11.7773,-11.3966,-11.1037,0.0,0.0,-9.7669,-9.6805,0.0,0.0,0.0,0.0,0.0,0.0,0.0,0.0,0.0,0.0,0.0,0.0,0.0,0.0,0.0,0.0,-6.4536,-6.5947,-6.7471,-6.9864,-7.2143,-7.3954,-7.5799,-7.707,-7.6729,-7.8323,-7.9614,-8.0183,-8.155,-8.2575,-8.3031,-8.4246,-8.5119,-8.5575,-8.6372,-8.6941,-8.7169,-8.8612,-8.9333,-8.9333,-9.0548,-9.1117,-9.1117,-9.1117,-9.1269,-9.1459,-9.1459,-9.1117,-9.0548,-9.0548,-9.0054,-8.9067,-8.779,-8.8187,-8.9186,-8.9256,-8.9086,-8.8855,-8.6936,-8.5391,-8.464,-8.6055,-8.589,-8.6132,-9.1974,-9.5732,-9.8814,-10.2955,-10.6752,-10.9964,-10.9964,-11.1623,-11.3575,-11.4893,-11.665,-11.8212,-11.8798,-11.953,-12.0116,-12.0116,-11.9384,-11.87,-11.8505,-11.8212,-11.8115,-11.8407,-11.8749,-11.9091,-11.9579,-11.992,-12.0116,-12.0116,-12.1043,-12.1385,-12.0604,-12.1238,-12.241,-12.4118,-12.3679,-12.4216,-12.6119,-12.5045,-12.4264,-12.3825,-12.0018,-11.4552,0.0,0.0,0.0,0.0,0.0,0.0,0.0,0.0,0.0,0.0,0.0,0.0,0.0,0.0,0.0,0.0,0.0,0.0,0.0,0.0,0.0,0.0,0.0,0.0,-6.3786,-6.6313,-6.8565,-6.8846,-7.3337,-7.4982,-7.1831,-7.521,-7.764,-7.7678,-7.8437,-7.9614,-8.1246,-8.1398,-8.2158,-8.3752,-8.4625,-8.5461,-8.6334,-8.7169,-8.7587,-8.7587,-8.7663,-8.7663,-8.7663,-8.7663,-8.8118,-8.8915,-8.8915,-8.8878,-8.8878,-8.8878,-8.8346,-8.7651,-8.9022,-9.2439,-9.6645,-9.8932,-9.9975,-9.892,-9.2126,-8.6497,-8.3428,-8.8702,-8.8039,-8.6932,-9.782,-9.8439,-9.7081,-10.4076,-10.6938,-10.7767,-10.7767,-10.9378,-11.1526,-11.3673,-11.4991,-11.6357,-11.8456,-11.8944,-11.8993,-11.8993,-11.6455,-11.4991,-11.6943,-11.6455,-11.6113,-11.7138,-11.8212,0.0,-11.748,-11.831,-11.8993,-11.8993,-11.992,-12.0555,-12.0506,-12.0555,-12.1922,-12.5045,-12.3337,-12.4069,-12.8218,-12.4411,-12.2751,-12.3776,-11.8505,-11.1574,-10.3082,0.0,0.0,0.0,0.0,0.0,0.0,0.0,0.0,0.0,0.0,0.0,0.0,0.0,0.0,0.0,0.0,0.0,0.0,0.0,0.0,0.0,0.0,0.0,0.0,-6.4399,-6.6962,-6.7523,-7.0263,-7.0644,-6.7491,-7.1435,-7.3761,-7.2514,-7.4868,-7.6501,-7.707,-7.8171,-7.9044,-7.9614,-8.1512,-8.2651,-8.2955,-8.4322,-8.5005,-8.5043,-8.6182,-8.6713,-8.6751,-8.7283,-8.7701,-8.7966,-8.7966,-8.7966,-8.789,-8.7359,-8.7225,-8.6886,-8.7458,-8.9849,-9.2998,-9.3787,-9.2418,-9.0143,-8.7576,-8.6108,-8.6128,-9.0267,-8.9937,-8.8848,-9.5198,-9.6277,-9.6465,-10.1543,-10.3667,-10.4644,-10.5327,-10.7133,-10.9134,-11.0549,-11.2306,-11.3819,-11.4552,-11.5235,-11.5772,-11.5772,-11.255,-10.9427,-10.7963,-11.0354,-11.1623,-10.9085,-11.216,-11.504,-11.6065,-11.6504,-11.7334,-11.8798,-11.9237,-11.9481,-11.9481,-12.0116,-12.1287,-12.3093,-12.3239,-12.4167,-12.6314,-12.4996,-12.4118,-12.3825,-11.914,-11.177,-10.1764,0.0,0.0,0.0,0.0,0.0,0.0,0.0,0.0,0.0,0.0,0.0,0.0,0.0,0.0,0.0,0.0,0.0,0.0,0.0,0.0,0.0,0.0,0.0,0.0,0.0,0.0,-6.6564,-6.7868,0.0,-6.363,-6.7009,-6.8926,-6.715,-7.0051,-7.1953,-7.2704,-7.5188,-7.6897,-7.7032,-8.0043,-8.12,-8.0373,-8.174,-8.2575,-8.2879,-8.398,-8.4663,-8.4967,-8.5499,-8.5726,-8.5726,-8.5726,-8.5726,-8.5612,-8.4208,-8.3279,-8.2363,-8.1768,-8.3627,-8.6388,-8.7311,-8.7005,-8.6042,-8.5923,-8.5688,-8.5594,-8.6763,-8.5146,-8.3884,-8.9789,-9.0022,-8.9733,-9.6052,-9.8884,-10.0593,-10.3179,-10.5181,-10.6889,-10.8353,-10.9768,-11.0891,-11.1281,-11.1623,-11.1379,-10.9866,-10.7621,-10.4692,-10.069,-10.3179,-10.5034,-10.3033,-10.6059,-10.9866,-11.3478,-11.46,-11.5674,-11.709,-11.7871,-11.8505,-11.8895,-12.0262,-12.158,-12.2654,-12.3727,-12.4655,-12.5289,-12.4557,-12.3142,-12.0945,-11.5869,-10.8353,0.0,0.0,0.0,0.0,0.0,0.0,0.0,0.0,0.0,0.0,0.0,0.0,0.0,0.0,0.0,0.0,0.0,0.0,0.0,0.0,0.0,0.0,0.0,0.0,0.0,0.0,0.0,-6.4975,-6.574,0.0,0.0,0.0,0.0,-6.1428,-6.3874,-6.6336,-6.8433,-7.244,-7.4918,-7.6045,-8.0188,-8.1223,-7.9144,-7.9724,-8.0601,-8.1363,-8.1095,-8.155,-8.2309,-8.2309,-8.2347,-8.2347,-8.2347,-8.2347,-8.2158,-7.95,-7.688,-7.4694,-7.3215,-7.4739,-7.8464,-8.0928,-8.3961,-8.6686,-8.6379,-8.4815,-8.1968,-7.8539,-7.4745,-7.3346,-8.1786,-8.0124,0.0,0.0,-9.2393,-9.5321,-10.0837,-10.3131,-10.4546,-10.6889,-10.7474,-10.7767,-10.8792,-10.8207,-10.6059,-10.152,-10.1374,-10.0202,-9.4638,0.0,-9.62,-9.825,-9.986,-10.3179,-10.9573,-11.2453,-11.3917,-11.4064,-11.5918,-11.7626,-11.87,-12.0799,-12.2507,-12.3581,-12.4557,-12.5045,-12.5045,-12.2849,-11.9579,-11.5186,-10.8743,0.0,0.0,0.0,0.0,0.0,0.0,0.0,0.0,0.0,0.0,0.0,0.0,0.0,0.0,0.0,0.0,0.0,0.0,0.0,0.0,0.0,0.0,0.0,0.0,0.0,0.0,-5.6484,-5.7751,-5.8382,-5.944,-5.8092,0.0,0.0,0.0,0.0,0.0,0.0,-6.3998,-6.6266,-6.9674,-7.3818,-7.783,-8.108,-8.3525,-8.2658,-8.215,-8.2349,-8.0198,-7.95,-7.9728,-8.0373,-8.0639,-8.0639,-8.0639,-8.0639,-8.0259,-7.5248,-7.3259,-7.3326,-7.1875,-7.2375,-7.4364,-7.8974,-7.8724,-7.6098,-7.8444,-7.9307,-7.8594,-7.4603,-7.4583,-7.5675,-7.463,0.0,0.0,0.0,0.0,-8.5511,-9.171,-9.5858,-9.9421,-10.3228,-10.4692,-10.5278,-10.5571,-10.4839,-10.1666,-9.332,-9.0587,-8.7219,-7.941,-8.0972,0.0,-8.2973,-8.9953,-9.7274,-10.2984,-10.7719,-11.1135,-11.2795,-11.4796,-11.6162,-11.6455,-11.9237,-12.1043,-12.1336,-12.1629,-12.1775,-12.1775,-11.7382,-11.255,-10.7377,0.0,0.0,0.0,0.0,0.0,0.0,0.0,0.0,0.0,0.0,0.0,0.0,0.0,0.0,0.0,0.0,0.0,0.0,0.0,0.0,0.0,0.0,0.0,0.0,0.0,0.0,0.0,-5.3834,-5.5486,-5.6016,-5.5397,-5.3884,0.0,0.0,0.0,0.0,0.0,0.0,0.0,0.0,0.0,-6.8284,-7.1295,-7.4447,-7.7801,-7.6193,-7.6596,-7.8171,-7.8986,-7.8676,-7.7678,-8.0209,-8.034,-7.8969,-7.8969,-7.707,-7.3691,-7.1064,-6.8344,-6.6174,0.0,0.0,0.0,0.0,-6.9912,-6.8807,-7.0428,-7.174,-7.1739,-6.808,0.0,0.0,0.0,0.0,0.0,0.0,0.0,-7.902,-8.5511,-9.1417,-9.6542,-9.9958,-10.1569,-10.2203,-10.1715,-9.5565,-8.8293,-8.1899,-7.9654,-7.6384,-6.8672,-7.0137,0.0,0.0,0.0,-9.0685,-9.7567,-10.479,-10.9768,-11.0989,-11.3429,-11.5381,-11.626,-11.8017,-11.9481,-12.0457,-12.0067,-11.8749,-11.6406,-11.1574,-10.5327,0.0,0.0,0.0,0.0,0.0,0.0,0.0,0.0,0.0,0.0,0.0,0.0,0.0,0.0,0.0,0.0,0.0,0.0,0.0,0.0,0.0,0.0,0.0,0.0,0.0,0.0,0.0,0.0,0.0,-5.5418,-5.536,0.0,0.0,0.0,0.0,0.0,0.0,0.0,0.0,0.0,0.0,0.0,0.0,0.0,-6.6013,-6.8168,-6.6995,-6.8068,-7.1428,-7.5607,-7.6412,-7.4109,-7.8039,-7.8393,-7.5855,-7.5456,0.0,-6.6001,-6.6098,0.0,0.0,0.0,0.0,0.0,0.0,0.0,0.0,0.0,0.0,0.0,0.0,0.0,0.0,0.0,0.0,0.0,0.0,0.0,0.0,0.0,0.0,-9.2783,-9.4784,-9.6542,-9.7127,-9.4882,-8.3363,-7.2626,-6.9746,-6.916,-6.7062,0.0,0.0,0.0,0.0,0.0,0.0,-9.2637,-10.235,-10.8646,-10.9183,-11.2062,-11.4796,-11.6846,-11.7285,-11.831,-12.0213,-11.8651,-11.5333,-11.0208,-10.5717,0.0,0.0,0.0,0.0,0.0,0.0,0.0,0.0,0.0,0.0,0.0,0.0,0.0,0.0,0.0,0.0,0.0,0.0,0.0,0.0,0.0,0.0,0.0,0.0,0.0,0.0,0.0,0.0,0.0,0.0,0.0,0.0,0.0,0.0,0.0,0.0,0.0,0.0,0.0,0.0,0.0,0.0,0.0,0.0,0.0,0.0,0.0,0.0,0.0,0.0,-6.5459,-6.4247,-6.2871,-6.3698,-6.5272,-6.6933,-6.4371,-6.3637,-6.3914,-5.8536,0.0,0.0,0.0,0.0,0.0,0.0,0.0,0.0,0.0,0.0,0.0,0.0,0.0,0.0,0.0,0.0,0.0,0.0,0.0,0.0,0.0,0.0,-7.9215,-8.0484,-8.434,-8.5413,-7.7214,0.0,0.0,0.0,0.0,0.0,0.0,0.0,0.0,0.0,0.0,0.0,-8.7024,-9.742,-10.5376,-10.889,-11.1379,-11.3673,-11.5772,-11.7578,-11.8798,-11.9188,-11.4015,-10.9329,0.0,0.0,0.0,0.0,0.0,0.0,0.0,0.0,0.0,0.0,0.0,0.0,0.0,0.0,0.0,0.0,0.0,0.0,0.0,0.0,0.0,0.0,0.0,0.0,0.0,0.0,0.0,0.0,0.0,0.0,0.0,0.0,0.0,0.0,0.0,0.0,0.0,0.0,0.0,0.0,0.0,0.0,0.0,0.0,0.0,0.0,0.0,0.0,0.0,0.0,0.0,0.0,0.0,0.0,0.0,0.0,0.0,0.0,-5.9524,-5.6193,0.0,0.0,0.0,0.0,0.0,0.0,0.0,0.0,0.0,0.0,0.0,0.0,0.0,0.0,0.0,0.0,0.0,0.0,0.0,0.0,0.0,0.0,0.0,0.0,0.0,0.0,0.0,0.0,0.0,0.0,0.0,0.0,0.0,0.0,0.0,0.0,0.0,0.0,0.0,0.0,-8.3363,-9.5175,-10.4302,-10.806,-11.0354,-11.2746,-11.543,-11.6113,-11.5967,-11.4796,-10.972,0.0,0.0,0.0,0.0,0.0,0.0,0.0,0.0,0.0,0.0,0.0,0.0,0.0,0.0,0.0,0.0,0.0,0.0,0.0,0.0,0.0,0.0,0.0,0.0,0.0,0.0,0.0,0.0,0.0,0.0,0.0,0.0,0.0,0.0,0.0,0.0,0.0,0.0,0.0,0.0,0.0,0.0,0.0,0.0,0.0,0.0,0.0,0.0,0.0,0.0,0.0,0.0,0.0,0.0,0.0,0.0,0.0,0.0,0.0,-5.5656,-5.0448,0.0,0.0,0.0,0.0,0.0,0.0,0.0,0.0,0.0,0.0,0.0,0.0,0.0,0.0,0.0,0.0,0.0,0.0,0.0,0.0,0.0,0.0,0.0,0.0,0.0,0.0,0.0,0.0,0.0,0.0,0.0,0.0,0.0,0.0,0.0,0.0,0.0,0.0,0.0,0.0,-8.0874,-9.3662,-10.3521,-10.6938,-10.9036,-11.1477,-11.4698,-11.4259,-11.2648,-11.0012,-10.5132,0.0,0.0,0.0,0.0,0.0,0.0,0.0,0.0,0.0,0.0,0.0,0.0,0.0,0.0,0.0,0.0,0.0,0.0,0.0,0.0,0.0,0.0,0.0,0.0,0.0,0.0,0.0,0.0,0.0,0.0,0.0,0.0,0.0,0.0,0.0,0.0,0.0,0.0,0.0,0.0,0.0,0.0,0.0,0.0,0.0,0.0,0.0,0.0,0.0,0.0,0.0,0.0,0.0,0.0,0.0,0.0,0.0,0.0,0.0,0.0,0.0,0.0,0.0,0.0,0.0,0.0,0.0,0.0,0.0,0.0,0.0,0.0,0.0,0.0,0.0,0.0,0.0,0.0,0.0,0.0,0.0,0.0,0.0,0.0,0.0,0.0,0.0,0.0,0.0,0.0,0.0,0.0,0.0,0.0,0.0,0.0,0.0,0.0,0.0,0.0,0.0,-7.9703,-9.1905,-10.1569,-10.5766,-10.7279,-10.928,-11.255,-11.2746,-11.094,-10.6791,0.0,0.0,0.0,0.0,0.0,0.0,0.0,0.0,0.0,0.0,0.0,0.0,0.0,0.0,0.0,0.0,0.0,0.0,0.0,0.0,0.0,0.0,0.0,0.0,0.0,0.0,0.0,0.0,0.0,0.0,0.0,0.0,0.0,0.0,0.0,0.0,0.0,0.0,0.0,0.0,0.0,0.0,0.0,0.0,0.0,0.0,0.0,0.0,0.0,0.0,0.0,0.0,0.0,0.0,0.0,0.0,0.0,0.0,0.0,0.0,0.0,0.0,0.0,0.0,0.0,0.0,0.0,0.0,0.0,0.0,0.0,0.0,0.0,0.0,0.0,0.0,0.0,0.0,0.0,0.0,0.0,0.0,0.0,0.0,0.0,0.0,0.0,0.0,0.0,0.0,0.0,0.0,0.0,0.0,0.0,0.0,0.0,0.0,0.0,0.0,0.0,0.0,-7.8629,-9.0685,-10.0593,-10.5522,-10.645,-10.8304,-11.2209,-11.1916,-10.9134,-10.3521,0.0,0.0,0.0,0.0,0.0,0.0,0.0,0.0,0.0,0.0,0.0,0.0,0.0,0.0,0.0,0.0,0.0,0.0,0.0,0.0,0.0,0.0,0.0,0.0,0.0,0.0,0.0,0.0,0.0,0.0,0.0,0.0,0.0,0.0,0.0,0.0,0.0,0.0,0.0,0.0,0.0,0.0,0.0,0.0,0.0,0.0,0.0,0.0,0.0,0.0,0.0,0.0,0.0,0.0,0.0,0.0,0.0,0.0,0.0,0.0,0.0,0.0,0.0,0.0,0.0,0.0,0.0,0.0,0.0,0.0,0.0,0.0,0.0,0.0,0.0,0.0,0.0,0.0,0.0,0.0,0.0,0.0,0.0,0.0,0.0,0.0,0.0,0.0,0.0,0.0,0.0,0.0,0.0,0.0,0.0,0.0,0.0,0.0,0.0,0.0,0.0,0.0,-7.8092,-9.0001,-9.9812,-10.4595,-10.5376,-10.7084,-11.0793,-11.0354,-10.7182,-10.0739,0.0,0.0,0.0,0.0,0.0,0.0,0.0,0.0,0.0,0.0,0.0,0.0,0.0,0.0,0.0,0.0,0.0,0.0,0.0,0.0,0.0,0.0,0.0,0.0,0.0,0.0,0.0,0.0,0.0,0.0,0.0,0.0,0.0,0.0,0.0,0.0,0.0,0.0,0.0,0.0,0.0,0.0,0.0,0.0,0.0,0.0,0.0,0.0,0.0,0.0,0.0,0.0,0.0,0.0,0.0,0.0,0.0,0.0,0.0,0.0,0.0,0.0,0.0,0.0,0.0,0.0,0.0,0.0,0.0,0.0,0.0,0.0,0.0,0.0,0.0,0.0,0.0,0.0,0.0,0.0,0.0,0.0,0.0,0.0,0.0,0.0,0.0,0.0,0.0,0.0,0.0,0.0,0.0,0.0,0.0,0.0,0.0,0.0,0.0,0.0,0.0,0.0,-7.8092,-9.0001,-9.9275,-10.2594,-10.3814,-10.5327,-10.7523,-10.7719,-10.4936,0.0,0.0,0.0,0.0,0.0,0.0,0.0,0.0,0.0,0.0,0.0,0.0,0.0,0.0,0.0,0.0,0.0,0.0,0.0,0.0,0.0,0.0,0.0,0.0,0.0,0.0,0.0,0.0,0.0,0.0,0.0,0.0,0.0,0.0,0.0,0.0,0.0,0.0,0.0,0.0,0.0,0.0,0.0,0.0,0.0,0.0,0.0,0.0,0.0,0.0,0.0,0.0,0.0,0.0,0.0,0.0,0.0,0.0,0.0,0.0,0.0,0.0,0.0,0.0,0.0,0.0,0.0,0.0,0.0,0.0,0.0,0.0,0.0,0.0,0.0,0.0,0.0,0.0,0.0,0.0,0.0,0.0,0.0,0.0,0.0,0.0,0.0,0.0,0.0,0.0,0.0,0.0,0.0,0.0,0.0,0.0,0.0,0.0,0.0,0.0,0.0,0.0,0.0,-7.6482,-8.5072,-9.3564,-10.2008,-10.2496,-10.3423,-10.6352,-10.6596,-10.4107,-9.8347,0.0,0.0,0.0,0.0,0.0,0.0,0.0,0.0,0.0,0.0,0.0,0.0,0.0,0.0,0.0,0.0,0.0,0.0,0.0,0.0,0.0,0.0,0.0,0.0,0.0,0.0,0.0,0.0,0.0,0.0,0.0,0.0,0.0,0.0,0.0,0.0,0.0,0.0,0.0,0.0,0.0,0.0,0.0,0.0,0.0,0.0,0.0,0.0,0.0,0.0,0.0,0.0,0.0,0.0,0.0,0.0,0.0,0.0,0.0,0.0,0.0,0.0,0.0,0.0,0.0,0.0,0.0,0.0,0.0,0.0,0.0,0.0,0.0,0.0,0.0,0.0,0.0,0.0,0.0,0.0,0.0,0.0,0.0,0.0,0.0,0.0,0.0,0.0,0.0,0.0,0.0,0.0,0.0,0.0,0.0,0.0,0.0,0.0,0.0,0.0,0.0,0.0,0.0,-8.4877,-9.3418,-10.1422,-10.2057,-10.2838,-10.5229,-10.5425,-10.3326,-9.8299,0.0,0.0,0.0,0.0,0.0,0.0,0.0,0.0,0.0,0.0,0.0,0.0,0.0,0.0,0.0,0.0,0.0,0.0,0.0,0.0,0.0,0.0,0.0,0.0,0.0,0.0,0.0,0.0,0.0,0.0,0.0,0.0,0.0,0.0,0.0,0.0,0.0,0.0,0.0,0.0,0.0,0.0,0.0,0.0,0.0,0.0,0.0,0.0,0.0,0.0,0.0,0.0,0.0,0.0,0.0,0.0,0.0,0.0,0.0,0.0,0.0,0.0,0.0,0.0,0.0,0.0,0.0,0.0,0.0,0.0,0.0,0.0,0.0,0.0,0.0,0.0,0.0,0.0,0.0,0.0,0.0,0.0,0.0,0.0,0.0,0.0,0.0,0.0,0.0,0.0,0.0,0.0,0.0,0.0,0.0,0.0,0.0,0.0,0.0,0.0,0.0,0.0,0.0,-8.7903,-9.6883,-10.0739,-10.2057,-10.3082,-10.4058,-10.4253,-10.2398,-9.8055,-9.0685,0.0,0.0,0.0,0.0,0.0,0.0,0.0,0.0,0.0,0.0,0.0,0.0,0.0,0.0,0.0,0.0,0.0,0.0,0.0,0.0,0.0,0.0,0.0,0.0,0.0,0.0,0.0,0.0,0.0,0.0,0.0,0.0,0.0,0.0,0.0,0.0,0.0,0.0,0.0,0.0,0.0,0.0,0.0,0.0,0.0,0.0,0.0,0.0,0.0,0.0,0.0,0.0,0.0,0.0,0.0,0.0,0.0,0.0,0.0,0.0,0.0,0.0,0.0,0.0,0.0,0.0,0.0,0.0,0.0,0.0,0.0,0.0,0.0,0.0,0.0,0.0,0.0,0.0,0.0,0.0,0.0,0.0,0.0,0.0,0.0,0.0,0.0,0.0,0.0,0.0,0.0,0.0,0.0,0.0,0.0,0.0,0.0,0.0,0.0,0.0,0.0,0.0,-8.2973,-8.9123,-9.9031,-10.03,-10.0885,-10.191,-10.2789,-10.1032,-9.5858,-8.8488,0.0,0.0,0.0,0.0,0.0,0.0,0.0,0.0,0.0,0.0,0.0,0.0,0.0,0.0,0.0,0.0,0.0,0.0,0.0,0.0,0.0,0.0,0.0,0.0,0.0,0.0,0.0,0.0,0.0,0.0,0.0,0.0,0.0,0.0,0.0,0.0,0.0,0.0,0.0,0.0,0.0,0.0,0.0,0.0,0.0,0.0,0.0,0.0,0.0,0.0,0.0,0.0,0.0,0.0,0.0,0.0,0.0,0.0,0.0,0.0,0.0,0.0,0.0,0.0,0.0,0.0,0.0,0.0,0.0,0.0,0.0,0.0,0.0,0.0,0.0,0.0,0.0,0.0,0.0,0.0,0.0,0.0,0.0,0.0,0.0,0.0,0.0,0.0,0.0,0.0,0.0,0.0,0.0,0.0,0.0,0.0,0.0,0.0,0.0,0.0,0.0,0.0,-7.4334,-8.2485,-9.7322,-10.0251,-10.1374,-10.1959,-10.2545,-10.0349,-9.4394,-8.6048,0.0,0.0,0.0,0.0,0.0,0.0,0.0,0.0,0.0,0.0,0.0,0.0,0.0,0.0,0.0,0.0,0.0,0.0,0.0,0.0,0.0,0.0,0.0,0.0,0.0,0.0,0.0,0.0,0.0,0.0,0.0,0.0,0.0,0.0,0.0,0.0,0.0,0.0,0.0,0.0,0.0,0.0,0.0,0.0,0.0,0.0,0.0,0.0,0.0,0.0,0.0,0.0,0.0,0.0,0.0,0.0,0.0,0.0,0.0,0.0,0.0,0.0,0.0,0.0,0.0,0.0,0.0,0.0,0.0,0.0,0.0,0.0,0.0,0.0,0.0,0.0,0.0,0.0,0.0,0.0,0.0,0.0,0.0,0.0,0.0,0.0,0.0,0.0,0.0,0.0,0.0,0.0,0.0,0.0,0.0,0.0,0.0,0.0,0.0,0.0,0.0,0.0,0.0,-7.7263,-9.3564,-9.9568,-10.2447,-10.2643,-10.2643,-9.9763,-9.3076,0.0,0.0,0.0,0.0,0.0,0.0,0.0,0.0,0.0,0.0,0.0,0.0,0.0,0.0,0.0,0.0,0.0,0.0,0.0,0.0,0.0,0.0,0.0,0.0,0.0,0.0,0.0,0.0,0.0,0.0,0.0,0.0,0.0,0.0,0.0,0.0,0.0,0.0,0.0,0.0,0.0,0.0,0.0,0.0,0.0,0.0,0.0,0.0,0.0,0.0,0.0,0.0,0.0,0.0,0.0,0.0,0.0,0.0,0.0,0.0,0.0,0.0,0.0,0.0,0.0,0.0,0.0,0.0,0.0,0.0,0.0,0.0,0.0,0.0,0.0,0.0,0.0,0.0,0.0,0.0,0.0,0.0,0.0,0.0,0.0,0.0,0.0,0.0,0.0,0.0,0.0,0.0,0.0,0.0,0.0,0.0,0.0,0.0,0.0,0.0,0.0,0.0,0.0,0.0,-7.4871,-8.229,-9.332,-10.0544,-10.1471,-10.152,-9.8396,-9.0977,0.0,0.0,0.0,0.0,0.0,0.0,0.0,0.0,0.0,0.0,0.0,0.0,0.0,0.0]}]]]